Date StartTime U_cm/s V_cm/s W_cm/s Ustd_cm/s Vstd_cm/s Wstd_cm/s Uvar_(cm/s)^2 Vvar_(cm/s)^2 Wvar_(cm/s)^2 KE_(m/s)^2 TurbulentKE_(m/s)^2 HorizWindSpeed_cm/s FrictionSpeec_cm/s DragCoef SpeedOfSound_m/s SonicTemperature_C Pressure_mb 
10/21/2014  00:00:00     -172.793      -74.663       -3.351      100.612       50.919       41.089    10122.768     2592.733     1688.344        2.492        0.720      188.234       47.627        0.064      337.617        9.710      859.768
10/21/2014  00:01:00     -181.150      -81.327      -15.878       58.308       84.414       35.479     3399.840     7125.690     1258.770        2.573        0.589      198.569       27.209        0.019      337.578        9.643      859.812
10/21/2014  00:02:00     -201.910      -18.693       -7.037      130.863      102.765       53.628    17125.100    10560.731     2876.014        3.586        1.528      202.773       63.460        0.098      337.512        9.533      859.847
10/21/2014  00:03:00     -223.867     -108.853       -4.473      111.135      121.948       53.993    12350.885    14871.297     2915.267        4.606        1.507      248.929       56.905        0.052      337.531        9.563      859.883
10/21/2014  00:04:00     -176.500      -53.510       -0.301       96.367      109.958       49.062     9286.694    12090.732     2407.097        2.890        1.189      184.433       52.275        0.080      337.502        9.517      859.908
10/21/2014  00:05:00     -330.569      -73.424      -18.616      205.790      116.752       75.774    42349.455    13631.001     5741.761        8.836        3.086      338.625      104.317        0.095      337.513        9.533      859.912
10/21/2014  00:06:00     -245.005     -107.741      -18.378      126.636      158.329       69.710    16036.742    25067.981     4859.427        5.896        2.298      267.648       65.369        0.060      337.490        9.494      859.927
10/21/2014  00:07:00     -251.769      -52.769       -8.136      122.237      144.235       70.144    14941.989    20803.693     4920.154        5.345        2.033      257.240       70.330        0.075      337.446        9.422      859.943
10/21/2014  00:08:00     -213.264     -119.963       -9.186      115.820      117.852       59.215    13414.282    13889.122     3506.390        4.538        1.540      244.689       55.076        0.051      337.478        9.475      859.957
10/21/2014  00:09:00     -195.277     -103.067       -2.089      106.385       79.142       55.726    11317.867     6263.517     3105.343        3.472        1.034      220.808       47.373        0.046      337.440        9.413      859.969
10/21/2014  00:10:00     -196.826      -50.021        1.922      102.687       97.720       44.641    10544.627     9549.176     1992.804        3.166        1.104      203.083       41.652        0.042      337.414        9.369      859.995
10/21/2014  00:11:00     -313.032      -35.788      -12.747      154.213      112.998       68.826    23781.677    12768.563     4737.081        7.035        2.064      315.071       80.260        0.065      337.466        9.455      859.996
10/21/2014  00:12:00     -310.904      -24.180      -23.194      109.129       87.558       58.754    11909.216     7666.456     3452.007        6.040        1.151      311.843       55.463        0.032      337.420        9.378      860.019
10/21/2014  00:13:00     -349.141       -3.480       -9.539      135.558       87.312       66.282    18376.098     7623.465     4393.300        7.619        1.520      349.158       69.692        0.040      337.413        9.367      860.045
10/21/2014  00:14:00     -239.199      -85.937        1.572      146.003      121.433       79.661    21316.903    14745.970     6345.941        5.350        2.120      254.168       78.517        0.095      337.388        9.325      860.046
10/21/2014  00:15:00     -396.793     -101.554      -34.143      124.714      111.032       61.341    15553.602    12328.191     3762.755       10.028        1.582      409.583       64.565        0.025      337.442        9.414      860.087
10/21/2014  00:16:00     -249.904      -21.611      -10.176      149.183       82.376       47.108    22255.643     6785.852     2219.202        4.714        1.563      250.837       52.161        0.043      337.400        9.346      860.109
10/21/2014  00:17:00     -294.462      -60.360      -15.604       99.518      103.361       54.752     9903.809    10683.423     2997.731        5.709        1.179      300.584       57.378        0.036      337.408        9.358      860.132
10/21/2014  00:18:00     -196.285      -95.999        1.251      124.984      124.543       52.140    15620.988    15511.070     2718.620        4.079        1.693      218.503       61.197        0.078      337.391        9.330      860.147
10/21/2014  00:19:00     -120.800      -61.703        2.329      119.476       57.119       52.335    14274.633     3262.574     2738.962        1.934        1.014      135.647       55.800        0.169      337.387        9.324      860.163
10/21/2014  00:20:00     -232.743     -120.997      -13.955      121.955       72.953       42.724    14873.120     5322.087     1825.378        4.551        1.101      262.316       51.522        0.039      337.380        9.311      860.182
10/21/2014  00:21:00     -197.717      -74.181       -1.171      170.828      112.697       56.632    29182.358    12700.613     3207.144        4.484        2.255      211.175       68.709        0.106      337.346        9.256      860.201
10/21/2014  00:22:00     -310.005     -100.493        8.401      121.055      116.413       61.100    14654.381    13551.901     3733.244        6.910        1.597      325.887       69.846        0.046      337.356        9.271      860.194
10/21/2014  00:23:00     -339.044     -118.141      -16.130      122.544       86.447       46.861    15017.016     7473.073     2195.916        7.692        1.234      359.038       47.008        0.017      337.351        9.264      860.213
10/21/2014  00:24:00     -219.881     -129.799      -16.419      107.214       98.232       48.135    11494.854     9649.590     2316.965        4.446        1.173      255.333       46.682        0.033      337.340        9.245      860.221
10/21/2014  00:25:00     -204.957      -97.120        6.743      112.961      100.246       71.378    12760.241    10049.339     5094.861        3.969        1.395      226.803       66.711        0.087      337.341        9.246      860.223
10/21/2014  00:26:00     -279.834     -125.481      -24.519       85.421       82.104       43.131     7296.811     6741.100     1860.297        5.527        0.795      306.680       38.259        0.016      337.337        9.239      860.235
10/21/2014  00:27:00     -222.745     -197.530      -14.470      105.359       90.961       59.674    11100.420     8273.967     3560.983        5.589        1.147      297.714       55.509        0.035      337.351        9.263      860.224
10/21/2014  00:28:00     -170.869     -158.207       -5.809      126.053      101.454       54.234    15889.331    10292.914     2941.327        4.169        1.456      232.865       61.448        0.070      337.302        9.182      860.207
10/21/2014  00:29:00     -176.053     -107.042        5.184       95.467       77.835       54.502     9113.974     6058.218     2970.487        3.031        0.907      206.040       52.648        0.065      337.260        9.112      860.212
10/21/2014  00:30:00     -218.765      -82.202      -26.626      145.492       57.493       43.801    21167.934     3305.461     1918.528        4.085        1.320      233.699       50.945        0.048      337.294        9.168      860.192
10/21/2014  00:31:00     -151.329     -102.999       -7.887      109.867       87.356       52.297    12070.783     7631.076     2734.969        2.800        1.122      183.056       52.555        0.082      337.300        9.181      860.172
10/21/2014  00:32:00     -100.962      -45.374        6.857       89.082       76.462       43.085     7935.641     5846.371     1856.320        1.397        0.782      110.689       34.637        0.098      337.256        9.109      860.170
10/21/2014  00:33:00     -206.935      -47.358       -1.946       87.200       72.201       45.979     7603.920     5213.010     2114.043        3.000        0.747      212.285       40.675        0.037      337.230        9.061      860.155
10/21/2014  00:34:00     -187.325      -87.534        3.863      130.520       92.121       58.422    17035.537     8486.210     3413.096        3.585        1.447      206.768       61.745        0.089      337.241        9.080      860.124
10/21/2014  00:35:00     -268.418     -113.054      -22.462      127.463      113.940       72.771    16246.923    12982.341     5295.609        5.992        1.726      291.254       70.930        0.059      337.273        9.134      860.099
10/21/2014  00:36:00     -170.761      -47.960        9.370      103.899       97.818       56.301    10795.048     9568.307     3169.818        2.754        1.177      177.368       61.258        0.119      337.188        8.993      860.097
10/21/2014  00:37:00     -202.076     -107.851       -8.945       81.729       73.328       37.632     6679.660     5377.029     1416.187        3.301        0.674      229.056       44.523        0.038      337.198        9.006      860.108
10/21/2014  00:38:00     -281.054     -175.716      -10.875      123.471       93.865       55.303    15245.122     8810.558     3058.396        6.855        1.356      331.463       56.562        0.029      337.186        8.988      860.106
10/21/2014  00:39:00     -193.577      -97.550        2.277      129.594      106.904       58.559    16794.551    11428.498     3429.120        3.932        1.583      216.767       62.094        0.082      337.137        8.906      860.111
10/21/2014  00:40:00     -244.566     -154.680       -2.717      120.279       87.309       68.043    14467.007     7622.932     4629.853        5.523        1.336      289.376       56.819        0.039      337.131        8.894      860.118
10/21/2014  00:41:00     -298.570     -153.598      -19.193      143.786      105.974       57.888    20674.318    11230.450     3351.010        7.417        1.763      335.763       74.358        0.049      337.128        8.889      860.133
10/21/2014  00:42:00     -159.059     -120.329        8.896      124.007       85.237       55.683    15377.711     7265.411     3100.620        3.280        1.287      199.447       68.836        0.119      337.118        8.873      860.162
10/21/2014  00:43:00     -186.138     -114.187       -3.248       80.266       89.874       45.279     6442.680     8077.301     2050.186        3.213        0.829      218.371       47.624        0.048      337.076        8.802      860.150
10/21/2014  00:44:00     -254.386     -145.628       -3.857      132.425       93.643       54.982    17536.460     8768.996     3023.018        5.763        1.466      293.121       61.650        0.044      337.068        8.789      860.143
10/21/2014  00:45:00     -257.389     -112.204        0.725      125.853       78.774       64.659    15839.002     6205.408     4180.838        5.253        1.311      280.782       68.884        0.060      337.038        8.738      860.124
10/21/2014  00:46:00     -224.085     -135.933       -2.979      124.092       89.968       46.838    15398.849     8094.269     2193.835        4.719        1.284      262.091       50.045        0.036      337.022        8.712      860.087
10/21/2014  00:47:00     -153.410     -106.108       -4.544      131.913      102.237       57.120    17401.140    10452.353     3262.688        3.296        1.556      186.531       66.254        0.126      337.015        8.702      860.070
10/21/2014  00:48:00     -272.099     -157.412      -19.208       98.615       73.004       51.061     9724.842     5329.519     2607.272        5.842        0.883      314.351       41.302        0.017      336.997        8.669      860.068
10/21/2014  00:49:00     -205.397     -161.919       -1.214      106.263      101.839       57.763    11291.757    10371.256     3336.525        4.670        1.250      261.545       58.543        0.050      337.007        8.686      860.071
10/21/2014  00:50:00     -295.159     -184.897       -3.512      211.776      146.797       76.754    44848.942    21549.365     5891.133        9.679        3.614      348.290       89.782        0.066      337.043        8.747      860.070
10/21/2014  00:51:00     -295.764     -197.609      -10.557      135.711      119.178       78.346    18417.405    14203.307     6138.100        8.269        1.938      355.704       75.738        0.045      337.048        8.755      860.050
10/21/2014  00:52:00     -277.054     -186.590       -3.781      152.699      125.994       81.434    23316.847    15874.575     6631.564        7.870        2.291      334.028       79.119        0.056      337.048        8.756      860.050
10/21/2014  00:53:00     -260.970     -107.878      -12.791      172.422       83.241       52.398    29729.228     6929.011     2745.578        5.965        1.970      282.388       68.635        0.059      337.028        8.723      860.054
10/21/2014  00:54:00     -295.847     -113.161      -16.912      118.713      114.869       58.193    14092.746    13194.820     3386.414        6.564        1.534      316.750       51.714        0.027      337.022        8.711      860.030
10/21/2014  00:55:00     -287.666     -159.777       -9.351      175.921      109.670       69.844    30948.078    12027.512     4878.233        7.810        2.393      329.059       77.060        0.055      337.018        8.705      860.013
10/21/2014  00:56:00     -335.825     -182.715      -10.792      140.618      133.799       64.875    19773.384    17902.249     4208.711        9.407        2.094      382.313       61.952        0.026      337.016        8.702      860.010
10/21/2014  00:57:00     -197.192      -48.214       -9.065      125.989      115.652       52.101    15873.177    13375.324     2714.469        3.662        1.598      203.000       64.595        0.101      336.989        8.658      860.024
10/21/2014  00:58:00     -178.705     -115.062       -1.857      120.392      115.855       58.014    14494.171    13422.459     3365.648        3.822        1.564      212.543       67.477        0.101      336.983        8.647      860.036
10/21/2014  00:59:00     -265.010     -177.576        6.989      119.435      125.788       65.001    14264.710    15822.583     4225.171        6.806        1.716      319.004       59.607        0.035      337.006        8.685      860.040
10/21/2014  01:00:00     -413.822     -248.823      -28.658      156.999      124.541       65.175    24648.638    15510.372     4247.716       13.919        2.220      482.868       66.782        0.019      337.032        8.729      860.038
10/21/2014  01:01:00     -287.063     -151.363      -19.231      158.452      116.891       70.258    25107.035    13663.428     4936.166        7.469        2.185      324.524       78.873        0.059      337.004        8.683      860.047
10/21/2014  01:02:00     -263.806     -105.612       11.799      163.373      117.059       77.293    26690.774    13702.802     5974.241        6.362        2.318      284.161       87.347        0.094      337.006        8.686      860.045
10/21/2014  01:03:00     -325.711     -159.306       -0.118      235.299      157.946       83.182    55365.588    24946.855     6919.273       10.933        4.362      362.583      110.607        0.093      337.062        8.778      860.020
10/21/2014  01:04:00     -318.493     -181.117       -2.962      131.110      139.992       76.170    17189.887    19597.831     5801.840        8.841        2.129      366.389       68.801        0.035      337.057        8.770      860.017
10/21/2014  01:05:00     -371.070     -242.350      -16.148      168.709      144.591       79.431    28462.879    20906.671     6309.316       12.617        2.784      443.200       88.304        0.040      337.082        8.811      860.011
10/21/2014  01:06:00     -275.677     -125.896        6.192      209.000      142.656       95.466    43681.133    20350.849     9113.790        8.250        3.657      303.064      101.497        0.112      337.099        8.839      860.004
10/21/2014  01:07:00     -382.187     -158.894      -20.133      179.004      129.753       88.449    32042.558    16835.948     7823.268       11.420        2.835      413.902       90.749        0.048      337.113        8.865      860.013
10/21/2014  01:08:00     -284.354     -182.561       -8.629      118.909      112.782       64.549    14139.242    12719.818     4166.552        7.264        1.551      337.913       60.882        0.032      337.107        8.853      860.031
10/21/2014  01:09:00     -268.426     -114.177       -8.510      136.912      133.102       74.438    18744.809    17716.101     5541.013        6.357        2.100      291.700       77.227        0.070      337.057        8.769      860.025
10/21/2014  01:10:00     -304.541     -202.917       -0.653      228.177      170.400       95.783    52064.658    29035.993     9174.318       11.208        4.514      365.952      115.304        0.099      337.083        8.814      859.993
10/21/2014  01:11:00     -338.606     -193.646      -15.973      155.337      133.967       77.027    24129.647    17947.229     5933.131       10.020        2.401      390.068       80.482        0.043      337.079        8.806      859.985
10/21/2014  01:12:00     -286.191      -85.014        1.305      211.519      131.286       87.109    44740.390    17236.085     7587.986        7.934        3.478      298.551       98.031        0.108      337.086        8.821      859.967
10/21/2014  01:13:00     -338.158     -169.536      -17.121      177.592      129.440       77.773    31539.048    16754.686     6048.701        9.886        2.717      378.277       83.848        0.049      337.065        8.783      859.978
10/21/2014  01:14:00     -327.126     -193.039       -4.358      214.534      176.556       98.695    46024.708    31172.053     9740.787       11.560        4.347      379.836      127.896        0.113      337.090        8.825      859.956
10/21/2014  01:15:00     -275.341     -112.249       -6.736      207.186      178.432       82.453    42925.913    31837.936     6798.473        8.500        4.078      297.343       96.932        0.106      337.075        8.801      859.959
10/21/2014  01:16:00     -333.216     -241.431      -14.321      160.271      129.127       91.420    25686.649    16673.746     8357.696       11.011        2.536      411.487       74.769        0.033      337.085        8.816      859.960
10/21/2014  01:17:00     -485.030     -234.278      -31.446      224.458      168.230       94.449    50381.265    28301.253     8920.573       18.935        4.380      538.647       99.738        0.034      337.081        8.809      859.972
10/21/2014  01:18:00     -297.777      -90.366       -8.987      164.338      197.381       71.108    27006.901    38959.096     5056.335        8.396        3.551      311.187       65.745        0.045      337.029        8.724      860.008
10/21/2014  01:19:00     -303.909     -159.913      -11.079      197.933      123.573       84.015    39177.304    15270.201     7058.476        8.977        3.075      343.414       86.784        0.064      337.057        8.771      860.034
10/21/2014  01:20:00     -404.326     -151.765       -4.423      204.537      197.973       97.942    41835.364    39193.177     9592.573       13.856        4.531      431.870      104.193        0.058      337.113        8.865      860.022
10/21/2014  01:21:00     -451.989     -310.708      -20.446      180.389      192.597      106.736    32540.153    37093.635    11392.592       19.113        4.051      548.483      108.024        0.039      337.127        8.889      860.025
10/21/2014  01:22:00     -337.677     -139.681      -13.681      178.230      140.817       79.386    31765.929    19829.355     6302.215        9.580        2.895      365.427       90.560        0.061      337.113        8.865      860.028
10/21/2014  01:23:00     -453.071     -191.486      -23.484      252.386      185.577       96.677    63698.788    34438.924     9346.422       17.497        5.374      491.874      113.695        0.053      337.104        8.848      860.009
10/21/2014  01:24:00     -429.270     -217.605      -16.223      225.849      168.483      103.348    51007.843    28386.586    10680.837       16.097        4.504      481.274      104.767        0.047      337.145        8.919      860.044
10/21/2014  01:25:00     -585.615     -202.193      -21.693      205.156      180.356       96.235    42088.969    32528.268     9261.179       23.407        4.194      619.538       98.671        0.025      337.138        8.906      860.016
10/21/2014  01:26:00     -293.563     -228.998       -3.096      213.625      151.490       92.253    45635.765    22949.159     8510.653       10.785        3.855      372.316      103.631        0.077      337.141        8.912      860.042
10/21/2014  01:27:00     -344.720     -191.791       10.572      256.071      172.551      115.421    65572.526    29773.697    13321.990       13.218        5.433      394.481      136.205        0.119      337.139        8.912      860.065
10/21/2014  01:28:00     -400.898     -240.984       -8.964      190.198      167.244       87.801    36175.095    27970.489     7708.933       14.535        3.593      467.752      105.158        0.051      337.124        8.883      860.056
10/21/2014  01:29:00     -419.694     -212.880      -15.332      190.464      178.095      103.313    36276.611    31717.706    10673.576       15.017        3.933      470.596      103.426        0.048      337.093        8.830      860.060
10/21/2014  01:30:00     -391.964     -239.041      -16.981      227.985      205.837      106.518    51976.988    42368.941    11346.009       15.836        5.285      459.103      112.350        0.060      337.090        8.825      860.038
10/21/2014  01:31:00     -370.982     -141.506       -3.138      264.692      152.912       90.494    70061.897    23382.221     8189.195       12.963        5.082      397.054      122.940        0.096      337.087        8.821      860.074
10/21/2014  01:32:00     -363.706     -227.210       -5.970      230.826      166.888       95.659    53280.761    27851.570     9150.561       13.710        4.514      428.843      108.222        0.064      337.066        8.785      860.094
10/21/2014  01:33:00     -402.682     -248.038      -24.477      205.211      192.501      110.278    42111.534    37056.760    12161.208       15.779        4.566      472.944       99.483        0.044      337.083        8.814      860.101
10/21/2014  01:34:00     -474.848     -183.923      -18.508      166.096      145.330       83.794    27587.719    21120.953     7021.475       15.768        2.787      509.224       82.003        0.026      337.083        8.814      860.094
10/21/2014  01:35:00     -479.045     -165.312      -13.132      173.168      196.197       88.782    29987.274    38493.294     7882.319       16.666        3.818      506.767       90.882        0.032      337.053        8.764      860.130
10/21/2014  01:36:00     -227.329     -137.050        4.361      188.502      147.171       83.769    35533.060    21659.390     7017.311        6.733        3.210      265.445       95.707        0.130      337.052        8.763      860.132
10/21/2014  01:37:00     -322.895     -161.754      -11.070      216.270      141.837       81.011    46772.885    20117.714     6562.784       10.199        3.673      361.145       91.066        0.064      337.057        8.771      860.123
10/21/2014  01:38:00     -383.184     -153.591      -14.194      203.898      130.535       86.320    41574.588    17039.477     7451.132       11.833        3.303      412.820      105.834        0.066      337.043        8.746      860.125
10/21/2014  01:39:00     -229.969      -72.481      -11.684      151.348      109.687       59.372    22906.098    12031.328     3525.032        4.836        1.923      241.121       63.500        0.069      337.034        8.731      860.133
10/21/2014  01:40:00     -286.556      -83.152      -16.541      227.134      159.980      103.401    51589.962    25593.760    10691.721        8.857        4.394      298.377      122.370        0.168      337.029        8.724      860.156
10/21/2014  01:41:00     -329.308     -120.648       -8.590      253.940      162.254       95.441    64485.578    26326.287     9108.975       11.148        4.996      350.713      123.674        0.124      337.013        8.698      860.161
10/21/2014  01:42:00     -342.907     -301.824      -25.462      207.205      177.966      101.862    42933.755    31671.931    10375.831       14.714        4.249      456.819      100.757        0.049      337.005        8.683      860.152
10/21/2014  01:43:00     -227.344     -166.580        1.461      162.389      166.237       95.746    26370.269    27634.752     9167.382        7.129        3.159      281.841       98.323        0.122      337.016        8.702      860.171
10/21/2014  01:44:00     -240.632      -75.474       -4.951      136.909      114.806       68.341    18744.043    13180.512     4670.552        5.010        1.830      252.191       55.732        0.049      336.987        8.652      860.198
10/21/2014  01:45:00     -287.727     -169.869        1.907      151.814      146.586       77.269    23047.359    21487.518     5970.434        8.107        2.525      334.129       80.476        0.058      336.993        8.662      860.212
10/21/2014  01:46:00     -392.626     -185.469      -15.424      174.594      199.643       93.397    30483.017    39857.248     8722.929       13.391        3.953      434.228       83.743        0.037      336.994        8.665      860.215
10/21/2014  01:47:00     -292.529     -120.291       -3.967      196.618      119.582       73.157    38658.528    14299.790     5351.888        7.917        2.916      316.296       83.735        0.070      336.984        8.648      860.220
10/21/2014  01:48:00     -328.291       19.939       -6.130      214.886      118.556       85.014    46175.978    14055.644     7227.310        8.782        3.373      328.896      101.797        0.096      336.990        8.659      860.241
10/21/2014  01:49:00     -308.232     -230.712       -6.380      193.832      134.118       96.600    37570.746    17987.518     9331.634       10.657        3.244      385.013      101.882        0.070      337.011        8.694      860.267
10/21/2014  01:50:00     -400.639     -167.344      -12.421      190.780      183.560       90.764    36396.970    33694.450     8238.021       13.349        3.916      434.184      103.287        0.057      336.962        8.612      860.264
10/21/2014  01:51:00     -298.957     -146.102      -24.383      158.120      118.502       72.553    25002.047    14042.801     5263.942        7.780        2.215      332.748       74.897        0.051      336.980        8.642      860.280
10/21/2014  01:52:00     -342.690     -194.380       -4.823      167.152      154.350       91.626    27939.903    23824.072     8395.378       10.769        3.008      393.980       92.235        0.055      336.963        8.613      860.300
10/21/2014  01:53:00     -517.176     -240.404      -37.035      158.834      130.470       80.770    25228.217    17022.437     6523.727       18.770        2.439      570.320       77.315        0.018      336.997        8.670      860.310
10/21/2014  01:54:00     -350.634     -114.105      -11.197      200.051      137.696       66.807    40020.536    18960.266     4463.148        9.976        3.172      368.733       78.809        0.046      336.993        8.664      860.350
10/21/2014  01:55:00     -207.255     -136.698        2.959      204.806      139.240       84.985    41945.484    19387.826     7222.440        6.509        3.428      248.276      115.108        0.215      336.973        8.630      860.318
10/21/2014  01:56:00     -225.190     -162.599        2.435      120.472      126.108       72.046    14513.553    15903.193     5190.597        5.638        1.780      277.757       72.973        0.069      336.956        8.601      860.330
10/21/2014  01:57:00     -218.231      -93.076        4.483      144.171      115.497       54.805    20785.381    13339.521     3003.569        4.671        1.856      237.251       60.694        0.065      336.928        8.556      860.341
10/21/2014  01:58:00     -457.544     -131.517       -6.282      181.770      215.814       92.571    33040.363    46575.622     8569.362       15.742        4.409      476.071       91.212        0.037      336.977        8.637      860.299
10/21/2014  01:59:00     -509.488     -111.276      -44.055      164.251      136.035       88.789    26978.551    18505.438     7883.540       16.363        2.668      521.498       89.397        0.029      336.965        8.616      860.280
10/21/2014  02:00:00     -335.380      -81.064       -3.558      153.774      139.628       66.188    23646.571    19495.957     4380.819        8.329        2.376      345.038       63.601        0.034      336.949        8.591      860.247
10/21/2014  02:01:00     -223.559      -54.598        4.536      154.745      120.231       71.007    23945.994    14455.414     5042.060        4.820        2.172      230.129       83.201        0.131      336.949        8.592      860.261
10/21/2014  02:02:00     -457.595     -127.353      -16.292      173.060      210.440       93.026    29949.774    44285.155     8653.852       15.437        4.144      474.986       90.012        0.036      337.024        8.716      860.262
10/21/2014  02:03:00     -162.890      -30.870        5.941      160.048      130.531       72.350    25615.516    17038.363     5234.455        3.770        2.394      165.789       75.704        0.209      337.009        8.691      860.278
10/21/2014  02:04:00     -181.179     -123.403        7.593      164.140      138.989       67.083    26942.094    19317.899     4500.083        4.943        2.538      219.212       71.285        0.106      337.053        8.764      860.266
10/21/2014  02:05:00     -352.117      -65.520       -6.235      197.613      132.653       87.870    39050.702    17596.824     7721.075        9.633        3.218      358.161       97.095        0.073      337.090        8.825      860.297
10/21/2014  02:06:00     -404.443      -56.161      -19.202      237.469      135.142       90.897    56391.338    18263.298     8262.202       12.499        4.146      408.323      124.953        0.094      337.055        8.768      860.304
10/21/2014  02:07:00     -193.488     -111.733        5.636      136.749      116.443       59.587    18700.214    13559.063     3550.622        4.288        1.790      223.432       63.960        0.082      337.024        8.716      860.328
10/21/2014  02:08:00     -366.703      -95.320      -11.095      150.481      152.534       66.551    22644.467    23266.566     4429.047        9.700        2.517      378.889       67.693        0.032      337.021        8.710      860.358
10/21/2014  02:09:00     -290.058     -141.555       -4.963      146.894      113.016       60.917    21577.990    12772.651     3710.918        7.112        1.903      322.756       45.940        0.020      337.031        8.728      860.400
10/21/2014  02:10:00     -368.840     -199.943      -16.073      170.129       97.740       73.531    28943.815     9553.050     5406.771       11.008        2.195      419.548       74.118        0.031      337.092        8.829      860.427
10/21/2014  02:11:00     -308.394     -107.357      -14.399      149.771      122.279       63.013    22431.342    14952.133     3970.581        7.409        2.068      326.546       60.378        0.034      337.019        8.707      860.441
10/21/2014  02:12:00     -302.726     -104.313      -18.996      155.716      139.715       68.325    24247.626    19520.277     4668.342        7.565        2.422      320.194       61.154        0.036      337.012        8.693      860.460
10/21/2014  02:13:00     -187.386     -152.954       -1.257      131.431      142.709       69.335    17274.168    20365.992     4807.332        5.047        2.122      241.885       74.775        0.096      336.976        8.636      860.465
10/21/2014  02:14:00     -195.053     -114.138       -5.291      125.878       89.523       55.461    15845.226     8014.456     3075.944        3.901        1.347      225.993       56.365        0.062      336.967        8.618      860.482
10/21/2014  02:15:00     -217.014      -81.911       -0.585       83.798       73.009       40.590     7022.121     5330.257     1647.508        3.390        0.700      231.958       43.985        0.036      336.940        8.574      860.468
10/21/2014  02:16:00     -165.959      -97.199        2.506      118.946       82.665       64.372    14148.218     6833.455     4143.773        3.106        1.256      192.328       65.114        0.115      336.925        8.552      860.464
10/21/2014  02:17:00     -247.198     -127.798      -17.316      177.315      101.098       59.986    31440.473    10220.887     3598.266        6.149        2.263      278.279       68.434        0.060      336.915        8.534      860.457
10/21/2014  02:18:00     -257.021     -204.317       -6.968      134.988       96.930       71.010    18221.670     9395.385     5042.485        7.025        1.633      328.337       76.877        0.055      336.897        8.504      860.444
10/21/2014  02:19:00     -248.384     -192.996      -10.973      136.389       94.790       76.150    18602.034     8985.078     5798.772        6.622        1.669      314.551       72.547        0.053      336.922        8.544      860.414
10/21/2014  02:20:00     -305.884     -115.875      -10.795      161.416      114.781       70.445    26055.020    13174.575     4962.510        7.564        2.210      327.096       83.963        0.066      336.938        8.572      860.410
10/21/2014  02:21:00     -337.010     -103.792      -25.470      141.869       84.050       56.159    20126.831     7064.440     3153.848        7.767        1.517      352.631       64.777        0.034      336.940        8.574      860.436
10/21/2014  02:22:00     -237.177     -110.328       -5.082      124.289       77.294       64.096    15447.814     5974.320     4108.237        4.699        1.277      261.582       62.712        0.057      336.936        8.568      860.465
10/21/2014  02:23:00     -194.691      -19.293       -0.421      143.252       90.721       65.322    20521.069     8230.328     4266.958        3.564        1.651      195.645       78.506        0.161      336.880        8.477      860.484
10/21/2014  02:24:00     -266.569     -102.395        2.828      103.764      103.991       51.309    10766.955    10814.164     2632.584        5.288        1.211      285.559       46.232        0.026      336.908        8.520      860.516
10/21/2014  02:25:00     -260.237     -168.141       -3.243      177.349      133.253       57.725    31452.497    17756.467     3332.153        7.426        2.627      309.830       65.699        0.045      336.886        8.486      860.514
10/21/2014  02:26:00     -251.592     -198.102      -19.691       92.603       90.247       51.515     8575.258     8144.604     2653.760        6.115        0.969      320.223       43.480        0.018      336.895        8.498      860.474
10/21/2014  02:27:00     -229.845      -83.691       -3.754       95.255      100.561       54.018     9073.434    10112.447     2917.978        4.097        1.105      244.608       48.684        0.040      336.865        8.450      860.468
10/21/2014  02:28:00     -180.541     -115.731      -13.730      122.074      106.318       60.090    14902.175    11303.577     3610.778        3.799        1.491      214.450       62.764        0.086      336.849        8.425      860.487
10/21/2014  02:29:00     -285.511     -133.482       -8.283      129.687      101.014       61.825    16818.720    10203.902     3822.309        6.512        1.542      315.173       66.846        0.045      336.886        8.486      860.524
10/21/2014  02:30:00     -213.665     -125.870       -6.420       99.569      108.956       52.891     9914.035    11871.393     2797.504        4.306        1.229      247.984       45.189        0.033      336.891        8.495      860.536
10/21/2014  02:31:00     -157.938      -80.054       16.742      109.501       70.394       43.854    11990.505     4955.285     1923.185        2.525        0.943      177.068       52.104        0.087      336.877        8.471      860.519
10/21/2014  02:32:00     -124.130      -90.082        9.153       98.469       93.339       39.950     9696.182     8712.104     1595.976        2.180        1.000      153.373       40.389        0.069      336.879        8.476      860.521
10/21/2014  02:33:00     -173.400     -100.507       11.450      108.335       92.138       47.942    11736.495     8489.388     2298.423        3.141        1.126      200.423       49.808        0.062      336.885        8.484      860.549
10/21/2014  02:34:00     -202.468     -127.091       -1.139      141.719      118.555       50.474    20084.178    14055.188     2547.600        4.691        1.834      239.051       55.166        0.053      336.902        8.511      860.561
10/21/2014  02:35:00     -261.027     -226.602      -17.334      138.039      132.317       73.084    19054.896    17507.765     5341.250        8.084        2.095      345.664       78.260        0.051      336.904        8.512      860.598
10/21/2014  02:36:00     -162.289     -157.160      -10.374      110.939       89.360       44.458    12307.504     7985.244     1976.493        3.670        1.113      225.914       52.965        0.055      336.910        8.525      860.623
10/21/2014  02:37:00     -227.955     -150.143       -7.103      125.862      139.726       69.964    15841.349    19523.448     4895.021        5.740        2.013      272.958       74.806        0.075      336.871        8.461      860.614
10/21/2014  02:38:00     -195.847     -161.429       -4.525      106.153       84.330       55.991    11268.460     7111.534     3134.943        4.297        1.076      253.802       49.456        0.038      336.878        8.472      860.623
10/21/2014  02:39:00     -183.808     -130.938        2.092      109.827       93.339       58.997    12061.994     8712.168     3480.596        3.759        1.213      225.677       56.965        0.064      336.876        8.469      860.636
10/21/2014  02:40:00     -223.400      -31.605       -4.992       88.519       72.933       51.963     7835.615     5319.191     2700.167        3.339        0.793      225.624       47.130        0.044      336.868        8.454      860.656
10/21/2014  02:41:00     -447.348     -136.682      -17.712      133.859      133.439       68.924    17918.142    17805.886     4750.470       12.979        2.024      467.763       68.709        0.022      336.954        8.599      860.665
10/21/2014  02:42:00     -203.987     -131.251       -5.013       89.239      101.565       50.757     7963.590    10315.459     2576.231        3.986        1.043      242.565       44.492        0.034      336.918        8.538      860.724
10/21/2014  02:43:00     -157.908      -48.810        0.800      119.166       80.015       52.941    14200.442     6402.321     2802.791        2.536        1.170      165.280       62.185        0.142      336.899        8.507      860.757
10/21/2014  02:44:00     -206.612      -59.661       -2.233      106.711       93.279       52.165    11387.214     8701.003     2721.202        3.453        1.140      215.053       52.242        0.059      336.899        8.507      860.793
10/21/2014  02:45:00     -220.775      -35.465      -10.388      105.765      100.007       59.467    11186.326    10001.415     3536.310        3.741        1.236      223.606       63.588        0.081      336.905        8.516      860.835
10/21/2014  02:46:00     -127.715     -106.312       -0.782       69.294       86.714       38.192     4801.650     7519.326     1458.604        2.069        0.689      166.173       25.857        0.024      336.957        8.605      860.854
10/21/2014  02:47:00       26.951      -69.125        7.673       61.869       63.977       38.789     3827.794     4093.000     1504.603        0.749        0.471       74.193       34.445        0.216      336.991        8.663      860.852
10/21/2014  02:48:00      -89.861      -68.742        0.189       82.520       82.447       36.826     6809.570     6797.485     1356.159        1.388        0.748      113.139       42.981        0.144      336.939        8.574      860.879
10/21/2014  02:49:00      -43.881     -107.390        3.329       54.585       94.993       23.758     2979.523     9023.643      564.433        1.302        0.628      116.009       15.863        0.019      336.957        8.605      860.878
10/21/2014  02:50:00      -68.566      -21.618        5.919       51.261       38.243       24.618     2627.709     1462.511      606.043        0.495        0.235       71.894       21.319        0.088      336.925        8.553      860.871
10/21/2014  02:51:00     -107.218     -183.183        4.790       86.639       84.824       30.701     7506.328     7195.097      942.524        3.036        0.782      212.254       33.406        0.025      336.980        8.641      860.859
10/21/2014  02:52:00     -121.148     -159.566      -15.573       70.302       62.944       45.815     4942.379     3961.981     2099.041        2.569        0.550      200.345       41.288        0.042      336.993        8.664      860.852
10/21/2014  02:53:00      -51.424       -6.845       17.072      120.019       57.154       43.360    14404.471     3266.590     1880.069        1.126        0.978       51.877       38.160        0.541      336.954        8.601      860.822
10/21/2014  02:54:00       45.956      -10.064       55.988       69.450       64.871       49.873     4823.306     4208.186     2487.366        0.843        0.576       47.045       39.370        0.700      336.836        8.404      860.800
10/21/2014  02:55:00       41.951      -18.475       49.049       58.557       74.339       49.986     3428.884     5526.308     2498.637        0.798        0.573       45.839       46.518        1.030      336.829        8.394      860.803
10/21/2014  02:56:00      102.431       73.548       77.796       49.486       64.547       41.461     2448.872     4166.323     1719.020        1.514        0.417      126.101       27.402        0.047      336.789        8.326      860.794
10/21/2014  02:57:00       81.177       62.744       88.578       74.705       53.615       37.649     5580.814     2874.605     1417.451        1.412        0.494      102.599       36.957        0.130      336.736        8.238      860.781
10/21/2014  02:58:00       26.784       53.252       62.403       42.642       42.031       28.609     1818.304     1766.592      818.493        0.592        0.220       59.609       25.724        0.186      336.665        8.120      860.750
10/21/2014  02:59:00       73.444       54.010       60.350       58.695       43.858       35.107     3445.119     1923.486     1232.520        0.928        0.330       91.165       26.961        0.087      336.708        8.193      860.727
10/21/2014  03:00:00       21.094       26.892       61.099       45.416       44.036       32.103     2062.619     1939.135     1030.613        0.497        0.252       34.178       31.679        0.859      336.741        8.248      860.731
10/21/2014  03:01:00       25.531       42.357       51.695       30.509       36.922       30.330      930.774     1363.243      919.890        0.417        0.161       49.456       28.140        0.324      336.769        8.294      860.742
10/21/2014  03:02:00      105.822       68.364       46.716       61.802       28.592       36.281     3819.443      817.513     1316.331        1.200        0.298      125.983       33.747        0.072      336.746        8.257      860.771
10/21/2014  03:03:00      122.809       51.953       26.711       59.137       29.151       34.346     3497.182      849.780     1179.646        1.201        0.276      133.346       32.768        0.060      336.804        8.352      860.828
10/21/2014  03:04:00       77.817       37.679       19.428       42.850       35.529       25.400     1836.126     1262.290      645.179        0.580        0.187       86.459       14.232        0.027      336.771        8.298      860.868
10/21/2014  03:05:00       58.071       40.896        9.029       29.504       35.388       19.802      870.489     1252.279      392.124        0.382        0.126       71.026       18.295        0.066      336.790        8.327      860.861
10/21/2014  03:06:00       26.869       96.118      -10.712       25.856       33.311       20.044      668.554     1109.625      401.779        0.613        0.109       99.803       14.520        0.021      336.851        8.430      860.841
10/21/2014  03:07:00       37.082       67.239      -10.811       16.603       28.400       15.666      275.659      806.552      245.412        0.367        0.066       76.787        8.817        0.013      336.896        8.505      860.826
10/21/2014  03:08:00      -29.686       45.491      -33.201       45.208       31.587       27.004     2043.767      997.745      729.209        0.391        0.189       54.320       31.174        0.329      337.001        8.679      860.829
10/21/2014  03:09:00      -51.864       35.772      -16.945       37.854       24.134       15.658     1432.901      582.437      245.159        0.326        0.113       63.004       14.710        0.055      337.018        8.708      860.826
10/21/2014  03:10:00      -67.911      -16.929       -0.595       14.802       18.301       13.525      219.093      334.918      182.939        0.282        0.037       69.989       10.336        0.022      337.033        8.733      860.802
10/21/2014  03:11:00      -63.571      -27.338      -28.007       22.371       27.467       20.721      500.451      754.460      429.367        0.363        0.084       69.200        4.068        0.003      337.061        8.779      860.777
10/21/2014  03:12:00      -62.057      -47.818       -4.442       35.897       24.470       21.764     1288.594      598.773      473.683        0.426        0.118       78.343       12.346        0.025      337.043        8.749      860.761
10/21/2014  03:13:00      -66.041      -37.297        2.915       35.968       23.350       20.154     1293.706      545.235      406.178        0.400        0.112       75.845       21.857        0.083      337.019        8.709      860.747
10/21/2014  03:14:00      -83.484      -25.796       -7.438       59.501       25.064       21.910     3540.313      628.224      480.055        0.617        0.232       87.378       25.399        0.084      336.982        8.648      860.738
10/21/2014  03:15:00      -76.191       18.380      -11.004       51.232       28.536       22.812     2624.767      814.303      520.373        0.511        0.198       78.377       18.972        0.059      336.770        8.296      860.726
10/21/2014  03:16:00      -96.472       24.773      -10.463       36.670       22.836       17.705     1344.718      521.492      313.473        0.610        0.109       99.602       17.095        0.029      336.921        8.547      860.704
10/21/2014  03:17:00     -106.948       23.057       -6.610       39.838       17.369       13.832     1587.052      301.694      191.320        0.705        0.104      109.405       17.335        0.025      337.008        8.691      860.696
10/21/2014  03:18:00     -223.495      -96.575      -10.008       65.637       53.691       24.431     4308.251     2882.763      596.888        3.358        0.389      243.468        5.889        0.001      336.907        8.520      860.707
10/21/2014  03:19:00      -90.764      -28.274      -17.015      121.575       83.725       41.195    14780.591     7009.856     1697.024        1.640        1.174       95.065       46.086        0.235      336.978        8.640      860.715
10/21/2014  03:20:00     -221.546      -22.258      -12.282       74.158       65.299       27.687     5499.426     4263.907      766.552        3.013        0.526      222.661       19.483        0.008      337.007        8.687      860.680
10/21/2014  03:21:00     -249.859      -26.245       -6.219       95.808       81.763       45.831     9179.102     6685.152     2100.511        4.056        0.898      251.234       50.243        0.040      336.975        8.634      860.684
10/21/2014  03:22:00     -268.580      -69.191      -25.876       75.068       60.645       32.523     5635.154     3677.800     1057.770        4.398        0.519      277.349       38.080        0.019      337.084        8.815      860.683
10/21/2014  03:23:00     -167.913      -42.014       -2.621       60.051       99.807       34.017     3606.183     9961.494     1157.151        2.234        0.736      173.089       32.266        0.035      337.003        8.682      860.701
10/21/2014  03:24:00     -237.032       23.903      -17.000      100.651       64.393       31.969    10130.545     4146.515     1022.022        3.617        0.765      238.235       36.475        0.023      337.075        8.802      860.705
10/21/2014  03:25:00     -243.771      -40.610      -14.213       68.628       50.139       37.605     4709.844     2513.964     1414.168        3.496        0.432      247.130       42.142        0.029      337.079        8.805      860.729
10/21/2014  03:26:00     -127.849       56.844       -4.904       94.537       88.494       51.239     8937.214     7831.243     2625.465        1.949        0.970      139.916       55.312        0.156      336.953        8.599      860.762
10/21/2014  03:27:00     -247.713      -45.342       -1.450       97.015       85.458       49.456     9411.849     7303.036     2445.878        4.129        0.958      251.829       48.230        0.037      336.985        8.649      860.799
10/21/2014  03:28:00     -147.211      -40.062        5.675       79.678       68.290       38.128     6348.622     4663.481     1453.718        1.789        0.623      152.565       41.929        0.076      336.995        8.668      860.839
10/21/2014  03:29:00     -212.590      -74.619       -7.507       58.533       48.372       32.298     3426.096     2339.807     1043.148        2.881        0.340      225.305       31.258        0.019      337.015        8.701      860.878
10/21/2014  03:30:00      -99.373      -70.505        0.391       74.169       46.259       31.065     5501.016     2139.855      965.050        1.172        0.430      121.843       34.502        0.080      336.965        8.621      860.916
10/21/2014  03:31:00      -24.592      -66.936       -6.312       28.603       34.455       16.550      818.149     1187.142      273.895        0.370        0.114       71.310       17.662        0.061      337.034        8.735      860.921
10/21/2014  03:32:00      -91.422      -94.804       -8.327       69.815       37.132       29.678     4874.184     1378.813      880.809        1.227        0.357      131.703       24.455        0.034      337.121        8.880      860.945
10/21/2014  03:33:00     -228.552     -119.225       -4.384      113.814      113.214       57.999    12953.661    12817.325     3363.866        4.780        1.457      257.780       61.311        0.057      337.061        8.777      860.960
10/21/2014  03:34:00     -135.885     -116.173        2.134       96.527       65.885       45.107     9317.542     4340.849     2034.628        2.383        0.785      178.776       34.962        0.038      337.052        8.762      860.978
10/21/2014  03:35:00      -61.941      -57.346       18.560       45.514       51.132       34.785     2071.505     2614.509     1209.994        0.668        0.295       84.411       23.180        0.075      337.047        8.755      860.995
10/21/2014  03:36:00     -111.233     -152.899        0.093       93.709      104.246       44.833     8781.285    10867.191     2010.040        2.870        1.083      189.079       48.096        0.065      337.112        8.862      861.016
10/21/2014  03:37:00     -104.621       19.396       -2.511       55.342       50.929       34.660     3062.779     2593.785     1201.290        0.909        0.343      106.403       32.907        0.096      337.074        8.801      861.055
10/21/2014  03:38:00     -120.744      -46.824      -11.487       89.551      109.510       47.610     8019.347    11992.475     2266.717        1.959        1.114      129.506       42.705        0.109      337.083        8.815      861.075
10/21/2014  03:39:00     -143.528      -28.678      -19.955       44.893       54.488       27.490     2015.379     2968.962      755.705        1.378        0.287      146.366       18.636        0.016      337.093        8.833      861.088
10/21/2014  03:40:00      -70.941      -25.604       -9.989       42.739       32.528       22.155     1826.595     1058.042      490.861        0.458        0.169       75.420       22.336        0.088      337.021        8.713      861.117
10/21/2014  03:41:00      -52.789      -85.562       -9.697       50.104       48.650       27.203     2510.395     2366.839      740.023        0.791        0.281      100.536       13.035        0.017      337.160        8.944      861.140
10/21/2014  03:42:00      -98.774     -238.806      -10.251       81.986      121.867       33.310     6721.766    14851.668     1109.577        4.478        1.134      258.427       17.179        0.004      337.143        8.915      861.161
10/21/2014  03:43:00       -7.003     -172.592        5.437       35.544      131.463       37.465     1263.370    17282.500     1403.611        2.490        0.997      172.734       23.601        0.019      337.147        8.923      861.169
10/21/2014  03:44:00      -57.762      -39.785       -5.433       50.652      118.026       37.599     2565.622    13930.100     1413.682        1.143        0.895       70.138       24.905        0.126      337.088        8.825      861.134
10/21/2014  03:45:00     -104.016        9.867       -8.180       50.050       72.140       26.602     2505.029     5204.108      707.673        0.970        0.421      104.483       10.773        0.011      337.113        8.867      861.163
10/21/2014  03:46:00     -223.499      -92.749      -19.668      117.760       76.436       34.977    13867.380     5842.412     1223.371        3.993        1.047      241.979       35.174        0.021      337.128        8.888      861.172
10/21/2014  03:47:00     -147.868       77.490       -6.743       67.517       54.587       38.692     4558.591     2979.757     1497.058        1.847        0.452      166.943       32.667        0.038      337.087        8.823      861.129
10/21/2014  03:48:00     -171.962       74.802      -15.000       80.531       53.801       40.105     6485.266     2894.596     1608.430        2.319        0.549      187.526       41.393        0.049      337.033        8.731      861.096
10/21/2014  03:49:00     -213.578       -7.306      -16.143       90.906       76.705       35.328     8263.852     5883.588     1248.098        3.066        0.770      213.702       33.604        0.025      337.069        8.790      861.078
10/21/2014  03:50:00     -249.971     -152.955        3.689      114.560       79.283       51.887    13123.966     6285.741     2692.276        5.399        1.105      293.054       54.589        0.035      337.082        8.811      861.083
10/21/2014  03:51:00     -278.458     -147.155       -9.453      108.616       90.068       51.589    11797.361     8112.220     2661.414        6.092        1.129      314.950       51.005        0.026      337.094        8.833      861.079
10/21/2014  03:52:00     -265.817      -87.253      -12.005      101.811       81.323       48.169    10365.451     6613.510     2320.298        4.885        0.965      279.771       49.321        0.031      337.139        8.908      861.058
10/21/2014  03:53:00     -235.444       26.624      -21.341       74.066       46.580       31.502     5485.704     2169.706      992.384        3.262        0.432      236.944       29.748        0.016      337.123        8.881      861.039
10/21/2014  03:54:00     -200.674      -16.319      -29.173       57.719       70.675       36.613     3331.516     4994.996     1340.532        2.553        0.483      201.336       13.981        0.005      337.099        8.842      861.051
10/21/2014  03:55:00     -297.091     -109.616       -9.469      105.878      107.161       57.249    11210.253    11483.433     3277.421        6.317        1.299      316.668       57.372        0.033      337.026        8.718      861.071
10/21/2014  03:56:00     -360.983     -137.039      -21.856       96.577       69.543       47.812     9327.192     4836.246     2286.029        8.300        0.822      386.120       34.786        0.008      337.080        8.809      861.088
10/21/2014  03:57:00     -114.177     -101.860       12.205      108.558      108.061       60.052    11784.941    11677.125     3606.259        2.531        1.353      153.009       61.643        0.162      337.017        8.703      861.100
10/21/2014  03:58:00      -62.973      -22.117       19.842       77.929       79.571       48.095     6072.938     6331.476     2313.096        0.978        0.736       66.744       40.943        0.376      337.020        8.712      861.082
10/21/2014  03:59:00     -118.879        8.133       -8.155      108.136       46.169       31.025    11693.482     2131.613      962.572        1.452        0.739      119.157       47.398        0.158      337.012        8.696      861.055
10/21/2014  04:00:00     -315.341      -20.261      -29.732      131.861       78.976       46.558    17387.301     6237.286     2167.685        6.326        1.290      315.991       60.872        0.037      337.061        8.776      861.031
10/21/2014  04:01:00     -425.485       16.871      -32.185      149.952      133.329       73.356    22485.559    17776.673     5381.064       11.399        2.282      425.819       79.630        0.035      337.062        8.779      860.982
10/21/2014  04:02:00     -388.625      -16.290       -9.385      184.635      134.305       79.017    34089.918    18037.765     6243.674       10.487        2.919      388.966       97.533        0.063      337.048        8.755      860.966
10/21/2014  04:03:00     -368.139      -39.739       -7.915      166.489      116.488       73.428    27718.610    13569.443     5391.598        9.192        2.334      370.278       74.523        0.041      337.103        8.848      860.969
10/21/2014  04:04:00     -219.029     -152.845        4.752      181.093      105.807       83.120    32794.766    11195.208     6908.891        6.112        2.545      267.087       95.662        0.128      337.122        8.879      860.976
10/21/2014  04:05:00     -364.742      -64.885      -24.845      111.472      101.136       52.943    12425.911    10228.585     2802.917        8.166        1.273      370.468       49.356        0.018      337.097        8.838      860.958
10/21/2014  04:06:00     -353.020      -71.840      -15.765      122.795      111.914       65.945    15078.652    12524.738     4348.799        8.099        1.598      360.255       62.260        0.030      337.064        8.781      860.909
10/21/2014  04:07:00     -413.441        8.396      -33.976      172.377      107.144       77.908    29713.855    11479.898     6069.666       10.970        2.363      413.526       84.465        0.042      337.164        8.949      860.865
10/21/2014  04:08:00     -416.114      -97.206      -22.337      169.566      167.285       78.813    28752.779    27984.349     6211.561       12.301        3.147      427.317       83.882        0.039      337.246        9.088      860.865
10/21/2014  04:09:00     -395.835      -69.102      -24.047      121.204      116.079       59.556    14690.318    13474.435     3546.871        9.687        1.586      401.822       63.647        0.025      337.221        9.046      860.912
10/21/2014  04:10:00     -333.995       -9.102      -28.036      139.231      136.730       75.180    19385.371    18695.162     5652.078        7.807        2.187      334.119       72.295        0.047      337.234        9.069      860.927
10/21/2014  04:11:00     -228.645      159.311      -37.095       69.588       95.278       49.139     4842.431     9077.923     2414.615        4.768        0.817      278.673       52.970        0.036      337.236        9.071      860.939
10/21/2014  04:12:00     -224.566      -59.550      -14.516       98.703       77.598       50.113     9742.342     6021.519     2511.269        3.623        0.914      232.328       38.533        0.028      337.218        9.040      860.972
10/21/2014  04:13:00     -255.443      -72.504       -9.705      104.473      100.733       58.183    10914.706    10147.169     3385.295        4.752        1.222      265.533       58.321        0.048      337.150        8.927      860.990
10/21/2014  04:14:00     -517.180     -144.282      -27.580      203.983      160.117       78.114    41609.064    25637.318     6101.840       18.119        3.667      536.928       81.887        0.023      337.156        8.937      860.984
10/21/2014  04:15:00     -465.682     -164.778       -5.261      216.475      173.410       84.648    46861.611    30070.860     7165.353       16.405        4.205      493.975       96.539        0.038      337.176        8.971      861.008
10/21/2014  04:16:00     -315.736      -11.248      -10.326      151.867      129.690       67.700    23063.507    16819.615     4583.239        7.219        2.223      315.936       68.433        0.047      337.159        8.943      861.062
10/21/2014  04:17:00     -295.107     -138.587      -14.725      143.974       99.582       68.944    20728.490     9916.600     4753.206        7.095        1.770      326.028       65.707        0.041      337.250        9.096      861.052
10/21/2014  04:18:00     -185.324      -56.454      -23.535      107.055      120.435       40.632    11460.700    14504.603     1650.931        3.285        1.381      193.732       31.383        0.026      337.217        9.039      861.013
10/21/2014  04:19:00     -168.870       96.619      -10.459       82.978      113.968       51.405     6885.383    12988.702     2642.496        3.024        1.126      194.557       49.628        0.065      337.142        8.915      860.989
10/21/2014  04:20:00     -205.022      301.173      -52.731      103.939      109.337       55.665    10803.338    11954.661     3098.594        8.068        1.293      364.333       59.057        0.026      337.142        8.913      860.970
10/21/2014  04:21:00     -311.486      186.132      -46.617      139.548      199.169       71.921    19473.634    39668.314     5172.671        9.907        3.216      362.862       73.933        0.042      337.145        8.919      860.971
10/21/2014  04:22:00     -216.814      189.358      -47.753       73.638      134.356       51.567     5422.595    18051.656     2659.143        5.563        1.307      287.862       41.873        0.021      337.135        8.900      860.983
10/21/2014  04:23:00     -152.229       67.644      -32.217       69.661       87.662       51.668     4852.661     7684.638     2669.576        2.199        0.760      166.582       36.432        0.048      337.095        8.835      860.986
10/21/2014  04:24:00     -334.650       44.947      -36.934      171.645       93.478       53.703    29461.998     8738.112     2883.961        7.822        2.054      337.655       69.787        0.043      337.148        8.923      861.004
10/21/2014  04:25:00     -293.350      -43.089      -36.674      119.227       85.607       54.146    14215.105     7328.493     2931.799        5.686        1.224      296.498       60.374        0.041      337.161        8.946      860.990
10/21/2014  04:26:00     -302.585     -128.522      -24.296       99.797       92.962       50.624     9959.450     8641.901     2562.820        6.491        1.058      328.749       38.663        0.014      337.134        8.900      861.000
10/21/2014  04:27:00     -313.699      -77.162      -18.604      116.936      115.865       48.516    13674.129    13424.640     2353.837        6.708        1.473      323.050       35.850        0.012      337.134        8.901      861.010
10/21/2014  04:28:00     -137.442      -17.943       -9.863       76.838       63.596       45.031     5904.001     4044.446     2027.832        1.564        0.599      138.609       34.202        0.061      337.035        8.735      861.020
10/21/2014  04:29:00     -185.828      -29.273      -35.191      104.315       97.492       61.758    10881.621     9504.627     3813.998        3.041        1.210      188.119       34.852        0.034      337.073        8.797      860.999
10/21/2014  04:30:00     -153.774      -15.052       -2.110      139.305       89.656       51.316    19405.752     8038.144     2633.383        2.697        1.504      154.509       56.933        0.136      337.039        8.741      860.984
10/21/2014  04:31:00     -194.651      -72.972      -30.502       98.220       62.873       38.042     9647.185     3953.053     1447.217        2.959        0.752      207.880       27.094        0.017      337.063        8.779      860.991
10/21/2014  04:32:00     -164.677      -98.858      -16.790      113.788       64.648       39.637    12947.686     4179.344     1571.112        2.793        0.935      192.071       34.459        0.032      337.040        8.742      860.982
10/21/2014  04:33:00     -264.126      -76.282       -4.611       82.949       93.173       51.736     6880.564     8681.290     2676.603        4.692        0.912      274.920       43.274        0.025      336.970        8.624      860.977
10/21/2014  04:34:00     -152.298       -7.443      -16.560      110.433       71.391       49.799    12195.555     5096.734     2479.925        2.164        0.989      152.480       51.187        0.113      336.992        8.662      860.959
10/21/2014  04:35:00     -260.344      -28.088      -20.352      108.846      102.191       42.803    11847.409    10442.929     1832.075        4.655        1.206      261.855       41.759        0.025      336.994        8.666      860.955
10/21/2014  04:36:00     -277.507      -19.450       -7.306      153.456       95.119       60.909    23548.826     9047.560     3709.951        5.687        1.815      278.188       69.656        0.063      336.948        8.588      860.930
10/21/2014  04:37:00     -179.926        3.239      -30.994       90.471       84.944       60.476     8184.977     7215.437     3657.290        2.620        0.953      179.955       50.702        0.079      336.995        8.668      860.901
10/21/2014  04:38:00     -153.364      -65.140       -2.864       89.764       82.224       50.056     8057.549     6760.842     2505.579        2.255        0.866      166.625       46.074        0.076      336.924        8.550      860.880
10/21/2014  04:39:00     -176.004      -11.806      -20.686       75.875       77.669       54.496     5756.968     6032.426     2969.790        2.315        0.738      176.400       26.234        0.022      337.018        8.707      860.846
10/21/2014  04:40:00     -150.234       -1.105      -10.860       89.394       77.428       52.634     7991.325     5995.106     2770.378        1.972        0.838      150.238       38.996        0.067      337.017        8.706      860.841
10/21/2014  04:41:00     -203.562       34.182      -36.091      117.277      101.621       59.420    13753.950    10326.845     3530.713        3.576        1.381      206.413       60.725        0.087      337.024        8.715      860.847
10/21/2014  04:42:00     -263.381       52.745      -28.144      105.476      111.061       59.728    11125.249    12334.490     3567.386        4.998        1.351      268.611       37.555        0.020      337.060        8.773      860.848
10/21/2014  04:43:00     -129.372       82.017      -16.786       74.923       77.690       53.705     5613.479     6035.793     2884.201        1.914        0.727      153.180       42.437        0.077      336.992        8.663      860.845
10/21/2014  04:44:00     -176.314      173.013      -30.718       71.235      128.530       48.020     5074.399    16519.937     2305.918        4.293        1.195      247.022       52.407        0.045      337.024        8.716      860.847
10/21/2014  04:45:00     -221.220       66.346      -33.316      102.003      127.743       65.947    10404.614    16318.330     4349.003        4.276        1.554      230.954       41.936        0.033      337.020        8.708      860.843
10/21/2014  04:46:00     -202.003       56.275      -20.933      108.859      137.615       68.455    11850.215    18937.771     4686.138        3.994        1.774      209.695       62.083        0.088      336.955        8.602      860.822
10/21/2014  04:47:00     -231.716      -65.907      -22.710       96.786      116.209       53.817     9367.613    13504.499     2896.235        4.216        1.288      240.907       36.436        0.023      336.883        8.479      860.853
10/21/2014  04:48:00     -329.973      -75.722      -19.843      117.493       93.381       61.152    13804.555     8719.922     3739.577        7.063        1.313      338.550       46.029        0.018      336.830        8.391      860.886
10/21/2014  04:49:00     -139.727      -59.279       -5.373      112.637       70.462       47.819    12687.000     4964.951     2286.634        2.150        0.997      151.781       51.890        0.117      336.789        8.325      860.888
10/21/2014  04:50:00     -143.836      -67.915        4.675      101.652       85.573       59.314    10333.141     7322.671     3518.113        2.324        1.059      159.063       67.692        0.181      336.830        8.391      860.913
10/21/2014  04:51:00     -252.750       80.517      -35.232       98.669      115.791       51.051     9735.506    13407.482     2606.170        4.867        1.287      265.265       48.844        0.034      336.994        8.666      860.936
10/21/2014  04:52:00     -154.759       -8.027       -5.084      154.068       88.937       68.825    23737.019     7909.734     4736.817        3.021        1.819      154.967       73.541        0.225      336.930        8.559      860.924
10/21/2014  04:53:00     -127.829      -62.293       -1.716      158.567      104.087       76.186    25143.383    10834.020     5804.315        3.100        2.089      142.200       83.343        0.344      336.947        8.588      860.933
10/21/2014  04:54:00     -187.856      -64.930      -20.151      106.439       94.482       74.327    11329.307     8926.853     5524.479        3.284        1.289      198.760       54.413        0.075      336.963        8.614      860.935
10/21/2014  04:55:00     -155.981        9.846       -8.184       91.999      120.371       58.653     8463.805    14489.060     3440.190        2.544        1.320      156.292       49.208        0.099      336.928        8.556      860.970
10/21/2014  04:56:00     -174.122       -8.525      -23.945       95.433       84.002       44.328     9107.458     7056.411     1964.952        2.454        0.906      174.330       46.480        0.071      336.931        8.561      860.974
10/21/2014  04:57:00     -235.118      -24.267       -6.158      246.283       69.696       68.183    60655.197     4857.564     4648.947        6.302        3.508      236.367      107.037        0.205      336.939        8.577      860.942
10/21/2014  04:58:00     -310.235      -82.962      -12.874      149.986      134.622       69.499    22495.679    18123.098     4830.121        7.436        2.272      321.136       81.257        0.064      336.982        8.645      860.924
10/21/2014  04:59:00     -251.016     -117.650      -20.313       90.501       96.731       59.777     8190.502     9356.894     3573.248        4.919        1.056      277.219       43.979        0.025      336.883        8.479      860.972
10/21/2014  05:00:00     -260.008      -81.370      -10.955      101.443       97.248       52.224    10290.706     9457.171     2727.335        4.841        1.124      272.443       51.404        0.036      336.813        8.364      861.002
10/21/2014  05:01:00     -188.571      -91.520       -5.637      102.593       79.026       59.567    10525.333     6245.115     3548.187        3.214        1.016      209.607       53.285        0.065      336.750        8.260      860.991
10/21/2014  05:02:00     -304.334      -46.260      -22.327      103.178       95.285       51.366    10645.622     9079.316     2638.513        5.881        1.118      307.829       50.640        0.027      336.742        8.244      861.011
10/21/2014  05:03:00     -250.246      -62.544      -29.842       90.346       92.065       44.889     8162.350     8476.043     2015.012        4.304        0.933      257.944       41.299        0.026      336.735        8.234      861.031
10/21/2014  05:04:00     -150.231      -13.253      -12.240      122.745       83.186       38.520    15066.244     6919.955     1483.826        2.318        1.174      150.815       51.995        0.119      336.693        8.168      861.042
10/21/2014  05:05:00      -54.799      -42.140        1.579       87.446       47.050       37.861     7646.831     2213.696     1433.477        0.804        0.565       69.128       40.358        0.341      336.636        8.072      861.062
10/21/2014  05:06:00      -21.572      -15.128       -0.865       96.564       74.102       57.445     9324.632     5491.180     3299.928        0.940        0.906       26.348       53.202        4.077      336.706        8.188      861.075
10/21/2014  05:07:00      -14.466      -31.097        5.516       54.297       27.212       24.448     2948.188      740.518      597.721        0.275        0.214       34.297       26.437        0.594      336.677        8.141      861.062
10/21/2014  05:08:00      -41.995      -16.149       -5.999       48.188       27.587       26.346     2322.124      761.028      694.104        0.292        0.189       44.993       21.531        0.229      336.699        8.179      861.077
10/21/2014  05:09:00       48.359      -10.399       14.584       43.957       30.749       34.864     1932.225      945.530     1215.490        0.338        0.205       49.465       13.344        0.073      336.660        8.113      861.080
10/21/2014  05:10:00      -29.876      -89.361       -5.491       60.943       50.649       29.749     3714.020     2565.340      885.003        0.804        0.358       94.223       20.274        0.046      336.770        8.296      861.104
10/21/2014  05:11:00       19.008      -11.653       31.024       29.636       42.158       28.359      878.272     1777.295      804.222        0.246        0.173       22.296       28.155        1.595      336.727        8.223      861.095
10/21/2014  05:12:00       16.108      -26.772       30.513       30.760       52.378       31.189      946.159     2743.409      972.726        0.328        0.233       31.244       22.766        0.531      336.558        7.941      861.079
10/21/2014  05:13:00       19.079       27.546       58.352       29.480       44.453       27.666      869.069     1976.030      765.431        0.407        0.181       33.508       22.152        0.437      336.516        7.871      861.075
10/21/2014  05:14:00       19.339       48.717       90.965       47.937       70.918       50.210     2297.934     5029.301     2521.048        1.043        0.492       52.415       53.688        1.049      336.537        7.905      861.075
10/21/2014  05:15:00       63.001      -80.272        7.886       63.979       82.570       35.454     4093.336     6817.726     1256.956        1.132        0.608      102.042       48.580        0.227      336.608        8.023      861.083
10/21/2014  05:16:00       97.066      -76.387       -2.810       58.505       55.154       48.961     3422.811     3041.989     2397.154        1.206        0.443      123.518       44.813        0.132      336.620        8.045      861.080
10/21/2014  05:17:00       19.451       51.452       76.219       36.203       42.400       25.550     1310.663     1797.751      652.821        0.630        0.188       55.005       21.491        0.153      336.511        7.863      861.110
10/21/2014  05:18:00       45.536       -0.087       49.988       41.071       51.424       39.325     1686.789     2644.418     1546.482        0.522        0.294       45.537       34.113        0.561      336.594        8.003      861.135
10/21/2014  05:19:00       14.165       -5.138       23.325       30.428       42.203       31.607      925.882     1781.054      999.025        0.224        0.185       15.068       22.877        2.305      336.666        8.121      861.179
10/21/2014  05:20:00       76.102      -80.325       -3.253       24.997       29.720       21.773      624.871      883.305      474.068        0.712        0.099      110.651       10.851        0.010      336.871        8.463      861.212
10/21/2014  05:21:00       -2.637      -28.413        1.075       51.032       22.682       18.329     2604.310      514.465      335.956        0.213        0.173       28.535       19.789        0.481      336.837        8.407      861.243
10/21/2014  05:22:00      -39.365      -15.522       10.659       36.112       30.570       17.952     1304.080      934.511      322.289        0.223        0.128       42.315       19.953        0.222      336.650        8.095      861.258
10/21/2014  05:23:00       -6.343      -25.245        4.845       37.274       40.162       17.122     1389.372     1612.985      293.156        0.200        0.165       26.029       22.002        0.715      336.749        8.261      861.272
10/21/2014  05:24:00       16.681       23.329       24.622       42.237       37.267       41.152     1783.939     1388.837     1693.492        0.315        0.243       28.679       34.296        1.430      336.580        7.978      861.265
10/21/2014  05:25:00       -1.139      -24.174       19.121       46.733       49.145       42.927     2184.008     2415.244     1842.702        0.370        0.322       24.200       38.131        2.483      336.529        7.892      861.258
10/21/2014  05:26:00     -117.556      -65.118       -5.791       88.681       57.436       31.971     7864.378     3298.936     1022.153        1.514        0.609      134.387       16.788        0.016      336.518        7.874      861.306
10/21/2014  05:27:00     -144.549      -70.840       -1.450       71.299       60.178       34.922     5083.511     3621.361     1219.546        1.792        0.496      160.975       35.562        0.049      336.270        7.457      861.350
10/21/2014  05:28:00     -146.377      -31.798        4.361       72.120       60.264       36.965     5201.333     3631.727     1366.440        1.633        0.510      149.791       37.099        0.061      336.220        7.372      861.384
10/21/2014  05:29:00     -164.389        8.051       -4.225       43.901       51.343       24.593     1927.333     2636.116      604.816        1.614        0.258      164.586       19.978        0.015      336.317        7.537      861.401
10/21/2014  05:30:00     -102.091       -2.032       -6.798       41.786       37.297       15.109     1746.071     1391.065      228.294        0.692        0.168      102.111       10.170        0.010      336.306        7.520      861.389
10/21/2014  05:31:00        4.658      -59.820      -10.015       17.964       15.983       12.507      322.720      255.458      156.425        0.222        0.037       60.001       11.022        0.034      336.430        7.725      861.397
10/21/2014  05:32:00      -29.150      -47.768       -4.256       20.899       22.502       12.521      436.749      506.351      156.772        0.212        0.055       55.960       10.950        0.038      336.467        7.789      861.400
10/21/2014  05:33:00      -83.326       13.643       -7.411       31.731       33.104       10.522     1006.847     1095.897      110.723        0.470        0.111       84.435        7.196        0.007      336.342        7.580      861.424
10/21/2014  05:34:00     -131.596       11.671      -14.293       32.623       28.188       15.574     1064.243      794.580      242.543        0.988        0.105      132.113        9.404        0.005      336.225        7.385      861.453
10/21/2014  05:35:00     -139.849      -24.309       -7.160       49.990       39.024       26.697     2499.041     1522.890      712.713        1.247        0.237      141.946       27.809        0.038      336.150        7.258      861.451
10/21/2014  05:36:00     -142.132      -15.768       -7.698       51.836       37.795       27.749     2686.938     1428.452      770.031        1.270        0.244      143.004       25.370        0.031      336.119        7.206      861.459
10/21/2014  05:37:00     -104.591      -57.427        3.321       60.049       38.174       31.270     3605.863     1457.282      977.811        1.014        0.302      119.320       33.922        0.081      336.118        7.205      861.489
10/21/2014  05:38:00     -143.582      -45.607        0.336       52.386       45.026       26.449     2744.265     2027.361      699.531        1.408        0.274      150.651       23.642        0.025      336.279        7.474      861.517
10/21/2014  05:39:00      -97.360      -38.647        0.310       53.172       36.443       21.349     2827.292     1328.095      455.778        0.779        0.231      104.750       23.483        0.050      336.383        7.647      861.535
10/21/2014  05:40:00      -78.599      -52.537       -6.653       13.778       22.043       11.355      189.832      485.888      128.933        0.489        0.040       94.541        5.300        0.003      336.462        7.781      861.544
10/21/2014  05:41:00      -54.615      -49.400       -0.791       18.242       25.537       15.069      332.772      652.156      227.075        0.332        0.061       73.643        8.632        0.014      336.491        7.830      861.550
10/21/2014  05:42:00      -10.824      -13.719        4.753       24.205       19.566       11.866      585.897      382.842      140.803        0.072        0.055       17.474        7.889        0.204      336.534        7.902      861.539
10/21/2014  05:43:00       -4.818      -27.596      -10.641       24.422       21.101       12.964      596.418      445.263      168.059        0.105        0.060       28.014       11.546        0.170      336.453        7.764      861.542
10/21/2014  05:44:00      -91.948      -84.359       -4.372       64.984       73.427       25.457     4222.973     5391.552      648.046        1.292        0.513      124.783       24.102        0.037      336.512        7.862      861.566
10/21/2014  05:45:00      -86.896     -130.461       -7.367       40.384       33.192       22.252     1630.882     1101.725      495.141        1.393        0.161      156.752       18.012        0.013      336.615        8.036      861.593
10/21/2014  05:46:00      -49.670      -77.175        0.325       40.100       33.206       21.293     1608.046     1102.626      453.388        0.579        0.158       91.778       20.825        0.051      336.688        8.159      861.574
10/21/2014  05:47:00        3.077      -14.833        7.822       43.614       31.270       18.733     1902.138      977.783      350.938        0.176        0.162       15.149       18.965        1.567      336.572        7.965      861.545
10/21/2014  05:48:00      -17.443      -31.378       12.362       28.251       23.084       23.041      798.136      532.874      530.897        0.165        0.093       35.900       14.748        0.169      336.489        7.824      861.518
10/21/2014  05:49:00      -45.491      -18.621       -0.874       42.603       32.024       16.025     1815.029     1025.526      256.796        0.276        0.155       49.154       14.165        0.083      336.555        7.936      861.513
10/21/2014  05:50:00     -138.106      -71.599       -2.464       31.207       23.134       19.792      973.904      535.203      391.705        1.305        0.095      155.563       11.313        0.005      336.548        7.926      861.535
10/21/2014  05:51:00     -137.791      -34.555      -14.803       27.446       31.585       20.997      753.283      997.641      440.881        1.130        0.110      142.058       11.158        0.006      336.433        7.731      861.557
10/21/2014  05:52:00     -101.133      -51.572       -5.495       33.243       22.621       14.321     1105.113      511.709      205.078        0.737        0.091      113.524       13.831        0.015      336.508        7.859      861.569
10/21/2014  05:53:00      -91.441      -46.599       -0.626       29.728       23.651       12.793      883.759      559.371      163.664        0.607        0.080      102.630        9.472        0.009      336.392        7.664      861.590
10/21/2014  05:54:00     -103.865      -59.788       -2.951       36.302       31.404       19.287     1317.845      986.225      371.991        0.852        0.134      119.844       17.721        0.022      336.395        7.669      861.603
10/21/2014  05:55:00     -111.396      -41.248       -2.482       40.624       36.972       21.297     1650.329     1366.903      453.559        0.879        0.174      118.788       25.497        0.046      336.410        7.694      861.612
10/21/2014  05:56:00     -100.636      -15.543       -9.646       28.790       22.209       10.871      828.873      493.249      118.168        0.595        0.072      101.829       10.990        0.012      336.424        7.717      861.626
10/21/2014  05:57:00     -154.604       21.574       -9.436       57.709       43.996       32.357     3330.306     1935.652     1046.987        1.538        0.316      156.102       25.828        0.027      336.300        7.508      861.634
10/21/2014  05:58:00     -125.512      -34.226       -5.826       46.491       42.340       25.630     2161.423     1792.698      656.898        1.078        0.231      130.095       22.954        0.031      335.927        6.886      861.641
10/21/2014  05:59:00      -90.435      -55.902        1.173       33.098       29.143       18.973     1095.470      849.326      359.964        0.680        0.115      106.318       13.344        0.016      335.980        6.974      861.637
10/21/2014  06:00:00     -120.006      -63.955       -2.696       43.997       27.066       23.262     1935.693      732.546      541.114        1.085        0.160      135.984       19.775        0.021      336.006        7.018      861.639
10/21/2014  06:01:00     -104.059      -81.004       -4.387       26.508       41.675       19.652      702.671     1736.776      386.215        1.012        0.141      131.871       12.413        0.009      336.140        7.241      861.634
10/21/2014  06:02:00     -104.410      -46.270       -2.180       28.266       26.130       17.993      798.957      682.788      323.766        0.743        0.090      114.203        7.365        0.004      336.184        7.314      861.625
10/21/2014  06:03:00      -80.398      -51.985        0.802       41.931       35.919       15.833     1758.216     1290.161      250.681        0.623        0.165       95.741       12.811        0.018      336.127        7.220      861.626
10/21/2014  06:04:00     -135.135      -73.607       -0.091       48.885       33.659       24.322     2389.706     1132.915      591.551        1.390        0.206      153.882       25.432        0.027      336.119        7.208      861.637
10/21/2014  06:05:00     -137.789      -39.192       -4.681       51.834       36.241       23.004     2686.771     1313.404      529.199        1.254        0.226      143.255       24.421        0.029      335.950        6.923      861.647
10/21/2014  06:06:00     -167.369      -33.110       -7.558       48.757       47.751       26.377     2377.278     2280.161      695.761        1.726        0.268      170.612       24.711        0.021      335.877        6.803      861.666
10/21/2014  06:07:00     -104.094      -23.017        1.129       47.471       38.389       23.050     2253.517     1473.737      531.302        0.781        0.213      106.608       23.961        0.051      335.703        6.511      861.693
10/21/2014  06:08:00      -88.322       13.064      -10.035       41.576       35.105       18.299     1728.575     1232.393      334.835        0.568        0.165       89.283       14.200        0.025      335.615        6.368      861.702
10/21/2014  06:09:00     -144.326       49.173       -5.908       70.475       33.278       22.640     4966.732     1107.455      512.556        1.493        0.329      152.473       23.308        0.023      335.750        6.592      861.710
10/21/2014  06:10:00     -158.494       46.003      -13.466       42.557       33.063       20.233     1811.112     1093.168      409.386        1.537        0.166      165.035       15.821        0.009      335.864        6.782      861.714
10/21/2014  06:11:00      -94.424      -39.402      -13.074       42.545       38.700       31.195     1810.103     1497.703      973.132        0.746        0.214      102.315       23.168        0.051      335.803        6.680      861.720
10/21/2014  06:12:00      -22.259      -23.755       -8.076       54.347       39.060       21.255     2953.544     1525.656      451.764        0.303        0.247       32.554       22.064        0.459      335.810        6.692      861.712
10/21/2014  06:13:00      -24.941       -8.531        3.176       29.481       37.750       20.006      869.150     1425.049      400.259        0.170        0.135       26.359       17.964        0.464      335.993        6.996      861.701
10/21/2014  06:14:00      -21.643      -29.611        5.648       37.728       38.523       24.639     1423.383     1484.039      607.090        0.245        0.176       36.677       17.431        0.226      335.940        6.909      861.697
10/21/2014  06:15:00      -41.628      -26.322        3.332       44.048       27.580       24.293     1940.219      760.651      590.148        0.286        0.165       49.251       27.371        0.309      335.894        6.833      861.696
10/21/2014  06:16:00      -68.555      -25.970       -6.138       32.581       29.487       15.769     1061.498      869.459      248.649        0.380        0.109       73.309       17.941        0.060      335.997        7.003      861.703
10/21/2014  06:17:00      -95.056      -36.202       -3.305       32.130       19.886       16.642     1032.332      395.469      276.947        0.603        0.085      101.717       14.573        0.021      336.242        7.411      861.710
10/21/2014  06:18:00     -114.103      -55.358       -3.979       26.256       19.154       12.285      689.401      366.858      150.931        0.865        0.060      126.822        9.444        0.006      336.148        7.256      861.740
10/21/2014  06:19:00     -103.826      -52.268       -8.275       62.495       29.701       20.620     3905.577      882.153      425.198        0.940        0.261      116.240       21.192        0.033      336.181        7.310      861.779
10/21/2014  06:20:00      -66.640      -38.845       -3.555       40.052       23.639       15.124     1604.137      558.818      228.728        0.418        0.120       77.135        9.694        0.016      336.141        7.242      861.824
10/21/2014  06:21:00       57.805       18.830        7.845       36.182       39.644       28.301     1309.138     1571.641      800.974        0.372        0.184       60.795       17.230        0.080      336.107        7.187      861.841
10/21/2014  06:22:00      136.083       60.314       11.909       63.167       66.361       37.657     3990.016     4403.815     1418.085        1.605        0.491      148.850       22.822        0.024      335.688        6.487      861.850
10/21/2014  06:23:00      172.680       95.754       38.888       50.606       52.470       35.491     2560.974     2753.105     1259.595        2.354        0.329      197.452       25.168        0.016      335.583        6.309      861.863
10/21/2014  06:24:00      169.734       88.421       15.041       55.926       41.175       33.055     3127.717     1695.340     1092.616        2.138        0.296      191.384       18.191        0.009      335.594        6.329      861.882
10/21/2014  06:25:00      174.319       98.245       18.638       61.004       47.243       38.398     3721.469     2231.927     1474.429        2.391        0.371      200.098       29.032        0.021      335.636        6.400      861.917
10/21/2014  06:26:00       95.166       61.004       23.408       58.235       54.188       39.238     3391.323     2936.346     1539.614        1.060        0.393      113.040       36.502        0.104      335.615        6.366      861.930
10/21/2014  06:27:00      138.238       87.876       35.422       55.291       43.172       40.048     3057.101     1863.830     1603.869        1.730        0.326      163.804       25.348        0.024      335.661        6.442      861.949
10/21/2014  06:28:00       71.200       69.289       80.891       57.624       39.482       23.446     3320.532     1558.804      549.695        1.092        0.271       99.350       21.779        0.048      335.595        6.335      861.954
10/21/2014  06:29:00       77.248       74.218       66.137       55.579       37.944       31.945     3089.053     1439.746     1020.495        1.070        0.277      107.124       25.547        0.057      335.581        6.313      861.957
10/21/2014  06:30:00       95.335        8.327       17.555       47.196       43.778       32.860     2227.439     1916.520     1079.788        0.734        0.261       95.698       16.263        0.029      335.612        6.363      861.958
10/21/2014  06:31:00       32.925      -13.120       28.777       35.223       50.366       23.768     1240.661     2536.757      564.935        0.321        0.217       35.443       12.454        0.123      335.574        6.298      861.945
10/21/2014  06:32:00        2.308       30.504       51.531       25.169       41.021       31.924      633.501     1682.689     1019.122        0.346        0.167       30.591       19.015        0.386      335.601        6.344      861.935
10/21/2014  06:33:00       76.382      -65.073        8.985       62.241       56.557       38.512     3873.972     3198.671     1483.137        0.935        0.428      100.343       35.513        0.125      335.718        6.538      861.935
10/21/2014  06:34:00      130.608     -103.271       -8.110       32.288       41.588       27.029     1042.517     1729.602      730.552        1.565        0.175      166.503       15.147        0.008      335.833        6.730      861.963
10/21/2014  06:35:00       89.821      -61.594        0.767       50.152       43.699       31.642     2515.224     1909.604     1001.232        0.864        0.271      108.911       29.334        0.073      335.912        6.863      861.989
10/21/2014  06:36:00       72.668      -54.114       -4.406       44.665       46.808       29.994     1994.929     2190.972      899.622        0.666        0.254       90.604       23.680        0.068      335.984        6.980      862.014
10/21/2014  06:37:00       82.216      -59.921        5.020       39.890       41.608       22.569     1591.197     1731.262      509.354        0.710        0.192      101.735       26.975        0.070      336.027        7.053      862.038
10/21/2014  06:38:00       74.594      -51.584       17.610       57.257       62.768       38.832     3278.402     3939.850     1507.947        0.863        0.436       90.693       44.797        0.244      335.997        7.003      862.047
10/21/2014  06:39:00       20.993      -17.999       19.090       32.050       44.109       31.073     1027.201     1945.585      965.561        0.253        0.197       27.652       31.443        1.293      335.932        6.895      862.055
10/21/2014  06:40:00        8.802      -12.395       24.409       40.031       27.270       23.783     1602.468      743.671      565.624        0.187        0.146       15.202       23.885        2.469      335.872        6.796      862.073
10/21/2014  06:41:00        7.875       -1.206       24.142       25.164       28.119       28.554      633.206      790.674      815.330        0.144        0.112        7.966       18.229        5.236      335.916        6.867      862.111
10/21/2014  06:42:00        9.305       14.978       29.224       31.214       27.850       25.366      974.300      775.612      643.424        0.178        0.120       17.633       20.101        1.300      335.816        6.701      862.128
10/21/2014  06:43:00       45.116      -12.689       24.526       34.528       39.971       29.930     1192.208     1597.688      895.804        0.324        0.184       46.867       26.514        0.320      335.827        6.720      862.128
10/21/2014  06:44:00       42.419      -28.142       17.041       37.061       40.590       32.098     1373.521     1647.526     1030.287        0.347        0.203       50.905       30.640        0.362      335.848        6.755      862.126
10/21/2014  06:45:00       58.632      -66.213       14.903       39.529       54.790       31.947     1562.553     3001.917     1020.635        0.681        0.279       88.441       27.542        0.097      335.944        6.914      862.131
10/21/2014  06:46:00       77.105     -114.591       -1.589       53.932       47.959       36.010     2908.621     2300.047     1296.687        1.279        0.325      138.117       33.894        0.060      336.108        7.188      862.150
10/21/2014  06:47:00       40.000      -92.758       11.424       40.933       66.935       38.995     1675.491     4480.291     1520.598        0.900        0.384      101.015       38.003        0.142      336.089        7.155      862.179
10/21/2014  06:48:00       23.124       -8.683       40.263       42.722       57.502       35.082     1825.198     3306.518     1230.738        0.430        0.318       24.701       41.811        2.865      335.920        6.875      862.193
10/21/2014  06:49:00       53.635      -71.136        5.323       45.068       46.179       32.034     2031.124     2132.468     1026.205        0.658        0.259       89.090       28.704        0.104      335.985        6.982      862.197
10/21/2014  06:50:00       62.902      -69.293        6.645       39.411       46.120       30.442     1553.213     2127.058      926.715        0.670        0.230       93.585       29.590        0.100      335.914        6.865      862.201
10/21/2014  06:51:00      100.787      -61.672        0.453       54.817       66.405       32.542     3004.897     4409.650     1059.002        1.122        0.424      118.158       38.381        0.106      335.894        6.831      862.199
10/21/2014  06:52:00       87.383      -56.410       12.080       52.266       75.334       32.158     2731.715     5675.150     1034.157        1.020        0.472      104.009       41.124        0.156      335.868        6.789      862.189
10/21/2014  06:53:00      122.501     -104.029      -13.555       50.590       60.081       40.434     2559.369     3609.770     1634.878        1.691        0.390      160.713       35.812        0.050      335.883        6.811      862.195
10/21/2014  06:54:00       47.395      -39.784       26.275       57.199       55.533       43.917     3271.769     3083.863     1928.698        0.640        0.414       61.879       37.994        0.377      335.821        6.710      862.209
10/21/2014  06:55:00       85.305      -72.329        4.601       42.637       43.435       29.444     1817.890     1886.585      866.933        0.855        0.229      111.841       26.980        0.058      335.886        6.817      862.225
10/21/2014  06:56:00       42.643      -45.422       12.150       29.040       36.690       25.547      843.348     1346.186      652.638        0.344        0.142       62.303       23.099        0.137      335.884        6.816      862.227
10/21/2014  06:57:00       59.759       34.383       14.721       46.522       30.781       28.867     2164.257      947.476      833.303        0.446        0.197       68.944       18.672        0.073      335.589        6.324      862.228
10/21/2014  06:58:00       69.513       51.198       11.880       25.604       26.502       18.387      655.555      702.338      338.083        0.464        0.085       86.332        9.810        0.013      335.307        5.854      862.243
10/21/2014  06:59:00       89.454       75.868       10.782       23.898       16.528       16.349      571.105      273.176      267.278        0.749        0.056      117.294       11.476        0.010      335.318        5.871      862.252
10/21/2014  07:00:00       48.018       70.352       -3.312       31.821       20.986       14.185     1012.558      440.431      201.215        0.446        0.083       85.177       11.644        0.019      335.351        5.926      862.268
10/21/2014  07:01:00       12.800      107.341      -18.793       18.599       26.123       16.530      345.931      682.414      273.230        0.667        0.065      108.102       13.672        0.016      335.475        6.133      862.289
10/21/2014  07:02:00      -11.816      108.684      -16.632       20.163       16.666        9.617      406.552      277.752       92.482        0.650        0.039      109.324       10.712        0.010      335.588        6.324      862.318
10/21/2014  07:03:00      -45.554       25.871       -9.914       28.134       38.944       14.256      791.505     1516.635      203.230        0.268        0.126       52.388       12.397        0.056      335.472        6.128      862.343
10/21/2014  07:04:00      -50.147      -27.940       -8.236       18.137       21.268        9.406      328.957      452.320       88.470        0.212        0.043       57.406        6.382        0.012      335.360        5.941      862.368
10/21/2014  07:05:00      -49.097       -4.091       -7.334       32.571       24.953       16.442     1060.888      622.639      270.336        0.222        0.098       49.267       12.105        0.060      335.303        5.846      862.389
10/21/2014  07:06:00      -84.036       -3.743      -13.297       26.612       18.873       11.760      708.206      356.186      138.293        0.423        0.060       84.120       12.242        0.021      335.290        5.824      862.411
10/21/2014  07:07:00      -56.006      -27.359       -3.140       18.216       16.224       10.793      331.835      263.215      116.485        0.230        0.036       62.331        6.656        0.011      335.417        6.037      862.439
10/21/2014  07:08:00      -61.670      -24.664       -9.315       21.129       14.982       10.172      446.416      224.454      103.478        0.264        0.039       66.419       11.113        0.028      335.464        6.114      862.445
10/21/2014  07:09:00     -101.556      -13.877       -8.677       22.933       24.589       13.147      525.922      604.640      172.855        0.594        0.065      102.499        9.896        0.009      335.340        5.908      862.448
10/21/2014  07:10:00     -123.763        9.809      -13.122       39.850       27.483       23.068     1588.033      755.320      532.121        0.923        0.144      124.151       17.345        0.020      335.105        5.519      862.434
10/21/2014  07:11:00     -143.136       28.710      -13.272       43.331       28.980       23.052     1877.563      839.861      531.399        1.237        0.162      145.987       17.953        0.015      335.114        5.535      862.430
10/21/2014  07:12:00     -118.802       17.772      -11.441       31.364       25.375       21.916      983.683      643.895      480.320        0.833        0.105      120.124       16.415        0.019      335.125        5.552      862.431
10/21/2014  07:13:00      -99.323        0.850      -14.702       19.587       27.720       12.669      383.639      768.425      160.496        0.570        0.066       99.326        8.997        0.008      335.139        5.576      862.430
10/21/2014  07:14:00      -73.553       18.192       -6.029       34.256       19.122       12.226     1173.478      365.646      149.487        0.373        0.084       75.769       11.028        0.021      335.148        5.589      862.436
10/21/2014  07:15:00      -44.533        1.619      -11.693       18.532       23.988       16.207      343.453      575.412      262.663        0.165        0.059       44.562        7.293        0.027      335.166        5.620      862.444
10/21/2014  07:16:00      -25.720        1.803       -7.439       10.581       15.623       10.378      111.948      244.075      107.707        0.059        0.023       25.783        8.164        0.100      335.159        5.608      862.463
10/21/2014  07:17:00       -1.199      -19.772       -2.642       14.696       12.653       15.197      215.961      160.088      230.936        0.050        0.030       19.808        6.518        0.108      335.257        5.771      862.485
10/21/2014  07:18:00       -0.270      -26.434       -0.788       11.449       12.666        9.073      131.077      160.427       82.321        0.054        0.019       26.436        5.999        0.051      335.317        5.868      862.500
10/21/2014  07:19:00      -24.845      -28.068       -1.276       28.545       20.946       14.633      814.837      438.719      214.122        0.144        0.073       37.484       16.161        0.186      335.113        5.533      862.495
10/21/2014  07:20:00      -46.100      -29.955       -1.049       20.132       16.279       12.742      405.304      265.002      162.359        0.193        0.042       54.977        9.943        0.033      335.084        5.483      862.495
10/21/2014  07:21:00      -48.738      -31.049       -0.335       26.189       16.616       14.739      685.845      276.099      217.234        0.226        0.059       57.788       14.680        0.065      335.143        5.581      862.502
10/21/2014  07:22:00      -62.840      -18.129       -3.769       15.216       13.517        7.691      231.538      182.697       59.145        0.238        0.024       65.403        6.101        0.009      335.114        5.533      862.493
10/21/2014  07:23:00      -42.261      -22.103       -5.920        9.529        6.661        6.210       90.797       44.374       38.564        0.124        0.009       47.693        2.316        0.002      335.236        5.734      862.502
10/21/2014  07:24:00      -37.739      -24.653       -3.673       17.482       10.275       10.664      305.627      105.568      113.717        0.129        0.026       45.078        9.396        0.043      335.266        5.784      862.525
10/21/2014  07:25:00      -34.533      -16.936       -1.358       16.664       12.329        9.389      277.702      152.016       88.150        0.100        0.026       38.462        7.710        0.040      335.280        5.806      862.551
10/21/2014  07:26:00      -35.080      -19.190       -3.168       11.000       15.333        8.120      120.993      235.109       65.930        0.102        0.021       39.986        6.545        0.027      335.269        5.789      862.570
10/21/2014  07:27:00      -31.385       -8.684       -1.210       15.028       12.472       10.191      225.852      155.550      103.850        0.077        0.024       32.564        8.904        0.075      335.211        5.693      862.579
10/21/2014  07:28:00      -41.152        6.560       -2.194        8.132        7.262        6.124       66.127       52.742       37.504        0.095        0.008       41.672        3.314        0.006      335.188        5.655      862.585
10/21/2014  07:29:00      -12.071       12.255       -1.574       14.725        5.332        6.959      216.823       28.430       48.430        0.030        0.015       17.202        6.966        0.164      335.365        5.950      862.587
10/21/2014  07:30:00        1.453       17.285        4.409        7.884       17.919        8.745       62.150      321.091       76.478        0.039        0.023       17.346       10.830        0.390      335.401        6.009      862.598
10/21/2014  07:31:00        0.518       48.995       -5.031        9.992       10.441        7.541       99.850      109.013       56.874        0.135        0.013       48.998        6.036        0.015      335.314        5.864      862.613
10/21/2014  07:32:00       -6.393       40.878       -7.568        7.420       13.814        5.707       55.061      190.814       32.575        0.102        0.014       41.375        4.739        0.013      335.468        6.121      862.629
10/21/2014  07:33:00       -8.808       39.969       -3.658       11.358       15.353        7.200      128.993      235.708       51.839        0.105        0.021       40.928        6.712        0.027      335.504        6.183      862.651
10/21/2014  07:34:00       -6.604       44.998       -2.127       12.266       18.059       12.093      150.460      326.114      146.251        0.135        0.031       45.480       10.821        0.057      335.423        6.047      862.661
10/21/2014  07:35:00      -35.330       25.550       -9.636       13.658       17.910        6.644      186.547      320.781       44.142        0.127        0.028       43.600        5.931        0.019      335.194        5.664      862.686
10/21/2014  07:36:00      -16.048       -9.316        1.428       10.873       11.388        6.585      118.226      129.687       43.367        0.032        0.015       18.556        4.403        0.056      335.257        5.767      862.721
10/21/2014  07:37:00      -12.606      -14.344        4.379       13.683        8.695        7.385      187.219       75.597       54.538        0.035        0.016       19.096        7.031        0.136      335.228        5.721      862.741
10/21/2014  07:38:00      -31.952      -11.906       -7.259       12.110       12.617        5.515      146.664      159.189       30.419        0.078        0.017       34.099        4.442        0.017      335.074        5.468      862.769
10/21/2014  07:39:00        9.668       32.756        1.591       15.106       24.404       10.846      228.182      595.555      117.642        0.106        0.047       34.153        7.243        0.045      335.254        5.764      862.789
10/21/2014  07:40:00       33.225       76.287       -7.544       21.520       37.530       23.625      463.117     1408.534      558.123        0.470        0.121       83.208       23.777        0.082      335.179        5.640      862.793
10/21/2014  07:41:00       54.730       43.717        7.779       28.867       19.956       25.068      833.306      398.246      628.402        0.341        0.093       70.047       14.710        0.044      335.190        5.659      862.795
10/21/2014  07:42:00       84.967       40.946       10.001       29.892       29.319       19.558      893.535      859.624      382.531        0.557        0.107       94.318       13.040        0.019      335.171        5.628      862.783
10/21/2014  07:43:00      108.062       57.016        1.953       23.628       27.916       19.668      558.262      779.313      386.816        0.833        0.086      122.181       11.447        0.009      335.091        5.493      862.789
10/21/2014  07:44:00      113.054       53.157        3.351       40.693       31.146       28.473     1655.944      970.044      810.691        0.953        0.172      124.928       23.897        0.037      335.124        5.550      862.791
10/21/2014  07:45:00      110.260       70.531       -4.491       33.137       27.272       21.802     1098.035      743.755      475.309        0.973        0.116      130.889       18.571        0.020      335.131        5.563      862.794
10/21/2014  07:46:00       98.982       46.887       -1.444       30.094       27.877       24.326      905.661      777.144      591.749        0.714        0.114      109.526       15.888        0.021      335.155        5.602      862.808
10/21/2014  07:47:00       88.350       38.904        6.199       32.872       28.307       21.502     1080.568      801.283      462.340        0.585        0.117       96.536        4.615        0.002      335.207        5.688      862.839
10/21/2014  07:48:00       94.394       35.361       16.221       27.720       26.756       25.266      768.410      715.868      638.394        0.627        0.106      100.800       18.998        0.036      335.207        5.687      862.878
10/21/2014  07:49:00       95.542       41.447       -3.109       32.926       26.043       18.023     1084.143      678.217      324.832        0.647        0.104      104.144       15.360        0.022      335.287        5.819      862.910
10/21/2014  07:50:00      101.642       57.176       16.194       25.303       24.707       19.531      640.249      610.459      381.465        0.775        0.082      116.620       16.463        0.020      335.362        5.945      862.922
10/21/2014  07:51:00       87.689       55.053       33.666       17.409       17.927       18.054      303.076      321.378      325.939        0.640        0.048      103.538       14.033        0.018      335.455        6.100      862.942
10/21/2014  07:52:00       62.412       38.131       23.873       30.765       20.617       15.430      946.497      425.065      238.076        0.376        0.080       73.138       13.387        0.034      335.490        6.157      862.972
10/21/2014  07:53:00       53.274       38.510       12.633       16.621       10.811       12.036      276.262      116.870      144.868        0.251        0.027       65.735        9.593        0.021      335.567        6.285      862.974
10/21/2014  07:54:00       23.714       25.098        8.975       17.901       13.514       11.575      320.431      182.641      133.976        0.095        0.032       34.529       13.540        0.154      335.711        6.527      862.980
10/21/2014  07:55:00       -9.933      -14.178        6.115       15.688       10.199       10.800      246.110      104.018      116.641        0.040        0.023       17.311        8.503        0.241      335.699        6.508      862.968
10/21/2014  07:56:00      -14.477      -34.973       -0.011       19.422       17.327       11.544      377.205      300.216      133.274        0.112        0.041       37.851        7.332        0.038      335.585        6.316      862.957
10/21/2014  07:57:00      -28.407      -28.796       -0.477       17.582       23.022       10.509      309.117      529.995      110.429        0.129        0.047       40.450        8.414        0.043      335.600        6.341      862.959
10/21/2014  07:58:00       -9.510       -6.526       -3.177       12.091        9.983        7.412      146.197       99.661       54.938        0.022        0.015       11.534        3.677        0.102      335.737        6.569      862.951
10/21/2014  07:59:00      -14.521       13.439        9.746        8.452        9.328       18.675       71.430       87.003      348.758        0.050        0.025       19.785        9.426        0.227      335.883        6.815      862.953
10/21/2014  08:00:00      -10.888       20.874       -0.859       17.726       18.671       18.568      314.205      348.609      344.757        0.078        0.050       23.543        8.818        0.140      335.930        6.892      862.958
10/21/2014  08:01:00        8.394       24.463       12.947       18.385       13.712       16.258      337.994      188.018      264.323        0.081        0.040       25.862       12.403        0.230      335.972        6.962      862.972
10/21/2014  08:02:00       70.398       27.568       28.304       51.603       30.892       21.138     2662.907      954.290      446.808        0.529        0.203       75.604       15.135        0.040      335.935        6.900      862.992
10/21/2014  08:03:00       48.186       56.142        0.649       35.999       22.575       25.443     1295.898      509.640      647.338        0.396        0.123       73.985       18.555        0.063      335.851        6.761      863.004
10/21/2014  08:04:00       54.799       47.069       11.263       25.333       20.244       23.231      641.764      409.830      539.673        0.347        0.080       72.239        8.417        0.014      335.795        6.667      863.002
10/21/2014  08:05:00       90.554       68.754       11.536       22.666       22.409       23.213      513.728      502.168      538.837        0.731        0.078      113.697       14.928        0.017      335.750        6.593      863.000
10/21/2014  08:06:00       74.093       54.168       -1.315       19.742       14.895       17.397      389.764      221.871      302.654        0.467        0.046       91.782       11.036        0.014      335.696        6.501      863.006
10/21/2014  08:07:00       69.021       44.957        2.302       17.561       17.055       14.121      308.404      290.865      199.411        0.379        0.040       82.371        8.162        0.010      335.728        6.557      863.013
10/21/2014  08:08:00       31.332       22.212       -7.093       18.480       12.420       10.859      341.496      154.254      117.911        0.107        0.031       38.407        7.364        0.037      335.735        6.568      863.020
10/21/2014  08:09:00       15.619       61.575       -0.022       30.413       36.614       18.394      924.927     1340.550      338.341        0.332        0.130       63.525       17.469        0.076      335.863        6.780      863.039
10/21/2014  08:10:00        1.714       92.226      -10.302       34.195       46.045       22.099     1169.295     2120.186      488.379        0.620        0.189       92.242       23.578        0.065      335.781        6.645      863.049
10/21/2014  08:11:00      -10.258       99.561      -14.075       15.913       16.655       13.624      253.223      277.384      185.623        0.547        0.036      100.088        7.538        0.006      335.732        6.562      863.058
10/21/2014  08:12:00        3.699       30.447        4.104       22.217       34.961       20.698      493.604     1222.263      428.406        0.155        0.107       30.671       21.371        0.485      335.991        6.993      863.068
10/21/2014  08:13:00       -6.152       31.860       13.386       14.270       31.040       17.797      203.630      963.466      316.739        0.136        0.074       32.449       15.099        0.217      336.077        7.136      863.072
10/21/2014  08:14:00      -13.382       21.062        7.360       21.634       22.819       17.144      468.038      520.713      293.923        0.098        0.064       24.954       10.786        0.187      335.931        6.894      863.076
10/21/2014  08:15:00       -6.861       54.503       -3.304       17.325       35.674        9.695      300.164     1272.601       93.996        0.235        0.083       54.934        3.864        0.005      335.949        6.922      863.082
10/21/2014  08:16:00      -12.665       78.684       -5.063       20.367       27.443       16.722      414.812      753.109      279.624        0.391        0.072       79.696       14.122        0.031      335.984        6.983      863.091
10/21/2014  08:17:00      -12.691       41.445        0.015       11.867       35.246       18.129      140.822     1242.268      328.656        0.179        0.086       43.344       16.363        0.143      336.098        7.172      863.102
10/21/2014  08:18:00      -19.661       -4.710        4.988       11.279       17.425        8.524      127.212      303.615       72.666        0.047        0.025       20.218        7.462        0.136      336.072        7.128      863.109
10/21/2014  08:19:00      -14.297        6.834        1.412       14.528       10.299        9.128      211.077      106.078       83.316        0.033        0.020       15.847        7.938        0.251      336.268        7.455      863.114
10/21/2014  08:20:00      -10.156       -1.151        8.482       12.052       10.312        9.810      145.249      106.342       96.238        0.026        0.017       10.221        8.444        0.683      336.284        7.481      863.116
10/21/2014  08:21:00      -16.853       14.558        1.428       20.258       10.788       12.622      410.395      116.377      159.308        0.059        0.034       22.270        6.713        0.091      336.141        7.243      863.120
10/21/2014  08:22:00        6.254       31.377       11.637       18.235       18.702       16.935      332.511      349.768      286.787        0.106        0.048       31.994       10.870        0.115      336.328        7.557      863.118
10/21/2014  08:23:00      -13.270       35.970        7.693       17.776       31.263       18.516      315.982      977.369      342.845        0.158        0.082       38.340       17.419        0.206      336.141        7.245      863.138
10/21/2014  08:24:00      -32.913       25.163       -1.275       25.929       25.513       18.972      672.315      650.930      359.935        0.170        0.084       41.430       12.023        0.084      336.108        7.187      863.172
10/21/2014  08:25:00      -44.618       -1.456      -14.950       24.269       26.014       13.198      588.967      676.744      174.199        0.183        0.072       44.641       11.629        0.068      335.980        6.973      863.194
10/21/2014  08:26:00      -23.089       72.555       -5.855       29.958       45.940       25.334      897.483     2110.486      641.797        0.474        0.182       76.140       24.705        0.105      336.189        7.321      863.209
10/21/2014  08:27:00      -50.923       58.971      -18.111       26.817       39.258       13.095      719.133     1541.158      171.486        0.441        0.122       77.915       12.057        0.024      335.954        6.933      863.229
10/21/2014  08:28:00      -46.792       36.231      -11.315       36.552       43.359       14.548     1336.081     1879.960      211.642        0.353        0.171       59.179       21.894        0.137      336.076        7.134      863.236
10/21/2014  08:29:00        3.325       37.873        5.569       38.505       23.379       30.955     1482.664      546.560      958.182        0.223        0.149       38.018       29.275        0.593      336.341        7.579      863.248
10/21/2014  08:30:00       -5.664       17.945       -2.535       32.624       35.059       23.757     1064.318     1229.111      564.406        0.161        0.143       18.818       24.902        1.751      336.228        7.390      863.255
10/21/2014  08:31:00      -30.463        9.409        6.084       30.712       20.474       18.684      943.217      419.193      349.079        0.138        0.086       31.883       14.943        0.220      336.277        7.470      863.261
10/21/2014  08:32:00       16.283       64.812        2.606       24.790       42.502       25.868      614.553     1806.447      669.147        0.378        0.155       66.826       27.178        0.165      336.458        7.773      863.283
10/21/2014  08:33:00       12.843      118.809       -8.827       31.307       63.104       34.778      980.113     3982.152     1209.492        1.026        0.309      119.501       32.937        0.076      336.355        7.600      863.309
10/21/2014  08:34:00      -31.422       62.323       18.452       47.785       57.860       30.877     2283.368     3347.833      953.381        0.590        0.329       69.797       30.879        0.196      336.495        7.834      863.336
10/21/2014  08:35:00       22.903      115.861       -4.823       33.846       50.165       37.704     1145.543     2516.491     1421.599        0.953        0.254      118.103       35.805        0.092      336.334        7.567      863.345
10/21/2014  08:36:00      -37.825       82.463        1.965       59.985       51.196       33.359     3598.187     2620.996     1112.855        0.778        0.367       90.724       30.074        0.110      336.379        7.642      863.347
10/21/2014  08:37:00      -30.519       34.668      -11.270       28.473       31.947       25.385      810.725     1020.629      644.417        0.237        0.124       46.187       21.299        0.213      336.319        7.542      863.361
10/21/2014  08:38:00        5.706       -0.448        6.137       14.573        8.303       14.969      212.364       68.939      224.080        0.029        0.025        5.723        2.187        0.146      336.684        8.151      863.376
10/21/2014  08:39:00      -10.921       61.094       -4.741       42.813       46.918       22.577     1832.956     2201.323      509.731        0.421        0.227       62.062       22.866        0.136      336.484        7.816      863.390
10/21/2014  08:40:00      -14.895       50.057       -3.904       29.915       56.149       19.602      894.901     3152.681      384.254        0.359        0.222       52.226       18.821        0.130      336.400        7.676      863.409
10/21/2014  08:41:00       33.436       47.225       -1.891       42.983       26.096       22.005     1847.530      680.996      484.212        0.318        0.151       57.863       16.915        0.085      336.509        7.858      863.435
10/21/2014  08:42:00       25.231       63.267       11.256       47.125       48.961       32.316     2220.762     2397.206     1044.353        0.521        0.283       68.113       28.470        0.175      336.546        7.920      863.460
10/21/2014  08:43:00        5.636      146.570       -8.959       35.486       49.421       31.255     1259.248     2442.405      976.845        1.314        0.234      146.678       32.072        0.048      336.492        7.829      863.489
10/21/2014  08:44:00       31.445      142.375      -13.762       38.599       72.056       33.653     1489.889     5192.068     1132.505        1.463        0.391      145.806       39.217        0.072      336.428        7.722      863.492
10/21/2014  08:45:00      -22.388      120.152       -9.989       32.917       66.820       31.597     1083.552     4464.966      998.349        1.079        0.327      122.221       29.397        0.058      336.470        7.793      863.493
10/21/2014  08:46:00      -27.841      253.943      -33.966       33.863       60.612       24.331     1146.690     3673.820      592.004        3.591        0.271      255.464        7.871        0.001      336.255        7.430      863.490
10/21/2014  08:47:00      -37.099       82.602       -5.743       38.951       49.075       28.590     1517.211     2408.391      817.376        0.649        0.237       90.551       28.205        0.097      336.634        8.068      863.498
10/21/2014  08:48:00      -67.457      197.173      -20.350       54.496       83.482       36.956     2969.827     6969.246     1365.725        2.757        0.565      208.392       32.613        0.024      336.478        7.804      863.518
10/21/2014  08:49:00      -45.943      247.768      -27.060       37.094       71.448       34.175     1375.966     5104.765     1167.904        3.594        0.382      251.992       35.880        0.020      336.476        7.799      863.555
10/21/2014  08:50:00      -46.110      241.785      -31.104       38.715       45.428       24.219     1498.871     2063.680      586.570        3.285        0.207      246.143       23.515        0.009      336.383        7.641      863.592
10/21/2014  08:51:00       26.730      218.283      -30.814       54.728       83.734       46.124     2995.113     7011.389     2127.460        3.072        0.607      219.914       51.017        0.054      336.583        7.978      863.623
10/21/2014  08:52:00       23.294      184.626      -13.694       51.144      100.579       51.232     2615.668    10116.142     2624.711        2.508        0.768      186.090       59.624        0.103      336.688        8.156      863.632
10/21/2014  08:53:00       20.585      146.833       -2.346       66.219       94.514       52.067     4384.940     8932.980     2710.951        1.901        0.801      148.269       55.725        0.141      336.784        8.317      863.636
10/21/2014  08:54:00      -30.348      145.429      -16.300       54.590       52.622       36.118     2980.078     2769.092     1304.481        1.469        0.353      148.562       23.855        0.026      336.732        8.230      863.638
10/21/2014  08:55:00      -19.721      107.756       -5.545       47.623       43.143       32.123     2267.942     1861.292     1031.900        0.860        0.258      109.546       26.680        0.059      336.878        8.475      863.634
10/21/2014  08:56:00        1.568       70.044        9.346       31.899       52.212       36.091     1017.515     2726.063     1302.575        0.502        0.252       70.061       33.062        0.223      337.041        8.748      863.643
10/21/2014  08:57:00       17.963       69.422       -3.657       44.011       77.615       31.939     1937.007     6024.051     1020.077        0.707        0.449       71.708       34.962        0.238      337.060        8.779      863.628
10/21/2014  08:58:00       93.439      103.169        7.383       62.597       59.721       40.602     3918.356     3566.639     1648.507        1.428        0.457      139.193       34.753        0.062      336.827        8.390      863.621
10/21/2014  08:59:00      113.273       67.793       25.251       41.584       38.577       33.653     1729.213     1488.202     1132.551        1.121        0.217      132.010       22.808        0.030      336.573        7.966      863.614
10/21/2014  09:00:00       89.171       59.009       12.060       25.343       26.465       23.177      642.279      700.398      537.151        0.673        0.094      106.927       15.780        0.022      336.557        7.938      863.612
10/21/2014  09:01:00       73.838       58.996       25.877       26.604       22.619       31.389      707.764      511.640      985.290        0.590        0.110       94.512       14.271        0.023      336.736        8.238      863.617
10/21/2014  09:02:00       44.832       39.648       14.349       23.436       22.250       21.105      549.255      495.079      445.412        0.264        0.074       59.849       10.451        0.030      336.916        8.539      863.621
10/21/2014  09:03:00       72.707       47.372        7.477       27.283       23.398       30.826      744.374      547.444      950.266        0.491        0.112       86.778        9.720        0.013      336.952        8.599      863.616
10/21/2014  09:04:00       36.020        3.551        3.144       45.484       26.698       24.933     2068.823      712.796      621.642        0.236        0.170       36.194       29.063        0.645      337.201        9.016      863.619
10/21/2014  09:05:00       -1.239      -41.159       17.013       27.323       42.282       29.225      746.543     1787.807      854.126        0.269        0.169       41.178        9.662        0.055      337.355        9.273      863.627
10/21/2014  09:06:00       41.161      -68.395        3.725       51.835       40.114       30.237     2686.888     1609.142      914.289        0.580        0.261       79.825       22.067        0.076      336.906        8.522      863.638
10/21/2014  09:07:00       54.422      -36.819       21.810       50.774       62.222       33.594     2578.035     3871.570     1128.574        0.618        0.379       65.707       43.584        0.440      336.976        8.640      863.660
10/21/2014  09:08:00        1.203      -42.695       19.111       34.310       49.870       30.683     1177.155     2487.052      941.475        0.340        0.230       42.712       17.715        0.172      337.083        8.817      863.668
10/21/2014  09:09:00       -4.436        5.793       16.186       14.905       18.720       17.864      222.168      350.439      319.121        0.060        0.045        7.296       15.098        4.282      337.416        9.375      863.676
10/21/2014  09:10:00       10.841       28.014       32.998       39.818       34.419       42.383     1585.495     1184.661     1796.357        0.328        0.228       30.039       33.393        1.236      337.543        9.589      863.667
10/21/2014  09:11:00       82.157       51.645       24.713       38.318       39.281       29.475     1468.253     1543.029      868.787        0.695        0.194       97.041        7.931        0.007      337.089        8.827      863.652
10/21/2014  09:12:00       32.232       48.151       75.421       48.353       33.421       27.681     2338.056     1116.977      766.255        0.663        0.211       57.943       27.076        0.218      337.304        9.187      863.646
10/21/2014  09:13:00        8.170       57.010       69.537       26.802       41.586       26.445      718.364     1729.429      699.342        0.565        0.157       57.593       25.023        0.189      337.128        8.893      863.647
10/21/2014  09:14:00       -2.425        9.539       37.774       30.608       43.096       29.089      936.859     1857.297      846.186        0.258        0.182        9.843       24.037        5.964      337.255        9.105      863.650
10/21/2014  09:15:00       28.780       76.937       75.695       36.041       43.192       31.021     1298.919     1865.585      962.300        0.830        0.206       82.144       25.829        0.099      337.026        8.723      863.664
10/21/2014  09:16:00      -19.001      -56.932       11.089       24.818       30.099       20.783      615.916      905.936      431.938        0.284        0.098       60.019       16.300        0.074      336.949        8.594      863.681
10/21/2014  09:17:00       23.789      -57.208       14.303       26.504       42.780       29.116      702.468     1830.125      847.746        0.371        0.169       61.957       11.550        0.035      337.288        9.160      863.694
10/21/2014  09:18:00       67.420     -110.582        8.916       50.438       38.006       39.503     2543.946     1444.435     1560.509        1.120        0.277      129.514       30.222        0.054      336.965        8.621      863.696
10/21/2014  09:19:00       26.732      -12.928       42.885       32.071       61.942       29.195     1028.562     3836.806      852.366        0.422        0.286       29.693       17.768        0.358      337.213        9.034      863.696
10/21/2014  09:20:00       67.631       48.595       58.524       44.194       58.820       24.618     1953.129     3459.764      606.054        0.819        0.301       83.279       20.634        0.061      337.053        8.767      863.698
10/21/2014  09:21:00       57.757       81.683       91.350       54.155       46.539       26.329     2932.736     2165.851      693.230        1.207        0.290      100.040       21.386        0.046      337.090        8.830      863.695
10/21/2014  09:22:00       29.640       36.554       51.839       45.458       52.819       40.746     2066.438     2789.881     1660.218        0.571        0.326       47.061       17.484        0.138      337.297        9.177      863.713
10/21/2014  09:23:00       26.913       17.193       59.044       44.016       64.894       32.247     1937.408     4211.209     1039.891        0.585        0.359       31.936       36.357        1.296      337.387        9.326      863.732
10/21/2014  09:24:00       24.858       53.536       89.004       49.331       53.702       37.087     2433.575     2883.881     1375.461        0.905        0.335       59.026       34.499        0.342      337.198        9.011      863.749
10/21/2014  09:25:00       37.112      -51.104       18.283       48.815       46.753       35.988     2382.922     2185.885     1295.106        0.509        0.293       63.157       32.506        0.265      337.084        8.820      863.757
10/21/2014  09:26:00       27.602        7.905       24.253       30.148       23.057       25.635      908.916      531.622      657.145        0.175        0.105       28.711       14.739        0.264      337.414        9.371      863.752
10/21/2014  09:27:00       14.163       16.869       -5.673       26.603       15.525       17.624      707.719      241.039      310.605        0.089        0.063       22.026       13.036        0.350      336.955        8.605      863.737
10/21/2014  09:28:00       61.608       67.142       15.989       52.602       42.173       36.062     2767.013     1778.557     1300.444        0.720        0.292       91.124       20.741        0.052      337.281        9.150      863.731
10/21/2014  09:29:00       77.681       68.275       20.971       41.937       36.850       31.442     1758.682     1357.922      988.618        0.762        0.205      103.420       12.440        0.014      337.399        9.347      863.718
10/21/2014  09:30:00      113.157       90.711        3.790       43.422       32.618       31.181     1885.477     1063.917      972.278        1.248        0.196      145.028       21.271        0.022      337.273        9.136      863.721
10/21/2014  09:31:00       74.300       53.108        5.386       39.595       39.117       34.496     1567.738     1530.173     1189.945        0.633        0.214       91.329       23.149        0.064      337.188        8.994      863.723
10/21/2014  09:32:00       88.456       70.316       24.261       53.919       41.223       28.807     2907.289     1699.346      829.856        0.940        0.272      112.999       21.774        0.037      337.198        9.011      863.723
10/21/2014  09:33:00      130.826       52.259       19.309       48.433       37.190       36.717     2345.760     1383.126     1348.137        1.265        0.254      140.877       28.029        0.040      337.101        8.848      863.721
10/21/2014  09:34:00      100.516       65.831       12.634       42.976       36.297       40.271     1846.972     1317.456     1621.757        0.969        0.239      120.155       26.374        0.048      337.184        8.987      863.724
10/21/2014  09:35:00       69.926       57.884        8.136       55.148       53.268       35.559     3041.285     2837.511     1264.436        0.772        0.357       90.776       31.501        0.120      337.605        9.692      863.728
10/21/2014  09:36:00       81.636       92.906       47.783       45.850       40.440       43.930     2102.230     1635.423     1929.826        1.162        0.283      123.677       26.698        0.047      337.317        9.210      863.741
10/21/2014  09:37:00      135.444       68.767       21.041       42.169       33.250       34.159     1778.195     1105.581     1166.836        1.378        0.203      151.901       24.913        0.027      336.989        8.660      863.735
10/21/2014  09:38:00       96.211       68.495       17.184       27.957       21.751       28.441      781.570      473.100      808.890        0.815        0.103      118.102       12.638        0.011      336.959        8.610      863.731
10/21/2014  09:39:00       10.159       13.156       55.011       24.157       61.823       26.033      583.571     3822.052      677.696        0.419        0.254       16.622       30.189        3.299      337.456        9.443      863.706
10/21/2014  09:40:00      107.864       70.399       16.492       46.419       38.213       42.371     2154.705     1460.228     1795.274        1.114        0.271      128.804       28.222        0.048      337.207        9.026      863.694
10/21/2014  09:41:00       51.517       39.557       21.388       25.968       19.542       26.681      674.318      381.888      711.876        0.322        0.088       64.952        8.012        0.015      337.340        9.248      863.678
10/21/2014  09:42:00        7.120       43.111        2.829       28.999       24.110       25.501      840.967      581.313      650.277        0.199        0.104       43.694       14.080        0.104      337.321        9.215      863.663
10/21/2014  09:43:00      -40.564       19.437        0.381       20.857       22.330       20.939      434.996      498.627      438.459        0.170        0.069       44.980       18.798        0.175      337.362        9.284      863.642
10/21/2014  09:44:00      -65.837       -1.874       -9.053       49.061       37.987       28.954     2407.012     1443.000      838.354        0.455        0.234       65.863       26.873        0.166      337.287        9.159      863.616
10/21/2014  09:45:00      -17.109      -74.998        5.651       29.818       61.376       22.347      889.114     3767.004      499.409        0.555        0.258       76.925       29.021        0.142      337.547        9.595      863.603
10/21/2014  09:46:00       20.330      -18.582       30.993       50.477       65.373       35.645     2547.932     4273.566     1270.540        0.490        0.405       27.543       40.802        2.195      337.492        9.503      863.585
10/21/2014  09:47:00       12.292       50.506       90.728       50.172       73.528       49.074     2517.203     5406.372     2408.295        1.063        0.517       51.980       52.436        1.018      337.770        9.969      863.555
10/21/2014  09:48:00       74.862      -58.445        9.972       55.769       71.464       47.514     3110.188     5107.043     2257.603        0.980        0.524       94.975       58.341        0.377      337.464        9.456      863.538
10/21/2014  09:49:00       14.772        9.624       53.398       52.433       58.853       40.592     2749.231     3463.623     1647.748        0.551        0.393       17.631       46.857        7.063      337.888       10.167      863.524
10/21/2014  09:50:00        6.514       16.991       47.496       32.495       39.297       34.744     1055.922     1544.240     1207.131        0.320        0.190       18.197       28.045        2.375      338.212       10.710      863.519
10/21/2014  09:51:00       33.021      -62.727       15.354       37.447       88.498       45.152     1402.260     7831.959     2038.703        0.826        0.564       70.888       35.543        0.251      337.728        9.898      863.517
10/21/2014  09:52:00       39.431       26.120       56.429       46.786       60.243       36.944     2188.932     3629.201     1364.875        0.630        0.359       47.297       37.647        0.634      337.728        9.898      863.535
10/21/2014  09:53:00       93.561       78.233       44.050       53.427       40.779       51.529     2854.486     1662.949     2655.221        1.199        0.359      121.959       21.955        0.032      337.384        9.322      863.553
10/21/2014  09:54:00      103.022       48.670        0.869       50.380       33.655       34.011     2538.164     1132.659     1156.774        0.890        0.241      113.939       24.813        0.047      337.167        8.959      863.577
10/21/2014  09:55:00      114.810       93.149       75.131       59.412       32.893       43.598     3529.840     1081.919     1900.793        1.701        0.326      147.845       36.540        0.061      337.319        9.213      863.576
10/21/2014  09:56:00      116.669       56.957       -6.342       54.557       28.877       33.531     2976.512      833.863     1124.318        1.091        0.247      129.830       19.861        0.023      337.385        9.323      863.599
10/21/2014  09:57:00       72.423       75.270       42.261       45.044       45.115       49.784     2028.995     2035.386     2478.479        0.962        0.327      104.454       31.088        0.089      337.483        9.487      863.616
10/21/2014  09:58:00       70.387       27.896        6.503       62.914       35.435       35.001     3958.197     1255.621     1225.098        0.611        0.322       75.713       13.724        0.033      337.190        8.997      863.636
10/21/2014  09:59:00        1.793       55.987        5.235       33.926       20.492       25.853     1150.998      419.916      668.402        0.270        0.112       56.016       26.602        0.226      337.388        9.326      863.639
10/21/2014  10:00:00       38.533       20.217       23.443       46.267       40.725       26.109     2140.662     1658.533      681.682        0.346        0.224       43.514       16.461        0.143      337.731        9.904      863.654
10/21/2014  10:01:00        0.411       59.532       12.705       32.339       46.624       23.908     1045.781     2173.755      571.581        0.375        0.190       59.533       20.963        0.124      337.850       10.102      863.688
10/21/2014  10:02:00       21.798       57.209       15.312       51.072       30.267       36.132     2608.357      916.095     1305.530        0.441        0.241       61.221       26.107        0.182      337.713        9.873      863.722
10/21/2014  10:03:00       61.943       73.528       -0.971       42.905       33.636       34.590     1840.846     1131.363     1196.452        0.671        0.208       96.143       22.344        0.054      337.520        9.550      863.765
10/21/2014  10:04:00      -31.204       75.465        4.137       22.940       36.528       30.041      526.254     1334.288      902.455        0.472        0.138       81.662       28.252        0.120      337.663        9.789      863.796
10/21/2014  10:05:00        6.313       93.249      -28.672       37.981       34.625       25.126     1442.571     1198.873      631.314        0.641        0.164       93.462       11.525        0.015      337.332        9.235      863.788
10/21/2014  10:06:00       16.167       20.651       22.085       42.811       31.864       18.598     1832.801     1015.291      345.874        0.218        0.160       26.227       10.967        0.175      338.054       10.446      863.776
10/21/2014  10:07:00       38.653       55.577       25.079       33.461       39.938       34.387     1119.638     1595.047     1182.487        0.455        0.195       67.697       26.077        0.148      338.116       10.550      863.750
10/21/2014  10:08:00       -4.248      -19.885       29.326       29.397       42.924       28.244      864.173     1842.505      797.708        0.239        0.175       20.334       15.794        0.603      338.283       10.830      863.742
10/21/2014  10:09:00       13.426      -13.951       25.971       30.969       43.954       27.329      959.101     1931.969      746.884        0.234        0.182       19.361       25.599        1.748      338.540       11.262      863.719
10/21/2014  10:10:00       -5.437        0.098       39.919       14.239       29.753       24.613      202.745      885.266      605.781        0.166        0.085        5.438       22.909       17.750      338.679       11.496      863.700
10/21/2014  10:11:00       -4.432       69.780       91.054       31.903       54.862       35.387     1017.785     3009.817     1252.249        0.923        0.264       69.920       32.017        0.210      338.203       10.696      863.700
10/21/2014  10:12:00       45.499       37.088       28.750       46.630       42.599       36.114     2174.379     1814.661     1304.256        0.478        0.265       58.700       23.507        0.160      338.030       10.405      863.711
10/21/2014  10:13:00       70.863       50.401       44.953       44.691       33.407       26.427     1997.319     1116.016      698.387        0.670        0.191       86.959       24.701        0.081      337.965       10.297      863.713
10/21/2014  10:14:00       43.883       57.147       13.383       30.249       25.179       28.742      915.006      633.969      826.091        0.387        0.119       72.052       22.877        0.101      337.894       10.178      863.720
10/21/2014  10:15:00       11.212       45.336        9.975       25.511       37.646       23.876      650.812     1417.238      570.065        0.246        0.132       46.702       17.301        0.137      338.059       10.454      863.719
10/21/2014  10:16:00        4.514       65.748       -3.921       28.015       33.292       21.559      784.862     1108.383      464.799        0.336        0.118       65.903        9.289        0.020      337.806       10.029      863.708
10/21/2014  10:17:00        6.470       17.554        5.758       30.579       12.893       19.269      935.059      166.239      371.287        0.093        0.074       18.708       11.877        0.403      337.751        9.936      863.693
10/21/2014  10:18:00       18.916       44.559        5.780       33.372       44.381       29.329     1113.702     1969.645      860.217        0.316        0.197       48.407       25.715        0.282      337.841       10.088      863.675
10/21/2014  10:19:00       11.050       39.498       25.077       32.747       40.132       21.550     1072.342     1610.594      464.423        0.273        0.157       41.015       21.955        0.287      338.462       11.132      863.659
10/21/2014  10:20:00       93.096       67.363       38.530       53.627       32.065       38.565     2875.880     1028.164     1487.244        1.004        0.270      114.911       20.852        0.033      338.082       10.493      863.652
10/21/2014  10:21:00       34.284       19.648       20.075       28.383       32.720       27.934      805.576     1070.608      780.324        0.231        0.133       39.515       15.654        0.157      338.183       10.661      863.641
10/21/2014  10:22:00       55.373       38.932        4.929       26.383       28.076       23.758      696.065      788.280      564.422        0.333        0.102       67.690       21.659        0.102      338.266       10.800      863.622
10/21/2014  10:23:00       -3.569       28.306       45.583       23.798       49.366       24.296      566.344     2437.049      590.302        0.324        0.180       28.530       14.291        0.251      338.730       11.581      863.593
10/21/2014  10:24:00       42.566      -33.681       14.888       35.459       69.691       38.415     1257.314     4856.791     1475.683        0.538        0.379       54.280       28.007        0.266      338.362       10.963      863.558
10/21/2014  10:25:00       37.805        1.815       38.143       41.384       52.116       46.182     1712.676     2716.111     2132.810        0.472        0.328       37.848       38.195        1.018      338.609       11.376      863.538
10/21/2014  10:26:00        9.209       19.418       77.164       33.368       62.679       47.675     1113.401     3928.647     2272.947        0.686        0.366       21.491       42.950        3.994      338.428       11.071      863.528
10/21/2014  10:27:00       61.263      -60.066        3.790       57.109       72.936       55.320     3261.479     5319.618     3060.313        0.951        0.582       85.796       48.259        0.316      338.179       10.655      863.525
10/21/2014  10:28:00       54.366      -82.186        5.685       61.833       68.466       54.186     3823.375     4687.579     2936.093        1.059        0.572       98.540       53.936        0.300      338.238       10.754      863.536
10/21/2014  10:29:00       30.565       26.049       63.610       40.777       45.320       31.108     1662.797     2053.859      967.680        0.517        0.234       40.159       16.440        0.168      338.438       11.090      863.529
10/21/2014  10:30:00        1.779       67.747       82.597       38.394       44.235       39.049     1474.103     1956.698     1524.852        0.818        0.248       67.770       30.125        0.198      338.148       10.602      863.517
10/21/2014  10:31:00       33.816       13.598       32.060       46.402       41.401       42.770     2153.157     1714.019     1829.310        0.403        0.285       36.448       34.504        0.896      337.918       10.218      863.504
10/21/2014  10:32:00       17.855      -57.036       17.126       32.437       58.612       26.272     1052.175     3435.342      690.235        0.452        0.259       59.765       28.165        0.222      337.682        9.820      863.466
10/21/2014  10:33:00      119.011       66.144       15.173       53.843       39.038       29.835     2899.088     1524.004      890.134        1.204        0.266      136.156       20.659        0.023      337.731        9.903      863.457
10/21/2014  10:34:00       89.612       71.136       13.129       42.976       36.332       34.461     1846.902     1319.990     1187.529        0.881        0.218      114.415       12.458        0.012      337.880       10.152      863.423
10/21/2014  10:35:00       45.463       36.743       51.403       48.982       57.016       36.418     2399.195     3250.783     1326.243        0.652        0.349       58.454       14.627        0.063      338.359       10.956      863.389
10/21/2014  10:36:00       -3.052       51.809       80.284       27.624       50.625       43.791      763.059     2562.939     1917.627        0.719        0.262       51.898       39.147        0.569      338.276       10.818      863.371
10/21/2014  10:37:00      -16.497       15.843       42.016       29.753       38.829       35.474      885.223     1507.666     1258.435        0.297        0.183       22.873       26.811        1.374      338.539       11.259      863.363
10/21/2014  10:38:00       69.434      -71.650        9.635       67.738       80.162       47.431     4588.484     6425.983     2249.690        1.165        0.663       99.773       48.291        0.234      338.216       10.716      863.363
10/21/2014  10:39:00       40.457       37.781       56.470       59.018       50.143       48.579     3483.167     2514.334     2359.928        0.730        0.418       55.355       34.964        0.399      338.420       11.058      863.375
10/21/2014  10:40:00       34.250      -12.499       26.768       66.739       78.768       47.883     4454.040     6204.371     2292.756        0.750        0.648       36.459       51.577        2.001      338.096       10.516      863.383
10/21/2014  10:41:00       39.077      -39.704       19.286       44.077       52.692       37.904     1942.751     2776.468     1436.715        0.481        0.308       55.709       23.123        0.172      338.309       10.873      863.403
10/21/2014  10:42:00       46.879       46.913       65.066       52.163       88.982       49.340     2720.987     7917.773     2434.461        1.085        0.654       66.321       47.780        0.519      338.019       10.386      863.394
10/21/2014  10:43:00       38.508      -49.572        9.573       34.331       62.904       37.359     1178.591     3956.891     1395.677        0.528        0.327       62.771       39.615        0.398      337.914       10.210      863.404
10/21/2014  10:44:00       54.069      -25.297       23.103       54.004       52.208       41.488     2916.384     2725.660     1721.280        0.573        0.368       59.695       45.474        0.580      338.248       10.770      863.409
10/21/2014  10:45:00      -12.648        4.480       28.663       23.679       19.398       19.747      560.715      376.286      389.940        0.116        0.066       13.418       12.974        0.935      338.498       11.191      863.403
10/21/2014  10:46:00       22.310      -20.703       28.404       41.486       52.589       28.118     1721.086     2765.603      790.624        0.350        0.264       30.436       34.606        1.293      338.605       11.369      863.354
10/21/2014  10:47:00       -4.796       -1.725       28.759       11.625       20.695       14.014      135.142      428.276      196.394        0.081        0.038        5.097       13.127        6.632      338.934       11.923      863.307
10/21/2014  10:48:00       -1.218      -16.666       24.643       15.582       26.658       15.153      242.789      710.634      229.625        0.103        0.059       16.711        8.731        0.273      339.171       12.323      863.252
10/21/2014  10:49:00        5.534       24.432       56.878       25.675       53.425       28.512      659.217     2854.253      812.960        0.409        0.216       25.051       33.254        1.762      338.825       11.739      863.230
10/21/2014  10:50:00       79.086       46.317       20.780       62.135       44.990       38.842     3860.765     2024.138     1508.689        0.811        0.370       91.651       22.224        0.059      338.182       10.659      863.215
10/21/2014  10:51:00      107.337       73.705       53.040       61.913       47.268       29.974     3833.187     2234.298      898.411        1.337        0.348      130.206       13.822        0.011      338.130       10.572      863.207
10/21/2014  10:52:00       69.578       58.525       24.477       33.048       42.735       53.940     1092.200     1826.245     2909.536        0.735        0.291       90.919       25.569        0.079      338.219       10.722      863.211
10/21/2014  10:53:00      -18.470        8.382       -3.120       45.153       34.748       24.318     2038.780     1207.447      591.345        0.213        0.192       20.283       15.175        0.560      338.489       11.175      863.207
10/21/2014  10:54:00        6.856       -6.543       42.699       31.741       45.643       31.173     1007.491     2083.313      971.752        0.299        0.203        9.477       28.995        9.361      338.637       11.426      863.214
10/21/2014  10:55:00       56.757       26.443       21.107       48.417       55.954       39.966     2344.194     3130.869     1597.264        0.572        0.354       62.615       22.702        0.131      338.449       11.108      863.208
10/21/2014  10:56:00       62.696       77.049      -23.060       32.403       51.685       30.371     1049.970     2671.315      922.403        0.752        0.232       99.335       25.644        0.067      337.865       10.127      863.224
10/21/2014  10:57:00       28.373       97.420      -23.794       59.929       50.085       20.801     3591.460     2508.500      432.661        0.870        0.327      101.468       19.391        0.037      337.753        9.941      863.214
10/21/2014  10:58:00       -4.085       18.616       14.947       13.716       37.310       19.219      188.139     1392.058      369.360        0.127        0.097       19.059       20.218        1.125      338.676       11.489      863.210
10/21/2014  10:59:00       56.046       20.261       18.480       48.921       31.322       27.992     2393.232      981.045      783.575        0.402        0.208       59.595       18.491        0.096      338.491       11.177      863.198
10/21/2014  11:00:00       -6.226       -9.605       13.144       28.585       39.704       35.624      817.104     1576.415     1269.075        0.198        0.183       11.447       22.415        3.835      338.814       11.722      863.199
10/21/2014  11:01:00       38.184       22.973       16.795       43.046       34.577       29.096     1852.931     1195.592      846.581        0.308        0.195       44.562       16.051        0.130      338.670       11.480      863.197
10/21/2014  11:02:00      100.797       76.536       17.090       41.349       45.035       41.267     1709.761     2028.175     1702.985        1.087        0.272      126.562       13.500        0.011      338.149       10.604      863.188
10/21/2014  11:03:00       68.134       36.840        5.578       27.239       32.788       33.818      741.952     1075.048     1143.629        0.450        0.148       77.456       17.187        0.049      338.095       10.514      863.182
10/21/2014  11:04:00       85.730       76.563       43.244       59.855       35.270       31.452     3582.680     1243.994      989.204        1.045        0.291      114.941       29.500        0.066      338.047       10.433      863.178
10/21/2014  11:05:00       54.195       55.703       30.375       41.475       48.220       47.289     1720.192     2325.124     2236.210        0.662        0.314       77.717       36.583        0.222      338.458       11.123      863.189
10/21/2014  11:06:00       85.432       85.896       -0.442       60.399       50.533       39.887     3647.995     2553.587     1590.956        1.123        0.390      121.148       29.712        0.060      338.413       11.048      863.202
10/21/2014  11:07:00       48.382       67.114        1.333       35.159       38.251       33.468     1236.137     1463.170     1120.074        0.533        0.191       82.735       22.053        0.071      338.499       11.192      863.197
10/21/2014  11:08:00       64.463       60.780       11.207       35.941       30.558       28.392     1291.740      933.776      806.119        0.550        0.152       88.598       19.156        0.047      338.523       11.233      863.173
10/21/2014  11:09:00        3.806       25.022       18.622       45.734       30.939       30.667     2091.630      957.251      940.449        0.249        0.199       25.310       17.194        0.462      338.918       11.897      863.137
10/21/2014  11:10:00       80.266       79.763      -11.348       45.528       33.770       31.659     2072.767     1140.392     1002.321        0.857        0.211      113.158       28.310        0.063      338.383       10.997      863.115
10/21/2014  11:11:00       64.069       64.293       23.401       41.563       35.496       45.594     1727.498     1259.951     2078.803        0.693        0.253       90.766       29.170        0.103      338.581       11.331      863.089
10/21/2014  11:12:00       17.519       15.529       47.729       28.984       42.371       31.543      840.084     1795.306      994.950        0.323        0.182       23.411       30.655        1.715      339.002       12.037      863.078
10/21/2014  11:13:00       45.730       25.059       31.165       47.545       59.026       35.151     2260.519     3484.112     1235.570        0.533        0.349       52.145       26.931        0.267      338.835       11.758      863.056
10/21/2014  11:14:00       70.551       57.874       69.347       59.985       61.470       63.564     3598.213     3778.545     4040.420        1.227        0.571       91.251       50.952        0.312      338.380       10.992      863.037
10/21/2014  11:15:00       96.755       67.268       22.240       52.230       52.313       39.837     2727.943     2736.684     1586.985        1.072        0.353      117.841       24.141        0.042      338.519       11.225      863.015
10/21/2014  11:16:00      109.028       78.917        8.622       39.118       32.573       31.356     1530.194     1061.007      983.223        1.088        0.179      134.592       11.839        0.008      338.255       10.782      862.996
10/21/2014  11:17:00       71.213       40.363        6.745       22.954       22.527       22.536      526.874      507.480      507.857        0.414        0.077       81.856       12.209        0.022      338.169       10.636      862.970
10/21/2014  11:18:00       28.403       34.210       11.168       26.127       21.847       21.856      682.640      477.282      477.670        0.187        0.082       44.464        5.967        0.018      338.685       11.505      862.944
10/21/2014  11:19:00       58.505       45.215       29.684       44.704       39.771       42.989     1998.424     1581.706     1848.086        0.589        0.271       73.940       33.452        0.205      338.826       11.742      862.923
10/21/2014  11:20:00       65.686       90.600       63.973       45.996       31.431       30.980     2115.662      987.894      959.740        1.034        0.203      111.906       26.552        0.056      338.670       11.480      862.907
10/21/2014  11:21:00       23.204       -5.116       50.058       38.040       67.116       26.661     1447.043     4504.512      710.806        0.487        0.333       23.761       22.999        0.937      339.114       12.226      862.903
10/21/2014  11:22:00       50.569      -50.485       23.749       63.958       57.984       53.272     4090.604     3362.147     2837.925        0.798        0.515       71.456       44.697        0.391      338.776       11.659      862.898
10/21/2014  11:23:00       41.228      -35.367       32.964       40.403       54.971       51.480     1632.367     3021.834     2650.228        0.567        0.365       54.319       45.773        0.710      338.916       11.893      862.893
10/21/2014  11:24:00       21.543      -74.817        2.245       40.306       47.229       36.447     1624.585     2230.568     1328.379        0.562        0.259       77.857       15.938        0.042      338.883       11.836      862.885
10/21/2014  11:25:00       60.260       -8.830       46.249       72.327      101.574       71.021     5231.144    10317.288     5043.942        1.322        1.030       60.903       75.904        1.553      339.072       12.155      862.874
10/21/2014  11:26:00       34.588       31.733       81.557       47.387       33.771       30.389     2245.567     1140.460      923.511        0.658        0.215       46.940       21.985        0.219      338.849       11.779      862.861
10/21/2014  11:27:00       67.628       51.174       38.170       60.654       44.283       41.691     3678.888     1960.990     1738.141        0.801        0.369       84.807       36.571        0.186      339.022       12.072      862.838
10/21/2014  11:28:00        7.016       73.190       91.446       39.947       42.072       37.456     1595.731     1770.070     1402.933        0.927        0.238       73.526       29.332        0.159      339.423       12.747      862.818
10/21/2014  11:29:00      210.042       92.290       20.614       99.372       68.752       67.767     9874.802     4726.906     4592.423        3.612        0.960      229.423       38.451        0.028      338.332       10.907      862.804
10/21/2014  11:30:00      159.277       86.574        1.906       81.761       46.813       47.573     6684.874     2191.498     2263.179        2.200        0.557      181.285       17.920        0.010      338.430       11.074      862.789
10/21/2014  11:31:00      214.986      112.581       18.107       77.944       53.395       48.400     6075.235     2850.981     2342.546        3.524        0.563      242.679       26.996        0.012      338.459       11.121      862.782
10/21/2014  11:32:00       82.577       87.637        9.903       61.565       44.163       43.762     3790.193     1950.365     1915.146        1.113        0.383      120.413       24.912        0.043      338.620       11.395      862.777
10/21/2014  11:33:00       99.295       95.731       54.287       78.182       62.789       74.337     6112.427     3942.416     5526.001        1.877        0.779      137.927       67.093        0.237      338.747       11.609      862.771
10/21/2014  11:34:00       41.728       90.565       94.131       46.255       52.616       46.149     2139.501     2768.475     2129.699        1.292        0.352       99.716       32.264        0.105      338.876       11.826      862.769
10/21/2014  11:35:00      162.683      106.688       22.300       65.924       51.399       58.442     4346.014     2641.818     3415.490        2.437        0.520      194.546       46.402        0.057      338.541       11.260      862.762
10/21/2014  11:36:00      134.941      106.071        8.765       58.064       48.256       39.514     3371.407     2328.594     1561.351        1.840        0.363      171.640       29.619        0.030      338.529       11.242      862.759
10/21/2014  11:37:00       37.143      117.358      135.283       84.132       61.035       54.065     7078.269     3725.330     2923.037        2.359        0.686      123.096       53.188        0.187      338.710       11.544      862.748
10/21/2014  11:38:00      132.924       64.054       31.526       75.969       57.555       45.764     5771.236     3312.578     2094.370        1.697        0.559      147.552       36.972        0.063      338.518       11.224      862.758
10/21/2014  11:39:00      117.258       89.077       38.250       63.585       38.444       28.535     4043.113     1477.912      814.220        1.474        0.317      147.255       19.702        0.018      338.403       11.032      862.770
10/21/2014  11:40:00        4.624       15.148       40.218       30.187       42.765       37.264      911.278     1828.843     1388.615        0.300        0.206       15.838       29.549        3.481      339.141       12.271      862.768
10/21/2014  11:41:00       27.249       57.641       79.748       36.599       40.411       28.609     1339.462     1633.055      818.480        0.711        0.190       63.757       24.627        0.149      338.788       11.679      862.760
10/21/2014  11:42:00       19.239      -56.034       22.150       26.724       48.822       36.224      714.187     2383.601     1312.176        0.420        0.220       59.245       24.640        0.173      338.754       11.619      862.750
10/21/2014  11:43:00       33.910       -5.724        6.434       41.590       44.003       30.434     1729.759     1936.262      926.226        0.291        0.230       34.390       20.171        0.344      338.739       11.595      862.728
10/21/2014  11:44:00       11.556       30.543       46.238       25.827       26.372       18.758      667.036      695.460      351.876        0.246        0.086       32.656       16.708        0.262      339.099       12.202      862.712
10/21/2014  11:45:00        4.504        6.713       42.790       27.954       35.029       25.722      781.411     1227.054      661.645        0.228        0.134        8.084       22.640        7.844      339.481       12.845      862.702
10/21/2014  11:46:00        7.658       28.599       42.814       26.164       28.104       33.978      684.565      789.815     1154.471        0.267        0.131       29.606       21.741        0.539      339.269       12.487      862.693
10/21/2014  11:47:00        8.612       14.197       32.006       25.095       20.768       23.166      629.751      431.319      536.645        0.145        0.080       16.605       14.240        0.735      339.300       12.541      862.670
10/21/2014  11:48:00      121.462       59.129       33.849       83.622       55.749       38.474     6992.558     3107.972     1480.271        1.549        0.579      135.090       23.405        0.030      338.967       11.978      862.648
10/21/2014  11:49:00       83.190       44.576       35.138       45.582       49.198       37.363     2077.727     2420.484     1395.976        0.802        0.295       94.380       21.484        0.052      338.680       11.496      862.628
10/21/2014  11:50:00       68.906        8.062       30.006       66.607       91.822       41.762     4436.503     8431.206     1744.049        1.016        0.731       69.376       25.034        0.130      339.050       12.118      862.582
10/21/2014  11:51:00      111.428       70.953       76.024       86.569       54.645       55.276     7494.108     2986.056     3055.417        1.838        0.677      132.101       49.144        0.138      339.096       12.194      862.549
10/21/2014  11:52:00       82.741      102.102       74.293       49.808       44.672       53.887     2480.880     1995.618     2903.762        1.508        0.369      131.419       42.063        0.102      338.598       11.359      862.544
10/21/2014  11:53:00       25.708       70.278       -3.533       23.136       27.501       29.731      535.280      756.283      883.930        0.389        0.109       74.832       21.109        0.080      338.673       11.485      862.515
10/21/2014  11:54:00        4.025       79.564       -9.129       17.904       34.762       25.704      320.542     1208.415      660.720        0.431        0.109       79.666       24.634        0.096      338.656       11.457      862.500
10/21/2014  11:55:00       57.214       50.033        9.653       22.542       23.924       22.287      508.155      572.336      496.709        0.372        0.079       76.005       13.533        0.032      338.783       11.668      862.500
10/21/2014  11:56:00       31.670      -32.085       15.399       49.375       68.335       38.597     2437.863     4669.664     1489.736        0.543        0.430       45.082       30.804        0.467      339.179       12.335      862.500
10/21/2014  11:57:00       48.189       17.143       25.243       50.969       96.322       40.547     2597.826     9277.931     1644.055        0.838        0.676       51.147       40.336        0.622      339.186       12.347      862.505
10/21/2014  11:58:00       63.755       48.934       10.846       50.569       35.700       25.464     2557.244     1274.482      648.398        0.553        0.224       80.369       12.462        0.024      338.894       11.856      862.509
10/21/2014  11:59:00       68.569       75.565       21.801       47.587       46.750       39.725     2264.544     2185.541     1578.109        0.846        0.301      102.038       16.390        0.026      339.317       12.570      862.511
10/21/2014  12:00:00       -3.290        5.455      -19.524       46.255       73.190       27.120     2139.532     5356.803      735.502        0.433        0.412        6.370        9.436        2.194      338.876       11.825      862.534
10/21/2014  12:01:00       68.621      -57.902        7.694       52.039       81.468       46.486     2708.045     6637.092     2160.937        0.981        0.575       89.786       53.875        0.360      339.042       12.105      862.531
10/21/2014  12:02:00       70.205      -36.940       29.542       61.503       76.977       58.225     3782.677     5925.459     3390.166        1.013        0.655       79.330       52.289        0.434      339.068       12.151      862.530
10/21/2014  12:03:00       57.045       12.686       53.845       48.213       54.579       34.799     2324.481     2978.868     1210.949        0.641        0.326       58.439       31.584        0.292      339.185       12.345      862.536
10/21/2014  12:04:00       88.757      -77.526       -7.923       57.461       79.082       40.571     3301.734     6253.911     1645.984        1.257        0.560      117.848       34.850        0.087      339.228       12.417      862.511
10/21/2014  12:05:00       77.211      -37.047       33.930       69.342       93.251       54.028     4808.375     8695.738     2919.006        1.245        0.821       85.639       59.552        0.484      339.359       12.637      862.505
10/21/2014  12:06:00       58.942      -46.640       26.212       46.198       85.040       55.488     2134.292     7231.795     3078.931        0.939        0.622       75.163       47.896        0.406      339.449       12.789      862.501
10/21/2014  12:07:00       58.994       46.126       54.884       65.067       54.851       42.931     4233.706     3008.586     1843.099        0.885        0.454       74.886       33.925        0.205      339.523       12.916      862.489
10/21/2014  12:08:00       65.529       49.461       66.776       74.069       82.528       49.154     5486.254     6810.827     2416.140        1.295        0.736       82.100       49.084        0.357      339.630       13.095      862.476
10/21/2014  12:09:00       37.228       10.918       68.868       65.131       86.026       63.148     4242.077     7400.476     3987.686        1.094        0.782       38.796       66.076        2.901      339.696       13.208      862.452
10/21/2014  12:10:00       66.651       45.670       75.256       77.384       80.824       53.517     5988.351     6532.573     2864.071        1.379        0.769       80.796       62.027        0.589      339.372       12.659      862.421
10/21/2014  12:11:00       58.295      -22.865       23.559       55.463       73.739       51.816     3076.144     5437.489     2684.874        0.784        0.560       62.619       53.631        0.734      339.292       12.525      862.409
10/21/2014  12:12:00      101.388       28.097       42.140       56.447       80.399       53.214     3186.211     6464.055     2831.709        1.266        0.624      105.209       52.484        0.249      338.905       11.874      862.412
10/21/2014  12:13:00       79.756       77.535       49.093       43.404       35.884       39.036     1883.892     1287.692     1523.794        0.974        0.235      111.233       22.766        0.042      339.111       12.221      862.407
10/21/2014  12:14:00       25.487       46.075       50.835       35.034       35.682       25.102     1227.373     1273.201      630.102        0.424        0.157       52.654       21.341        0.164      339.541       12.945      862.417
10/21/2014  12:15:00       25.811      -14.244       12.268       32.100       63.116       37.154     1030.415     3983.681     1380.394        0.371        0.320       29.481       33.054        1.257      339.608       13.059      862.420
10/21/2014  12:16:00      -29.082       -7.593      -11.978       28.628       27.818       19.862      819.566      773.820      394.496        0.152        0.099       30.056        9.042        0.091      339.178       12.334      862.413
10/21/2014  12:17:00        9.685        6.323       22.997       79.145       77.813       34.052     6263.916     6054.894     1159.543        0.707        0.674       11.566       30.615        7.006      339.322       12.575      862.384
10/21/2014  12:18:00      121.768       80.712       37.739       66.911       40.492       42.818     4477.089     1639.565     1833.416        1.536        0.398      146.088       25.072        0.029      339.438       12.772      862.387
10/21/2014  12:19:00       81.777       71.084       14.312       62.016       68.382       49.333     3845.998     4676.035     2433.728        1.145        0.548      108.353       33.310        0.095      339.471       12.826      862.391
10/21/2014  12:20:00      126.084       95.243       11.636       68.703       51.318       48.831     4720.119     2633.521     2384.511        1.742        0.487      158.014       25.148        0.025      339.277       12.499      862.392
10/21/2014  12:21:00      136.162      111.305        5.742       59.148       37.427       38.862     3498.534     1400.815     1510.272        1.868        0.320      175.866       21.913        0.016      339.127       12.246      862.400
10/21/2014  12:22:00       75.228       66.537        1.798       62.487       45.400       33.484     3904.618     2061.146     1121.185        0.859        0.354      100.431       29.526        0.086      339.210       12.386      862.399
10/21/2014  12:23:00       60.686       62.433       -6.267       53.315       45.280       28.477     2842.469     2050.241      810.951        0.666        0.285       87.067       20.077        0.053      339.179       12.336      862.403
10/21/2014  12:24:00       -1.463       21.922       12.288       26.315       33.172       30.443      692.462     1100.349      926.790        0.168        0.136       21.971       26.239        1.426      339.641       13.114      862.409
10/21/2014  12:25:00        3.200       96.417        4.429       51.979       81.828       29.688     2701.821     6695.774      881.363        0.980        0.514       96.470       33.894        0.123      339.510       12.894      862.417
10/21/2014  12:26:00       52.893       76.531       -2.910       55.849       54.524       29.511     3119.068     2972.919      870.883        0.781        0.348       93.030       27.007        0.084      339.516       12.903      862.413
10/21/2014  12:27:00       61.310       96.900        4.740       61.685       66.599       51.664     3805.014     4435.472     2669.133        1.204        0.545      114.667       47.142        0.169      339.453       12.797      862.411
10/21/2014  12:28:00       14.450       77.498        5.003       42.782       59.272       38.561     1830.258     3513.160     1486.957        0.653        0.342       78.834       31.732        0.162      339.478       12.840      862.411
10/21/2014  12:29:00       99.895       74.646       12.603       32.829       32.650       36.518     1077.775     1065.998     1333.548        0.959        0.174      124.704       17.719        0.020      339.269       12.486      862.387
10/21/2014  12:30:00      132.869       68.037       18.842       42.515       39.602       43.104     1807.521     1568.350     1857.924        1.394        0.262      149.275       23.291        0.024      339.358       12.636      862.382
10/21/2014  12:31:00       90.622       72.537        0.137       22.413       18.461       27.168      502.349      340.815      738.076        0.753        0.079      116.077       12.647        0.012      339.088       12.182      862.374
10/21/2014  12:32:00       51.313       44.598       -7.325       26.421       34.395       25.316      698.058     1183.033      640.884        0.360        0.126       67.985       12.256        0.033      339.135       12.259      862.360
10/21/2014  12:33:00       57.633      -14.033       -4.240       45.744       77.662       32.009     2092.474     6031.430     1024.568        0.634        0.457       59.317       31.540        0.283      339.029       12.084      862.334
10/21/2014  12:34:00      150.707       96.107        1.475       29.210       31.202       25.618      853.226      973.534      656.263        1.722        0.124      178.744       11.072        0.004      338.968       11.981      862.320
10/21/2014  12:35:00      128.847       61.803        7.882       32.631       36.055       25.828     1064.750     1299.952      667.111        1.176        0.152      142.903       16.007        0.013      339.146       12.280      862.300
10/21/2014  12:36:00      100.017       77.142       16.381       28.553       30.673       30.694      815.271      940.858      942.147        0.946        0.135      126.310       14.788        0.014      339.233       12.426      862.256
10/21/2014  12:37:00       60.659       59.076        3.964       44.564       46.737       29.273     1985.911     2184.350      856.895        0.611        0.251       84.673       19.587        0.054      339.329       12.589      862.234
10/21/2014  12:38:00       30.655       72.646      -27.997       24.112       53.613       13.976      581.389     2874.404      195.318        0.533        0.183       78.849       16.973        0.046      339.287       12.518      862.215
10/21/2014  12:39:00       -9.405       -7.556       -8.770       30.117       23.734       24.551      907.063      563.320      602.737        0.115        0.104       12.064       18.617        2.381      339.681       13.181      862.179
10/21/2014  12:40:00       64.719       68.841       41.907       54.673       37.000       36.336     2989.147     1368.971     1320.319        0.818        0.284       94.487       25.633        0.074      339.606       13.054      862.174
10/21/2014  12:41:00       60.236       95.118       -5.667       36.874       55.362       41.249     1359.686     3064.951     1701.492        0.942        0.306      112.587       27.196        0.058      339.599       13.042      862.171
10/21/2014  12:42:00        6.550      105.666       -5.209       28.928       56.994       22.812      836.828     3248.314      520.405        0.792        0.230      105.869       22.706        0.046      339.523       12.916      862.160
10/21/2014  12:43:00        2.593       23.315       19.690       33.906       33.292       31.222     1149.633     1108.338      974.807        0.208        0.162       23.458       25.059        1.141      340.003       13.724      862.144
10/21/2014  12:44:00       30.305       32.411       -6.742       23.494       19.495       14.460      551.972      380.039      209.097        0.158        0.057       44.372        6.803        0.024      339.810       13.399      862.108
10/21/2014  12:45:00       64.365       38.984        0.711       47.038       30.805       29.199     2212.612      948.947      852.593        0.484        0.201       75.250       18.477        0.060      339.853       13.472      862.072
10/21/2014  12:46:00       20.398       38.963        0.088       47.435       51.883       32.838     2250.099     2691.805     1078.325        0.398        0.301       43.979       16.074        0.134      339.745       13.290      862.060
10/21/2014  12:47:00      -34.751      150.972      -14.461       20.985       35.902       23.440      440.350     1288.958      549.416        1.324        0.114      154.920       17.984        0.013      339.350       12.623      862.058
10/21/2014  12:48:00      -11.373       68.589       -3.251       19.995       42.853       17.217      399.793     1836.414      296.410        0.369        0.127       69.525       14.032        0.041      339.725       13.255      862.052
10/21/2014  12:49:00      -70.909      -16.440      -20.354       53.629       32.319       37.409     2876.108     1044.487     1399.412        0.552        0.266       72.790       38.352        0.278      339.514       12.901      862.044
10/21/2014  12:50:00     -113.684       84.119      -33.504       28.305       44.038       26.570      801.162     1939.351      705.977        1.228        0.172      141.421       20.622        0.021      339.415       12.732      862.041
10/21/2014  12:51:00      -45.107      -18.074      -21.562       29.957       18.760       11.339      897.444      351.950      128.581        0.210        0.069       48.593       11.175        0.053      339.386       12.685      862.046
10/21/2014  12:52:00        4.738       -6.055       -3.980       12.422       23.737       15.324      154.316      563.425      234.837        0.051        0.048        7.688        9.302        1.464      339.673       13.168      862.027
10/21/2014  12:53:00       43.820      110.710       -0.808       40.545       47.403       35.855     1643.886     2247.064     1285.610        0.968        0.259      119.066       30.423        0.065      339.777       13.342      862.008
10/21/2014  12:54:00       -1.955       96.102        1.147       22.223       55.240       28.339      493.860     3051.405      803.097        0.679        0.217       96.122       25.573        0.071      339.823       13.422      862.018
10/21/2014  12:55:00        5.235       42.249       19.453       35.506       52.071       32.358     1260.688     2711.407     1047.039        0.360        0.251       42.572       30.032        0.498      340.080       13.854      862.009
10/21/2014  12:56:00       54.419        9.706        5.026       27.439       32.378       32.193      752.912     1048.350     1036.416        0.296        0.142       55.278       22.404        0.164      339.639       13.112      861.991
10/21/2014  12:57:00       50.059      -98.133      -12.036       35.206       69.866       35.306     1239.493     4881.215     1246.533        0.982        0.368      110.163       29.642        0.072      339.561       12.979      861.961
10/21/2014  12:58:00       11.409      -14.617       18.359       21.108       37.412       19.576      445.557     1399.680      383.239        0.145        0.111       18.542       13.084        0.498      340.168       14.004      861.925
10/21/2014  12:59:00       71.023       76.928        0.896       49.449       40.333       31.988     2445.222     1626.737     1023.253        0.803        0.255      104.700       27.097        0.067      339.831       13.433      861.916
10/21/2014  13:00:00       30.636      126.838       -5.830       43.147       91.766       45.968     1861.661     8421.030     2113.038        1.473        0.620      130.485       48.069        0.136      339.959       13.648      861.903
10/21/2014  13:01:00       63.521       45.807        7.849       55.919       42.395       30.787     3126.895     1797.349      947.870        0.603        0.294       78.315       26.866        0.118      339.867       13.495      861.875
10/21/2014  13:02:00      -12.527       38.193       15.389       34.827       52.268       31.450     1212.929     2731.903      989.072        0.339        0.247       40.195       32.924        0.671      340.324       14.268      861.868
10/21/2014  13:03:00     -139.718      -27.144       -6.313       57.616       61.122       31.030     3319.580     3735.866      962.882        1.416        0.401      142.330       22.517        0.025      339.814       13.406      861.844
10/21/2014  13:04:00     -157.019      -49.822      -23.467       46.623       58.871       35.197     2173.704     3465.799     1238.838        1.728        0.344      164.734       17.621        0.011      339.713       13.235      861.827
10/21/2014  13:05:00      -53.567       33.157      -25.954       55.448       73.469       25.811     3074.477     5397.734      666.190        0.689        0.457       62.999       20.048        0.101      339.752       13.301      861.812
10/21/2014  13:06:00        9.671      -23.116       12.820       51.868       34.460       27.893     2690.307     1187.508      778.036        0.272        0.233       25.058       24.845        0.983      340.208       14.069      861.781
10/21/2014  13:07:00      -87.235       43.935       -9.837       67.800       87.696       31.836     4596.784     7690.525     1013.507        1.147        0.665       97.674       35.322        0.131      340.000       13.719      861.764
10/21/2014  13:08:00      -34.305       89.600       -1.336       39.683       51.266       32.507     1574.729     2628.191     1056.725        0.723        0.263       95.943       35.797        0.139      340.155       13.981      861.748
10/21/2014  13:09:00       91.721      107.022       -8.234       47.173       38.639       39.963     2225.332     1492.965     1597.041        1.262        0.266      140.948       30.122        0.046      339.867       13.494      861.739
10/21/2014  13:10:00       59.957       31.288       11.587       32.059       26.473       30.487     1027.790      700.833      929.458        0.368        0.133       67.630       14.450        0.046      339.841       13.451      861.728
10/21/2014  13:11:00       -1.868       19.973       18.365       29.954       30.674       18.926      897.215      940.923      358.195        0.147        0.110       20.060       13.596        0.459      340.426       14.438      861.717
10/21/2014  13:12:00      -13.793        7.814        4.023       62.340       26.539       23.288     3886.294      704.314      542.316        0.270        0.257       15.852       22.516        2.017      340.374       14.350      861.705
10/21/2014  13:13:00      -81.690       67.882      -13.300       75.589       41.448       30.112     5713.750     1717.913      906.730        0.990        0.417      106.213       27.444        0.067      340.204       14.062      861.679
10/21/2014  13:14:00     -105.212       25.574      -18.993       66.058       48.818       32.625     4363.611     2383.223     1064.387        0.995        0.391      108.276       35.932        0.110      340.259       14.157      861.645
10/21/2014  13:15:00      -50.743       15.422        6.790       62.072       43.887       32.524     3852.873     1926.081     1057.813        0.485        0.342       53.035       37.844        0.509      340.440       14.461      861.619
10/21/2014  13:16:00     -108.568      -57.316        7.989       77.184       56.223       37.068     5957.304     3160.981     1374.062        1.281        0.525      122.769       32.211        0.069      340.170       14.006      861.589
10/21/2014  13:17:00     -122.813      -21.634      -20.125       58.528       51.216       24.826     3425.512     2623.075      616.331        1.131        0.333      124.703       14.938        0.014      339.967       13.663      861.579
10/21/2014  13:18:00     -121.269      -42.713        7.061       93.866       76.537       44.674     8810.812     5857.849     1995.730        1.662        0.833      128.571       49.108        0.146      340.277       14.185      861.569
10/21/2014  13:19:00      -46.418      -13.033       -1.818       44.929       38.129       28.993     2018.644     1453.853      840.566        0.332        0.216       48.213       24.199        0.252      340.366       14.336      861.560
10/21/2014  13:20:00      -53.159       52.010       -4.221       49.137       55.374       26.015     2414.484     3066.309      676.800        0.585        0.308       74.370       26.938        0.131      340.366       14.338      861.553
10/21/2014  13:21:00      -93.991       55.645        1.683       58.353       37.301       34.598     3405.051     1391.341     1197.040        0.896        0.300      109.227       33.378        0.093      340.199       14.056      861.528
10/21/2014  13:22:00      -45.272       16.295       13.799       49.053       30.904       25.955     2406.171      955.057      673.654        0.327        0.202       48.115       21.107        0.192      340.674       14.857      861.526
10/21/2014  13:23:00      -60.673      -61.547        7.147       74.310       65.401       35.928     5522.027     4277.331     1290.802        0.930        0.555       86.425       33.884        0.154      340.325       14.267      861.515
10/21/2014  13:24:00      -42.060       42.356        7.848       34.821       51.550       30.383     1212.535     2657.359      923.156        0.421        0.240       59.692       30.610        0.263      340.662       14.838      861.502
10/21/2014  13:25:00      -52.029       94.715        4.938       49.087       62.049       36.558     2409.522     3850.045     1336.474        0.965        0.380      108.065       20.522        0.036      340.679       14.866      861.502
10/21/2014  13:26:00     -112.849      -25.925      -13.719       48.801       68.498       28.681     2381.582     4691.971      822.614        1.074        0.395      115.788       26.151        0.051      340.117       13.917      861.482
10/21/2014  13:27:00      -87.850     -110.463        2.475       65.042       46.955       37.827     4230.415     2204.753     1430.887        1.389        0.393      141.137       38.421        0.074      340.102       13.891      861.459
10/21/2014  13:28:00     -196.295      -54.374      -22.773       69.954       56.707       33.394     4893.593     3215.727     1115.134        2.561        0.461      203.686       32.081        0.025      339.981       13.685      861.452
10/21/2014  13:29:00      -92.721        9.529       10.603       72.046       74.953       46.616     5190.578     5617.879     2173.016        1.089        0.649       93.209       36.438        0.153      340.555       14.657      861.446
10/21/2014  13:30:00      -13.162      106.891        4.493       27.541       51.841       37.048      758.486     2687.438     1372.559        0.822        0.241      107.698       34.169        0.101      340.598       14.730      861.443
10/21/2014  13:31:00       11.429       54.262       -5.456       36.248       18.496       30.229     1313.932      342.090      913.768        0.284        0.128       55.452       18.821        0.115      340.345       14.301      861.433
10/21/2014  13:32:00     -107.028       78.780      -30.425       45.512       66.672       25.852     2071.379     4445.174      668.320        1.288        0.359      132.895       18.289        0.019      340.169       14.004      861.419
10/21/2014  13:33:00      -62.920       84.581      -10.280       50.142       38.526       33.706     2514.214     1484.286     1136.125        0.818        0.257      105.418       36.484        0.120      340.416       14.422      861.417
10/21/2014  13:34:00      -52.387       22.740       -4.627       46.713       38.429       28.947     2182.075     1476.786      837.925        0.389        0.225       57.110       34.811        0.372      340.375       14.354      861.408
10/21/2014  13:35:00      -38.844       12.339       19.085       36.736       21.058       19.607     1349.520      443.451      384.434        0.210        0.109       40.757       22.793        0.313      340.577       14.694      861.379
10/21/2014  13:36:00      -50.558       -2.775       11.216       22.007       12.487       14.225      484.303      155.922      202.338        0.177        0.042       50.634        9.355        0.034      340.402       14.396      861.357
10/21/2014  13:37:00      -18.089       -3.260       19.980       37.574       32.202       21.322     1411.804     1036.946      454.643        0.182        0.145       18.380       25.766        1.965      340.940       15.307      861.342
10/21/2014  13:38:00      -16.172      -16.804        0.043       32.921       39.080       19.653     1083.778     1527.209      386.253        0.177        0.150       23.322        8.643        0.137      340.295       14.218      861.315
10/21/2014  13:39:00      -34.078      -16.416        7.686       52.647       37.728       22.970     2771.699     1423.399      527.642        0.311        0.236       37.826       27.332        0.522      340.666       14.845      861.267
10/21/2014  13:40:00      -72.654       24.144        6.341       34.274       28.476       19.562     1174.723      810.897      382.683        0.413        0.118       76.560       15.451        0.041      340.214       14.081      861.243
10/21/2014  13:41:00      -13.966       19.572       26.396       28.765       15.678       16.133      827.400      245.785      260.280        0.130        0.067       24.044        9.941        0.171      341.054       15.500      861.233
10/21/2014  13:42:00      -33.296      121.085        1.243       44.574       56.189       35.054     1986.856     3157.168     1228.816        1.107        0.319      125.579       28.941        0.053      340.570       14.682      861.234
10/21/2014  13:43:00       18.845       79.121        0.237       54.883       58.291       38.825     3012.150     3397.841     1507.402        0.727        0.396       81.334       33.433        0.169      340.560       14.667      861.225
10/21/2014  13:44:00        1.424       56.386       26.203       35.424       62.854       36.123     1254.886     3950.642     1304.867        0.519        0.326       56.404       32.775        0.338      340.836       15.132      861.224
10/21/2014  13:45:00      -14.342       63.269       -2.756       35.189       35.501       28.186     1238.295     1260.308      794.432        0.375        0.165       64.874       26.205        0.163      340.587       14.710      861.212
10/21/2014  13:46:00       24.128       21.390       19.151       31.390       30.272       24.057      985.346      916.389      578.756        0.194        0.124       32.244       20.908        0.420      340.968       15.354      861.174
10/21/2014  13:47:00       44.122      -23.584       -1.458       21.547       21.080       23.682      464.274      444.358      560.844        0.199        0.073       50.030        8.626        0.030      340.304       14.232      861.147
10/21/2014  13:48:00        0.699      -29.216       18.845       21.896       38.165       30.641      479.449     1456.550      938.871        0.204        0.144       29.224       29.613        1.027      340.821       15.107      861.128
10/21/2014  13:49:00      -35.240       18.405        3.424       23.256       28.984       20.266      540.846      840.066      410.702        0.169        0.090       39.757       16.131        0.165      340.811       15.090      861.119
10/21/2014  13:50:00       63.233       39.812       23.466       63.574       45.840       32.281     4041.698     2101.330     1042.076        0.666        0.359       74.722       18.234        0.060      340.734       14.958      861.116
10/21/2014  13:51:00       87.859       78.712       55.907       64.190       55.760       59.490     4120.304     3109.141     3539.010        1.390        0.538      117.961       42.341        0.129      340.503       14.569      861.098
10/21/2014  13:52:00       94.118       64.753       64.515       81.395       49.722       50.905     6625.080     2472.249     2591.304        1.445        0.584      114.242       44.684        0.153      340.402       14.397      861.077
10/21/2014  13:53:00      105.526       82.311       52.872      100.387       62.001       45.753    10077.621     3844.137     2093.349        1.836        0.801      133.832       40.505        0.092      340.464       14.502      861.052
10/21/2014  13:54:00      124.378       50.969       16.817       41.847       61.300       32.481     1751.199     3757.749     1054.987        1.246        0.328      134.416       21.345        0.025      340.301       14.227      861.044
10/21/2014  13:55:00       78.620       73.772       13.178       29.432       37.622       35.531      866.268     1415.383     1262.475        0.767        0.177      107.812       27.190        0.064      340.241       14.125      861.022
10/21/2014  13:56:00       27.165      -77.913       -1.403       29.752       23.671       22.175      885.173      560.320      491.714        0.437        0.097       82.513       14.632        0.031      340.318       14.256      860.992
10/21/2014  13:57:00        9.367        9.073       18.878       23.741       30.446       28.408      563.613      926.939      806.989        0.141        0.115       13.040       13.751        1.112      340.756       14.997      860.948
10/21/2014  13:58:00       -9.107      -10.649       11.858       42.963       16.152       19.304     1845.811      260.902      372.640        0.141        0.124       14.012       18.698        1.781      340.943       15.313      860.924
10/21/2014  13:59:00       17.934       -7.685        8.645       21.992       17.638       18.884      483.654      311.095      356.605        0.080        0.058       19.511       14.068        0.520      340.667       14.845      860.931
10/21/2014  14:00:00       25.515      -28.284       22.458       25.044       25.878       30.927      627.212      669.662      956.478        0.210        0.113       38.092       17.324        0.207      340.904       15.247      860.939
10/21/2014  14:01:00       -6.270       -4.912       -9.144       30.557       16.905       16.570      933.754      285.768      274.564        0.082        0.075        7.965        8.423        1.118      340.565       14.672      860.934
10/21/2014  14:02:00      -16.174      -28.993       -4.967       27.483       44.916       32.188      755.340     2017.479     1036.061        0.247        0.190       33.199       30.134        0.824      341.080       15.546      860.925
10/21/2014  14:03:00       -3.163       -8.377       15.459       19.584       36.362       20.922      383.522     1322.204      437.750        0.123        0.107        8.954       12.539        1.961      340.989       15.390      860.910
10/21/2014  14:04:00      -24.803      -31.042       12.606       47.406       44.485       30.440     2247.309     1978.959      926.617        0.344        0.258       39.734       31.234        0.618      341.297       15.913      860.902
10/21/2014  14:05:00       -5.966       10.191       28.054       15.643       31.427       13.415      244.695      987.639      179.974        0.117        0.071       11.809        8.589        0.529      341.642       16.497      860.891
10/21/2014  14:06:00        0.842       37.031        7.372       17.029       30.924       22.107      289.989      956.306      488.707        0.158        0.087       37.041       19.835        0.287      341.088       15.559      860.915
10/21/2014  14:07:00       67.359       81.946       -9.662       47.571       39.197       34.066     2262.954     1536.389     1160.516        0.815        0.248      106.077       28.958        0.075      340.740       14.969      860.935
10/21/2014  14:08:00       39.871        3.091      -12.723       28.794       63.987       27.071      829.082     4094.364      732.822        0.371        0.283       39.991       11.524        0.083      340.661       14.835      860.956
10/21/2014  14:09:00       48.560      -12.800       20.584       65.567       44.488       32.818     4299.011     1979.175     1077.014        0.515        0.368       50.219       22.720        0.205      341.031       15.463      860.963
10/21/2014  14:10:00       51.630       -3.877       12.469       71.186       63.841       34.567     5067.502     4075.708     1194.900        0.659        0.517       51.775       17.807        0.118      341.085       15.553      860.963
10/21/2014  14:11:00        0.019       30.988        7.197       27.527       28.902       23.223      757.742      835.348      539.311        0.157        0.107       30.988       12.815        0.171      341.214       15.771      860.970
10/21/2014  14:12:00      -18.961       69.529        5.083       32.949       39.663       29.638     1085.616     1573.139      878.391        0.438        0.177       72.068       26.860        0.139      341.108       15.591      860.973
10/21/2014  14:13:00        0.502       32.473       17.832       54.838       33.194       25.877     3007.193     1101.813      669.626        0.307        0.239       32.477       30.640        0.890      341.142       15.648      860.969
10/21/2014  14:14:00        4.611       91.685       10.535       33.134       40.266       28.596     1097.884     1621.343      817.737        0.604        0.177       91.800       27.921        0.093      340.996       15.402      860.951
10/21/2014  14:15:00       63.297       47.686       22.398       47.355       42.782       39.644     2242.506     1830.300     1571.638        0.621        0.282       79.249       25.917        0.107      340.852       15.158      860.934
10/21/2014  14:16:00       50.067       11.277       -1.620       63.877       43.264       29.013     4080.330     1871.752      841.741        0.471        0.340       51.321       33.070        0.415      341.057       15.506      860.927
10/21/2014  14:17:00       33.396       45.885        2.224       40.232       27.836       32.846     1618.613      774.842     1078.830        0.335        0.174       56.751       23.511        0.172      340.903       15.244      860.915
10/21/2014  14:18:00       84.539       49.768       15.107       53.847       30.705       31.148     2899.513      942.793      970.195        0.733        0.241       98.101       16.406        0.028      340.914       15.263      860.878
10/21/2014  14:19:00      107.709       51.888       25.837       76.000       54.131       48.005     5775.984     2930.215     2304.465        1.298        0.551      119.556       18.623        0.024      341.000       15.408      860.832
10/21/2014  14:20:00      118.189       65.923       29.535       86.619       62.583       58.311     7502.844     3916.644     3400.117        1.700        0.741      135.331       36.194        0.072      340.781       15.038      860.807
10/21/2014  14:21:00       33.392      108.112       -6.277       44.660       78.848       46.270     1994.504     6216.955     2140.899        1.160        0.518      113.151       49.088        0.188      340.772       15.023      860.783
10/21/2014  14:22:00      -13.760       76.903       -7.856       34.362       38.363       24.705     1180.729     1471.703      610.333        0.471        0.163       78.125       22.763        0.085      340.898       15.236      860.751
10/21/2014  14:23:00       55.146       24.152       17.697       33.182       24.467       22.904     1101.068      598.612      524.607        0.308        0.111       60.203        9.166        0.023      341.057       15.505      860.728
10/21/2014  14:24:00        1.408      -22.090       -6.640       22.186       21.089       26.161      492.197      444.739      684.423        0.108        0.081       22.135       15.212        0.472      341.202       15.750      860.723
10/21/2014  14:25:00       13.695       35.041        8.222       30.069       32.853       20.923      904.154     1079.288      437.778        0.195        0.121       37.622       19.972        0.282      341.267       15.860      860.734
10/21/2014  14:26:00       10.351       44.742       11.799       42.958       56.276       27.154     1845.419     3167.009      737.348        0.400        0.287       45.924       29.638        0.417      341.245       15.824      860.742
10/21/2014  14:27:00      103.293       51.958       24.554       68.442       53.882       41.483     4684.343     2903.241     1720.798        1.164        0.465      115.624       28.059        0.059      341.134       15.635      860.720
10/21/2014  14:28:00      179.061       99.717       31.013       52.464       40.942       44.626     2752.442     1676.259     1991.479        2.469        0.321      204.955       29.250        0.020      340.797       15.063      860.716
10/21/2014  14:29:00       36.165       33.850       11.047       46.680       80.655       41.368     2178.981     6505.279     1711.290        0.648        0.520       49.535       29.732        0.360      340.926       15.284      860.705
10/21/2014  14:30:00       50.772      -23.577       28.176       43.191       41.306       34.514     1865.454     1706.179     1191.222        0.434        0.238       55.979       30.729        0.301      340.721       14.938      860.693
10/21/2014  14:31:00       42.212       12.902       13.421       49.966       31.371       25.179     2496.624      984.123      633.965        0.312        0.206       44.139       14.860        0.113      340.852       15.159      860.681
10/21/2014  14:32:00       -5.703       -7.776       11.841       19.754       12.446       16.840      390.213      154.909      283.573        0.053        0.041        9.643       12.675        1.728      341.228       15.797      860.676
10/21/2014  14:33:00       39.839      -36.151        8.737       35.775       37.753       25.148     1279.852     1425.299      632.438        0.315        0.167       53.796       24.613        0.209      340.944       15.315      860.672
10/21/2014  14:34:00       75.856       18.892       27.104       42.479       35.505       39.303     1804.495     1260.625     1544.709        0.573        0.230       78.173       34.115        0.190      340.673       14.856      860.664
10/21/2014  14:35:00       40.060        8.317       21.776       34.510       47.372       36.693     1190.934     2244.144     1346.371        0.346        0.239       40.914       28.741        0.493      340.873       15.194      860.667
10/21/2014  14:36:00      -11.540      121.756      -10.879       38.337       39.143       32.227     1469.756     1532.207     1038.592        0.956        0.202      122.302       21.927        0.032      340.948       15.321      860.663
10/21/2014  14:37:00       -0.815      109.294       -8.439       58.354       62.779       29.917     3405.213     3941.189      895.002        1.013        0.412      109.297       29.901        0.075      341.195       15.739      860.648
10/21/2014  14:38:00      -80.994      132.365      -16.284       51.061       63.386       38.005     2607.214     4017.767     1444.382        1.621        0.403      155.179       33.303        0.046      341.147       15.657      860.625
10/21/2014  14:39:00        8.115      161.206      -19.724       35.183       78.538       34.911     1237.851     6168.261     1218.809        1.753        0.431      161.410       39.345        0.059      341.000       15.407      860.604
10/21/2014  14:40:00      -52.882      166.460      -18.543       37.382       61.490       30.991     1397.394     3781.054      960.432        1.849        0.307      174.658       31.245        0.032      341.012       15.428      860.601
10/21/2014  14:41:00      -30.077       30.215       -3.343       27.487       43.282       27.223      755.509     1873.364      741.067        0.260        0.168       42.633       21.335        0.250      341.248       15.829      860.584
10/21/2014  14:42:00       24.986      -74.858       11.747       27.947       49.954       18.720      781.047     2495.389      350.445        0.500        0.181       78.918        5.974        0.006      341.014       15.433      860.557
10/21/2014  14:43:00      -60.515      -87.601       -1.130       53.774       68.551       28.126     2891.648     4699.176      791.062        0.986        0.419      106.471       21.732        0.042      340.985       15.383      860.540
10/21/2014  14:44:00     -106.827      -89.407        3.755       51.334       52.399       29.091     2635.168     2745.623      846.269        1.282        0.311      139.304       26.087        0.035      341.166       15.690      860.510
10/21/2014  14:45:00      -58.175      -77.634      -13.994       46.599       48.753       26.207     2171.499     2376.898      686.812        0.742        0.262       97.012       16.938        0.030      340.981       15.377      860.500
10/21/2014  14:46:00      -22.775       -4.496       -5.724       37.716       22.822       13.581     1422.460      520.866      184.447        0.135        0.106       23.215        8.776        0.143      341.240       15.815      860.507
10/21/2014  14:47:00      -21.805       11.736       17.096       28.378       24.704       21.223      805.329      610.297      450.404        0.139        0.093       24.763        5.117        0.043      341.558       16.355      860.538
10/21/2014  14:48:00       22.735      -14.103       24.558       38.885       42.818       28.005     1512.062     1833.372      784.291        0.272        0.206       26.754       15.024        0.315      341.340       15.985      860.572
10/21/2014  14:49:00       43.574       24.715       18.159       30.672       19.521       31.906      940.800      381.083     1017.977        0.259        0.117       50.095        7.433        0.022      340.870       15.189      860.583
10/21/2014  14:50:00        7.925       -0.434        6.689       19.623       15.945       16.466      385.048      254.244      271.134        0.051        0.046        7.937       11.468        2.087      341.228       15.796      860.594
10/21/2014  14:51:00       12.710       18.384       -5.333       19.576       32.495       22.631      383.234     1055.906      512.140        0.124        0.098       22.350        9.927        0.197      341.269       15.865      860.588
10/21/2014  14:52:00       37.372       25.168       14.282       37.935       53.860       31.521     1439.034     2900.928      993.559        0.378        0.267       45.056       27.631        0.376      340.919       15.272      860.575
10/21/2014  14:53:00      -27.533       21.966       22.109       23.265       29.580       21.816      541.282      874.982      475.933        0.181        0.095       35.222       10.526        0.089      341.312       15.938      860.556
10/21/2014  14:54:00       24.685       20.707       14.269       20.789       17.824       19.685      432.172      317.701      387.489        0.119        0.057       32.220       10.136        0.099      341.073       15.532      860.540
10/21/2014  14:55:00       36.237       11.685       38.632       34.768       35.495       23.325     1208.841     1259.917      544.075        0.298        0.151       38.074       20.153        0.280      341.274       15.873      860.540
10/21/2014  14:56:00       64.734      -47.915       19.646       87.521       89.257       53.368     7659.869     7966.767     2848.193        1.267        0.924       80.538       64.724        0.646      341.246       15.825      860.525
10/21/2014  14:57:00       69.706      -21.430       47.722       84.941       94.275       54.474     7215.029     8887.755     2967.433        1.333        0.954       72.926       54.499        0.558      341.432       16.140      860.494
10/21/2014  14:58:00      109.181     -165.612        8.715       73.820       81.574       51.201     5449.368     6654.387     2621.590        2.707        0.736      198.363       48.799        0.061      341.419       16.115      860.465
10/21/2014  14:59:00       87.999      -57.920       14.823       61.502       64.720       52.892     3782.489     4188.626     2797.529        1.104        0.538      105.350       45.065        0.183      341.028       15.459      860.480
10/21/2014  15:00:00       84.266       45.517       68.432       70.990       68.373       56.895     5039.627     4674.838     3237.062        1.340        0.648       95.774       55.381        0.334      341.030       15.459      860.505
10/21/2014  15:01:00       98.635      112.978      108.631       94.699       74.708       81.734     8967.826     5581.261     6680.473        2.776        1.061      149.976       55.083        0.135      340.882       15.207      860.509
10/21/2014  15:02:00      149.580       99.055       59.409      102.853       80.485       70.135    10578.767     6477.800     4918.938        2.884        1.099      179.405       52.552        0.086      341.097       15.571      860.512
10/21/2014  15:03:00      107.767       55.461       79.196       87.653       77.627       62.297     7683.041     6025.964     3880.917        1.927        0.879      121.201       51.851        0.183      341.102       15.581      860.516
10/21/2014  15:04:00      122.067       79.314       40.484       96.611       74.653       64.384     9333.618     5573.053     4145.252        2.094        0.953      145.572       59.623        0.168      341.066       15.520      860.507
10/21/2014  15:05:00      109.362       75.838       27.189       70.094       52.042       53.968     4913.224     2708.346     2912.553        1.449        0.527      133.084       24.306        0.033      341.199       15.746      860.506
10/21/2014  15:06:00       67.728       87.012        3.895       48.419       51.184       39.118     2344.425     2619.813     1530.254        0.933        0.325      110.264       19.563        0.031      341.164       15.687      860.491
10/21/2014  15:07:00       81.497       52.201       14.113       81.940       46.643       35.971     6714.170     2175.596     1293.939        0.987        0.509       96.782       22.397        0.054      341.325       15.959      860.477
10/21/2014  15:08:00      125.414       53.237       20.051      100.332       67.216       49.115    10066.573     4518.030     2412.297        1.798        0.850      136.245       26.245        0.037      341.442       16.155      860.479
10/21/2014  15:09:00      133.306     -147.010      -16.082      112.094      100.353       54.366    12564.969    10070.626     2955.636        3.261        1.280      198.450       61.992        0.098      341.202       15.749      860.485
10/21/2014  15:10:00       43.252     -107.227       -3.765       72.102       75.009       43.567     5198.713     5626.393     1898.125        1.305        0.636      115.621       49.158        0.181      341.183       15.718      860.477
10/21/2014  15:11:00       49.277      -27.069       45.857       71.976      105.461       77.706     5180.518    11122.123     6038.211        1.380        1.117       56.222       86.600        2.373      341.399       16.085      860.456
10/21/2014  15:12:00       49.094     -105.541        9.426       51.299       83.902       46.872     2631.616     7039.586     2197.009        1.275        0.593      116.401       54.301        0.218      341.316       15.945      860.461
10/21/2014  15:13:00       27.965       -6.193       30.086       46.283       33.656       26.001     2142.108     1132.723      676.027        0.284        0.198       28.642       20.920        0.533      341.351       16.002      860.447
10/21/2014  15:14:00       38.963      -46.056       19.723       54.080       56.710       34.201     2924.695     3215.997     1169.732        0.567        0.366       60.327       33.557        0.309      341.283       15.888      860.427
10/21/2014  15:15:00        4.111       46.558       70.493       35.712       37.965       23.991     1275.319     1441.320      575.547        0.522        0.165       46.739       23.952        0.263      341.259       15.848      860.420
10/21/2014  15:16:00       35.588       39.163       40.572       25.533       26.838       19.527      651.940      720.261      381.322        0.310        0.088       52.918       15.849        0.090      340.874       15.197      860.425
10/21/2014  15:17:00       21.167       10.704       29.152       24.586       21.597       18.876      604.461      466.442      356.309        0.142        0.071       23.720        7.658        0.104      341.301       15.919      860.445
10/21/2014  15:18:00       25.217        8.253        6.392       25.182       35.714       25.007      634.124     1275.481      625.364        0.164        0.127       26.533       23.005        0.752      341.161       15.681      860.453
10/21/2014  15:19:00       10.394       24.871       -0.043       74.418       35.717       29.447     5538.052     1275.698      867.106        0.420        0.384       26.956       35.696        1.754      341.175       15.706      860.459
10/21/2014  15:20:00       30.307      113.514      -17.224       58.383      111.550       38.217     3408.627    12443.383     1460.553        1.570        0.866      117.490       49.738        0.179      341.249       15.828      860.465
10/21/2014  15:21:00       16.616      128.824      -25.345       24.675       48.813       20.218      608.832     2382.665      408.761        1.046        0.170      129.891       15.259        0.014      341.222       15.785      860.481
10/21/2014  15:22:00       -2.326       83.520      -21.383       30.817       23.007       16.550      949.704      529.343      273.905        0.460        0.088       83.552       11.054        0.018      341.228       15.794      860.479
10/21/2014  15:23:00       11.810       19.446       -5.453       23.907       19.442       20.446      571.550      377.996      418.046        0.096        0.068       22.751        9.805        0.186      341.376       16.046      860.466
10/21/2014  15:24:00       13.745       65.184      -18.675       35.202       30.888       15.404     1239.158      954.045      237.280        0.361        0.122       66.617        4.192        0.004      341.227       15.793      860.470
10/21/2014  15:25:00       10.435       38.641       -2.589       25.432       36.520       23.415      646.762     1333.684      548.255        0.207        0.126       40.026       16.010        0.160      341.364       16.024      860.471
10/21/2014  15:26:00       42.481       11.948       13.411       35.096       23.573       30.925     1231.746      555.673      956.340        0.244        0.137       44.130       22.730        0.265      341.269       15.864      860.486
10/21/2014  15:27:00       45.947       15.508       20.837       34.231       23.345       40.464     1171.773      544.995     1637.363        0.307        0.168       48.493       20.696        0.182      341.210       15.766      860.500
10/21/2014  15:28:00       10.293       13.644       12.782       42.559       22.457       28.269     1811.234      504.314      799.146        0.178        0.156       17.090       26.414        2.389      341.546       16.333      860.508
10/21/2014  15:29:00       31.388       25.038       36.265       32.356       27.841       24.875     1046.928      775.099      618.755        0.268        0.122       40.151       20.549        0.262      341.386       16.062      860.521
10/21/2014  15:30:00       30.748       -3.573        5.734       31.306       28.147       25.425      980.044      792.249      646.405        0.170        0.121       30.955       13.031        0.177      341.556       16.350      860.545
10/21/2014  15:31:00      113.964       87.285       23.027       54.859       47.830       33.181     3009.457     2287.686     1101.009        1.377        0.320      143.550       28.035        0.038      341.350       16.002      860.565
10/21/2014  15:32:00      138.409       73.894       18.194       62.357       53.037       33.072     3888.392     2812.915     1093.746        1.637        0.390      156.899       19.481        0.015      341.291       15.900      860.590
10/21/2014  15:33:00       76.224      203.822      -33.159       62.780      102.497       47.665     3941.301    10505.597     2271.945        3.258        0.836      217.609       57.777        0.070      341.254       15.834      860.601
10/21/2014  15:34:00       83.923      162.833      -27.403       77.385       76.298       48.923     5988.475     5821.368     2393.460        2.425        0.710      183.187       49.309        0.072      341.314       15.937      860.612
10/21/2014  15:35:00      115.440       92.362       21.114       64.245       52.166       42.690     4127.437     2721.324     1822.407        1.549        0.434      147.842       24.504        0.027      341.274       15.872      860.609
10/21/2014  15:36:00       37.173      -10.881       -6.450       42.041       37.021       27.688     1767.407     1370.591      766.639        0.272        0.195       38.732       11.637        0.090      341.100       15.578      860.574
10/21/2014  15:37:00       47.991       33.770       24.737       70.451       68.736       38.233     4963.345     4724.699     1461.731        0.760        0.557       58.682       38.671        0.434      341.424       16.126      860.519
10/21/2014  15:38:00       57.497      150.254       -7.070       75.189       62.599       46.033     5653.400     3918.573     2119.062        1.881        0.585      160.880       34.403        0.046      341.351       16.003      860.482
10/21/2014  15:39:00       30.606       63.148       -9.634       46.893       32.640       30.066     2198.974     1065.351      903.971        0.459        0.208       70.174       22.531        0.103      341.406       16.097      860.452
10/21/2014  15:40:00      106.383       79.878       27.297       88.616       51.330       46.309     7852.745     2634.820     2144.534        1.554        0.632      133.033       25.536        0.037      341.398       16.082      860.421
10/21/2014  15:41:00      142.194       72.862       63.869       99.554       95.421       68.359     9910.959     9105.188     4672.963        2.664        1.184      159.775       43.297        0.073      341.272       15.867      860.390
10/21/2014  15:42:00      135.199       85.452       51.044      107.968       73.523       61.296    11657.075     5405.621     3757.189        2.450        1.041      159.940       57.898        0.131      341.256       15.839      860.381
10/21/2014  15:43:00      195.211      134.430       55.177       82.351       65.280       55.281     6781.648     4261.542     3056.017        3.666        0.705      237.020       39.070        0.027      341.287       15.890      860.372
10/21/2014  15:44:00      205.594      103.254       49.064       82.741       69.412       53.303     6846.067     4817.986     2841.176        3.492        0.725      230.065       42.194        0.034      341.176       15.704      860.368
10/21/2014  15:45:00       63.431       25.231       35.183       50.690       54.829       39.004     2569.479     3006.249     1521.315        0.650        0.355       68.265       36.918        0.292      341.060       15.511      860.356
10/21/2014  15:46:00      155.264      104.385       65.737       85.317       49.882       59.816     7279.075     2488.175     3577.938        2.633        0.667      187.091       43.540        0.054      341.348       15.996      860.349
10/21/2014  15:47:00      137.046       61.659       47.167      116.716       77.639       60.201    13622.682     6027.765     3624.123        2.404        1.164      150.278       34.269        0.052      341.263       15.853      860.348
10/21/2014  15:48:00      110.103       52.322       49.816      108.247       70.833       60.329    11717.492     5017.307     3639.592        1.885        1.019      121.902       23.683        0.038      341.200       15.746      860.361
10/21/2014  15:49:00      129.356       85.406       75.228      111.475       93.667       84.208    12426.664     8773.530     7091.056        2.898        1.415      155.007       80.171        0.268      341.231       15.798      860.380
10/21/2014  15:50:00      111.436       70.440       67.975       88.334       99.365       91.956     7802.833     9873.340     8455.969        2.406        1.307      131.832       82.534        0.392      341.180       15.714      860.407
10/21/2014  15:51:00      184.307      122.291       16.128       82.142       72.408       47.241     6747.349     5242.932     2231.744        3.170        0.711      221.188       30.488        0.019      341.300       15.914      860.452
10/21/2014  15:52:00      155.975      123.091       29.020       74.041       59.553       48.688     5482.096     3546.504     2370.533        2.586        0.570      198.695       29.685        0.022      341.261       15.849      860.466
10/21/2014  15:53:00      109.732       57.699       58.728       72.433       59.464       54.476     5246.506     3535.959     2967.603        1.528        0.588      123.977       19.336        0.024      341.281       15.884      860.482
10/21/2014  15:54:00      142.449       57.636        9.530       96.088       77.115       61.292     9232.840     5946.776     3756.764        2.132        0.947      153.667       40.784        0.070      341.172       15.697      860.498
10/21/2014  15:55:00       54.786       53.264       70.052       64.938       62.083       44.713     4216.998     3854.244     1999.273        1.041        0.504       76.410       35.881        0.221      341.051       15.495      860.503
10/21/2014  15:56:00       68.483       83.978       86.132       71.540       58.317       44.345     5117.927     3400.892     1966.487        1.482        0.524      108.362       35.103        0.105      341.043       15.481      860.478
10/21/2014  15:57:00       65.236       14.740       21.408       52.630       43.335       43.385     2769.930     1877.938     1882.216        0.573        0.327       66.880       23.234        0.121      341.143       15.651      860.451
10/21/2014  15:58:00       61.666       27.678       55.542       61.513       53.237       39.037     3783.860     2834.190     1523.904        0.790        0.407       67.593       32.945        0.238      340.965       15.352      860.427
10/21/2014  15:59:00      231.998      142.660       49.214       65.541       76.535       54.385     4295.634     5857.630     2957.779        4.485        0.656      272.350       23.489        0.007      341.289       15.895      860.421
10/21/2014  16:00:00      159.881      109.656       36.933       79.202       69.321       57.809     6272.907     4805.351     3341.830        2.668        0.721      193.872       52.037        0.072      341.259       15.844      860.418
10/21/2014  16:01:00      178.747      113.493       35.748       67.027       77.694       50.024     4492.639     6036.296     2502.369        2.957        0.652      211.734       26.757        0.016      341.158       15.673      860.446
10/21/2014  16:02:00      120.845       78.650       18.589       78.725       55.896       39.603     6197.570     3124.376     1568.389        1.601        0.545      144.185       15.084        0.011      341.232       15.800      860.461
10/21/2014  16:03:00      122.183       58.220       26.375       49.858       35.752       32.124     2485.830     1278.221     1031.930        1.190        0.240      135.345       16.598        0.015      341.024       15.452      860.463
10/21/2014  16:04:00       81.001       27.751       26.668       53.553       31.862       35.841     2867.890     1015.197     1284.549        0.660        0.258       85.623       21.986        0.066      341.098       15.576      860.476
10/21/2014  16:05:00       93.317       84.585       29.292       59.127       54.343       40.882     3496.031     2953.165     1671.326        1.242        0.406      125.947       10.684        0.007      341.113       15.600      860.505
10/21/2014  16:06:00       27.259       91.461      -23.645       38.399       51.462       18.862     1474.512     2648.315      355.757        0.707        0.224       95.436       19.402        0.041      341.188       15.728      860.523
10/21/2014  16:07:00      155.657       87.013       11.201       77.844       52.653       45.243     6059.634     2772.330     2046.924        2.140        0.544      178.327       14.587        0.007      341.186       15.723      860.509
10/21/2014  16:08:00      150.295       98.170       26.349       50.312       39.958       41.525     2531.258     1596.632     1724.292        1.939        0.293      179.515       23.545        0.017      341.158       15.676      860.487
10/21/2014  16:09:00      121.540       95.765       61.522       51.753       43.125       49.245     2678.391     1859.792     2425.058        1.734        0.348      154.735       28.541        0.034      340.931       15.290      860.465
10/21/2014  16:10:00       20.118       24.587       20.751       24.295       38.505       30.212      590.243     1482.610      912.773        0.221        0.149       31.769       18.450        0.337      340.974       15.365      860.422
10/21/2014  16:11:00       24.901        5.063        9.211       20.294       33.168       19.836      411.862     1100.092      393.474        0.132        0.095       25.410        7.348        0.084      340.922       15.276      860.395
10/21/2014  16:12:00       62.704       42.949       34.749       42.855       36.210       33.774     1836.538     1311.167     1140.714        0.564        0.214       76.003       28.342        0.139      341.184       15.719      860.407
10/21/2014  16:13:00      179.632      113.450       25.139       86.946       55.034       37.306     7559.620     3028.736     1391.717        2.887        0.599      212.459       23.754        0.013      341.206       15.756      860.417
10/21/2014  16:14:00       72.605       39.888        5.885       49.784       56.717       30.051     2478.488     3216.795      903.062        0.675        0.330       82.840       16.934        0.042      341.179       15.711      860.421
10/21/2014  16:15:00      121.354       70.125       23.547       55.070       43.533       43.675     3032.721     1895.119     1907.472        1.352        0.342      140.158       26.367        0.035      341.251       15.834      860.432
10/21/2014  16:16:00      121.587       92.381       35.243       46.804       45.100       45.247     2190.615     2033.996     2047.325        1.541        0.314      152.701       21.535        0.020      341.208       15.760      860.434
10/21/2014  16:17:00      166.390      129.960       21.220       51.852       54.564       56.839     2688.629     2977.261     3230.653        2.696        0.445      211.129       34.193        0.026      341.242       15.816      860.417
10/21/2014  16:18:00      103.556       88.379       -0.180       62.282       56.227       54.261     3879.069     3161.482     2944.290        1.426        0.499      136.142       39.572        0.084      341.288       15.895      860.396
10/21/2014  16:19:00      182.724      123.952       17.510      104.551       70.691       46.593    10930.840     4997.199     2170.913        3.358        0.905      220.799       18.738        0.007      341.251       15.833      860.390
10/21/2014  16:20:00      175.795      150.667       12.866      106.398       63.009       47.245    11320.482     3970.132     2232.043        3.564        0.876      231.526       25.891        0.013      341.186       15.721      860.395
10/21/2014  16:21:00      105.180      103.827       -3.167       61.915       42.668       43.397     3833.432     1820.519     1883.308        1.469        0.377      147.793       28.802        0.038      341.174       15.703      860.412
10/21/2014  16:22:00       18.138       23.467        8.786       23.016       29.382       20.041      529.749      863.297      401.645        0.138        0.090       29.659       18.091        0.372      341.352       16.006      860.431
10/21/2014  16:23:00      121.336       65.414       38.484       43.582       35.567       36.881     1899.379     1264.989     1360.223        1.250        0.226      137.846        8.168        0.004      341.232       15.801      860.465
10/21/2014  16:24:00       99.950       56.263       30.181       72.423       34.787       35.424     5245.075     1210.101     1254.846        1.089        0.386      114.698        9.536        0.007      341.191       15.732      860.490
10/21/2014  16:25:00      117.425      101.761       49.875       77.605       45.452       67.564     6022.516     2065.844     4564.924        1.964        0.633      155.383       48.960        0.099      341.161       15.680      860.492
10/21/2014  16:26:00      119.686       88.760       50.920       87.416       66.664       41.359     7641.512     4444.137     1710.544        1.929        0.690      149.007       36.118        0.059      341.405       16.092      860.513
10/21/2014  16:27:00       78.687      125.845       -0.791      114.698       68.528       47.216    13155.727     4696.055     2229.368        2.105        1.004      148.421       47.307        0.102      341.546       16.331      860.539
10/21/2014  16:28:00      101.702      153.840       -2.241       98.750       94.529       60.026     9751.550     8935.806     3603.122        2.815        1.115      184.418       57.087        0.096      341.440       16.149      860.548
10/21/2014  16:29:00       55.067      139.416       -3.936       74.416       83.185       57.629     5537.775     6919.808     3321.084        1.913        0.789      149.898       45.831        0.093      341.400       16.085      860.548
10/21/2014  16:30:00       15.245      279.341      -38.204       51.083       74.208       36.689     2609.487     5506.793     1346.048        4.459        0.473      279.757       28.196        0.010      341.195       15.735      860.539
10/21/2014  16:31:00      -20.205      185.557      -21.970       58.500       54.987       30.330     3422.284     3023.592      919.906        2.134        0.368      186.653       21.026        0.013      341.341       15.985      860.521
10/21/2014  16:32:00      112.990      133.332       -4.397      110.826       82.278       67.549    12282.344     6769.673     4562.883        2.709        1.181      174.768       53.393        0.093      341.295       15.907      860.511
10/21/2014  16:33:00      169.169       92.249       18.616       89.789       58.709       44.180     8062.135     3446.725     1951.893        2.547        0.673      192.686       34.553        0.032      341.144       15.651      860.499
10/21/2014  16:34:00       77.500       70.136        5.017       42.956       36.607       25.427     1845.198     1340.041      646.521        0.739        0.192      104.524       17.915        0.029      341.148       15.659      860.491
10/21/2014  16:35:00       89.585       99.724        9.226       60.275       64.952       49.694     3633.069     4218.735     2469.487        1.419        0.516      134.054       43.122        0.103      341.203       15.755      860.487
10/21/2014  16:36:00       79.851       98.642       -2.505       69.810       63.799       53.873     4873.381     4070.332     2902.304        1.398        0.592      126.911       42.090        0.110      341.128       15.626      860.502
10/21/2014  16:37:00       79.924       75.434        3.191       92.498       39.682       25.819     8555.912     1574.640      666.609        1.144        0.540      109.900       27.802        0.064      341.108       15.592      860.503
10/21/2014  16:38:00        3.901      160.815      -30.282       33.064       40.168       15.006     1093.235     1613.472      225.166        1.486        0.147      160.863       14.770        0.008      341.129       15.626      860.504
10/21/2014  16:39:00       40.393       98.426        1.564       52.522       41.134       35.437     2758.579     1692.027     1255.795        0.851        0.285      106.392       33.741        0.101      341.217       15.777      860.508
10/21/2014  16:40:00       63.726       54.682        8.612       61.892       42.095       26.851     3830.672     1771.953      720.973        0.672        0.316       83.971       12.966        0.024      341.258       15.846      860.513
10/21/2014  16:41:00       51.176       72.018       12.373       75.860       52.243       37.908     5754.671     2729.307     1436.988        0.894        0.496       88.349       36.504        0.171      341.303       15.922      860.528
10/21/2014  16:42:00       41.621      125.217      -19.014       52.485       80.671       38.680     2754.648     6507.743     1496.108        1.426        0.538      131.953       39.799        0.091      341.267       15.861      860.547
10/21/2014  16:43:00       60.810      177.556        0.144       74.637       97.026       69.320     5570.735     9413.997     4805.257        2.750        0.989      187.681       64.327        0.117      341.143       15.649      860.556
10/21/2014  16:44:00       29.627      155.156      -12.854       69.564       99.446       52.034     4839.142     9889.414     2707.586        2.127        0.872      157.959       51.601        0.107      341.132       15.632      860.559
10/21/2014  16:45:00       73.394       80.872       15.429       82.407       75.928       53.236     6790.967     5765.045     2834.069        1.377        0.770      109.211       46.190        0.179      341.086       15.555      860.567
10/21/2014  16:46:00       42.119      144.301       -6.664       73.184       96.280       62.552     5355.863     9269.892     3912.756        2.059        0.927      150.322       59.604        0.157      341.051       15.495      860.591
10/21/2014  16:47:00       46.529      156.630      -11.945       52.359      101.493       51.267     2741.479    10300.790     2628.333        2.125        0.784      163.395       51.889        0.101      341.060       15.510      860.596
10/21/2014  16:48:00       82.546      155.230      -12.499       70.059      148.577       59.227     4908.325    22075.270     3507.799        3.077        1.525      175.813       72.219        0.169      341.037       15.470      860.594
10/21/2014  16:49:00       34.195      237.977       -9.667       82.921      128.698       72.967     6875.893    16563.177     5324.217        4.332        1.438      240.421       73.585        0.094      341.026       15.452      860.577
10/21/2014  16:50:00       30.135      198.650      -17.777       67.108      108.411       66.301     4503.456    11753.007     4395.872        3.067        1.033      200.923       65.677        0.107      341.007       15.417      860.559
10/21/2014  16:51:00       57.793      286.854      -28.388       74.000      150.131       67.679     5475.933    22539.428     4580.445        5.951        1.630      292.618       74.088        0.064      340.944       15.312      860.532
10/21/2014  16:52:00       55.085      206.437      -16.621       75.898      138.515       74.491     5760.573    19186.522     5548.857        3.821        1.525      213.660       77.508        0.132      340.947       15.316      860.508
10/21/2014  16:53:00       63.845      238.735      -33.008       67.810       84.023       59.219     4598.163     7059.872     3506.890        3.866        0.758      247.125       53.102        0.046      340.925       15.277      860.489
10/21/2014  16:54:00       32.169      167.662       -8.316       69.691      109.445       50.159     4856.856    11978.200     2515.963        2.428        0.968      170.720       62.128        0.132      340.962       15.342      860.473
10/21/2014  16:55:00       50.173      126.538       -7.350       67.249       94.788       57.142     4522.388     8984.790     3265.236        1.768        0.839      136.122       61.311        0.203      341.014       15.432      860.457
10/21/2014  16:56:00       -0.848      243.311      -29.760       46.021       74.523       37.270     2117.913     5553.679     1389.078        3.457        0.453      243.313       40.001        0.027      340.997       15.400      860.456
10/21/2014  16:57:00       86.794       98.858       23.165      100.125       73.571       47.267    10025.091     5412.678     2234.167        1.775        0.884      131.552       40.608        0.095      341.085       15.552      860.473
10/21/2014  16:58:00      106.883      159.173        6.991      107.928       88.824       61.036    11648.557     7889.617     3725.423        3.003        1.163      191.729       57.254        0.089      341.034       15.465      860.502
10/21/2014  16:59:00       42.509      225.065      -33.959       44.454       73.812       42.425     1976.177     5448.220     1799.852        3.142        0.461      229.044       41.161        0.032      341.071       15.527      860.542
10/21/2014  17:00:00       30.646      179.920      -18.358       59.313       91.826       50.688     3518.047     8432.101     2569.311        2.408        0.726      182.512       58.812        0.104      341.157       15.671      860.571
10/21/2014  17:01:00       21.669      152.575      -16.437       48.914       90.674       43.880     2392.553     8221.694     1925.432        1.828        0.627      154.106       51.360        0.111      341.191       15.729      860.583
10/21/2014  17:02:00       -5.915      182.463      -10.252       55.871       70.369       38.963     3121.533     4951.763     1518.115        2.151        0.480      182.559       33.312        0.033      341.238       15.810      860.573
10/21/2014  17:03:00       65.039      170.940       11.044       84.622      100.160       73.272     7160.849    10032.081     5368.766        2.806        1.128      182.895       68.243        0.139      341.140       15.644      860.548
10/21/2014  17:04:00       49.516      198.017       -8.435       61.198      112.419       61.878     3745.156    12638.110     3828.871        3.097        1.011      204.114       71.537        0.123      341.069       15.524      860.529
10/21/2014  17:05:00       98.695      120.162        5.719       73.815       80.400       53.222     5448.674     6464.141     2832.610        1.948        0.737      155.498       47.063        0.092      341.133       15.632      860.511
10/21/2014  17:06:00        7.233      159.296      -34.796       91.661       69.486       49.549     8401.769     4828.354     2455.109        2.116        0.784      159.460       31.493        0.039      341.118       15.607      860.503
10/21/2014  17:07:00      -48.331      198.892      -25.136       53.897       69.150       46.966     2904.864     4781.730     2205.840        2.621        0.495      204.680       32.110        0.025      341.164       15.685      860.478
10/21/2014  17:08:00      -46.420      243.213      -31.149       49.420      100.453       35.061     2442.319    10090.751     1229.270        3.802        0.688      247.603       42.590        0.030      341.099       15.573      860.466
10/21/2014  17:09:00       12.547      328.624      -41.839       63.053      105.833       49.430     3975.722    11200.725     2443.276        6.376        0.881      328.864       57.161        0.030      340.961       15.340      860.458
10/21/2014  17:10:00       -6.873      297.775      -50.506       54.795       61.259       35.035     3002.462     3752.725     1227.432        4.962        0.399      297.854       23.872        0.006      341.026       15.449      860.455
10/21/2014  17:11:00       -0.428      286.500      -23.509       75.308      118.446       57.477     5671.284    14029.549     3303.621        5.282        1.150      286.500       59.583        0.043      340.946       15.315      860.445
10/21/2014  17:12:00       21.086      257.835      -35.775       71.499       87.634       43.698     5112.098     7679.663     1909.485        4.145        0.735      258.696       43.078        0.028      340.984       15.377      860.432
10/21/2014  17:13:00      -15.176      269.511      -27.012       69.883       80.044       40.903     4883.661     6407.103     1673.029        4.328        0.648      269.938       39.032        0.021      341.017       15.435      860.421
10/21/2014  17:14:00       -7.565      273.779      -35.268       69.645       87.185       39.080     4850.422     7601.214     1527.220        4.512        0.699      273.884       44.333        0.026      340.915       15.261      860.407
10/21/2014  17:15:00      -82.257      154.979      -19.977       57.068      101.913       39.916     3256.767    10386.167     1593.295        2.321        0.762      175.455       43.165        0.061      341.037       15.470      860.395
10/21/2014  17:16:00      -22.405      133.818       -1.686       51.327       97.792       43.228     2634.422     9563.223     1868.667        1.624        0.703      135.681       53.460        0.155      341.079       15.542      860.392
10/21/2014  17:17:00      -29.634      233.465      -30.737       65.267       64.556       43.571     4259.770     4167.526     1898.399        3.333        0.516      235.339       37.691        0.026      341.026       15.449      860.400
10/21/2014  17:18:00      -49.903      257.004      -28.898       65.695       65.103       40.260     4315.869     4238.364     1620.903        3.977        0.509      261.804       35.374        0.018      340.989       15.387      860.406
10/21/2014  17:19:00      -23.840      164.474       -8.514       48.259       78.577       40.905     2328.921     6174.376     1673.252        1.893        0.509      166.193       34.255        0.042      341.012       15.427      860.408
10/21/2014  17:20:00     -106.076      160.203      -24.607       45.096       61.106       30.460     2033.692     3733.899      927.781        2.211        0.335      192.139       23.508        0.015      341.020       15.441      860.418
10/21/2014  17:21:00      -61.998      102.811       -2.359       54.167       88.395       40.053     2934.111     7813.750     1604.248        1.338        0.618      120.058       43.961        0.134      341.055       15.501      860.409
10/21/2014  17:22:00      -84.804      165.217      -22.831       66.746       85.422       35.322     4455.094     7296.912     1247.677        2.400        0.650      185.711       28.575        0.024      341.029       15.457      860.409
10/21/2014  17:23:00      -51.381      103.555      -11.154       43.499       73.829       27.296     1892.159     5450.725      745.046        1.079        0.404      115.601       28.640        0.061      341.073       15.532      860.405
10/21/2014  17:24:00      -13.576      204.628      -30.490       34.721       36.308       20.263     1205.578     1318.247      410.606        2.296        0.147      205.078       11.393        0.003      340.976       15.366      860.412
10/21/2014  17:25:00      -75.029      125.253      -23.506       34.904       54.676       30.451     1218.294     2989.503      927.254        1.350        0.257      146.006       24.828        0.029      341.094       15.568      860.424
10/21/2014  17:26:00      -45.297      160.461      -29.787       31.219       36.019       20.105      974.637     1297.358      404.216        1.568        0.134      166.732       12.551        0.006      341.099       15.576      860.453
10/21/2014  17:27:00      -97.917      223.061      -29.169       57.240       95.250       41.054     3276.462     9072.487     1685.445        3.711        0.702      243.606       40.337        0.027      340.946       15.314      860.463
10/21/2014  17:28:00     -106.333      236.632      -32.263       73.096       63.584       38.521     5342.957     4042.922     1483.830        3.960        0.543      259.425       35.961        0.019      340.942       15.307      860.437
10/21/2014  17:29:00      -17.168      175.642      -14.920       53.188       67.341       33.549     2828.931     4534.788     1125.508        1.993        0.424      176.479       32.912        0.035      341.012       15.428      860.410
10/21/2014  17:30:00      -58.375      114.680      -20.465       74.255       97.862       42.454     5513.781     9576.972     1802.331        1.693        0.845      128.683       37.583        0.085      340.976       15.366      860.400
10/21/2014  17:31:00       12.519      158.387      -10.327       57.531       73.824       45.361     3309.784     5449.949     2057.641        1.808        0.541      158.881       37.437        0.056      340.965       15.348      860.401
10/21/2014  17:32:00      -43.855       38.723       -1.188       56.514       54.508       24.351     3193.831     2971.119      592.984        0.509        0.338       58.504       18.709        0.102      341.084       15.552      860.422
10/21/2014  17:33:00        3.929      107.566       -8.977       35.804       35.349       26.440     1281.927     1249.523      699.051        0.745        0.162      107.638       23.581        0.048      340.996       15.401      860.437
10/21/2014  17:34:00       -7.996       91.759       -8.551       48.459       57.213       26.692     2348.297     3273.331      712.444        0.744        0.317       92.107       30.623        0.111      341.079       15.543      860.443
10/21/2014  17:35:00       -4.873      102.883      -13.368       44.505       61.361       37.659     1980.730     3765.133     1418.231        0.897        0.358      102.999        8.094        0.006      341.012       15.429      860.435
10/21/2014  17:36:00       32.387       60.850        0.764       44.448       30.461       31.671     1975.637      927.854     1003.039        0.433        0.195       68.932       22.113        0.103      341.013       15.428      860.403
10/21/2014  17:37:00       26.533       77.305      -14.291       50.028       43.056       28.698     2502.829     1853.798      823.572        0.603        0.259       81.732       27.944        0.117      341.012       15.428      860.393
10/21/2014  17:38:00       19.475       95.444        2.058       53.049      109.415       40.131     2814.246    11971.670     1610.484        1.294        0.820       97.411       49.064        0.254      340.855       15.162      860.368
10/21/2014  17:39:00      -15.370      184.947      -32.193       39.738       39.583       23.858     1579.098     1566.797      569.203        1.960        0.186      185.585       21.005        0.013      340.931       15.293      860.364
10/21/2014  17:40:00      -18.787      169.694      -23.594       66.971       65.809       32.206     4485.136     4330.763     1037.248        1.978        0.493      170.731       32.806        0.037      340.976       15.367      860.362
10/21/2014  17:41:00      -57.872      208.853      -35.832      105.395      112.466       42.383    11108.056    12648.556     1796.304        3.690        1.278      216.723       44.513        0.042      340.950       15.321      860.351
10/21/2014  17:42:00     -115.684      256.417      -37.931       64.336      104.800       48.946     4139.163    10983.080     2395.697        4.904        0.876      281.305       57.431        0.042      340.869       15.183      860.335
10/21/2014  17:43:00      -43.576      240.562      -47.005       62.703       48.115       35.472     3931.689     2315.100     1258.275        3.474        0.375      244.477       27.327        0.012      340.869       15.183      860.314
10/21/2014  17:44:00       34.134      220.735      -39.367       40.802       60.516       24.645     1664.800     3662.217      607.363        2.869        0.297      223.359       26.843        0.014      340.841       15.136      860.314
10/21/2014  17:45:00       -2.317      149.498       -1.427      115.850       95.996       61.598    13421.332     9215.192     3794.273        2.439        1.322      149.516       78.475        0.275      340.807       15.080      860.322
10/21/2014  17:46:00      -63.661      184.926      -18.671       60.403       63.617       36.585     3648.505     4047.120     1338.447        2.381        0.452      195.577       32.161        0.027      340.833       15.126      860.345
10/21/2014  17:47:00      -58.384      225.217      -31.196       59.041       54.050       31.934     3485.807     2921.418     1019.795        3.126        0.371      232.662       26.370        0.013      340.796       15.059      860.363
10/21/2014  17:48:00     -100.977      112.734      -17.640       57.829       65.542       44.291     3344.213     4295.800     1961.716        1.641        0.480      151.345       46.643        0.095      340.835       15.128      860.381
10/21/2014  17:49:00      -39.987      199.892      -34.677       55.011       51.402       29.764     3026.220     2642.171      885.880        2.466        0.328      203.852       34.661        0.029      340.772       15.021      860.380
10/21/2014  17:50:00      -53.176      220.409      -35.400       49.045       91.542       27.949     2405.407     8379.960      781.146        3.211        0.578      226.733       40.552        0.032      340.778       15.032      860.374
10/21/2014  17:51:00       -4.137      216.639      -28.886       58.475       64.333       33.250     3419.375     4138.782     1105.560        2.822        0.433      216.678       30.118        0.019      340.742       14.969      860.369
10/21/2014  17:52:00      -14.802      134.203      -16.578       40.753       57.625       27.696     1660.844     3320.647      767.043        1.213        0.287      135.017       27.721        0.042      340.811       15.089      860.396
10/21/2014  17:53:00      -11.792       87.778       -3.943       42.334       51.469       24.591     1792.156     2649.020      604.737        0.645        0.252       88.566       25.586        0.083      340.793       15.059      860.419
10/21/2014  17:54:00      -29.037      126.156      -13.590       73.090       71.236       42.791     5342.084     5074.611     1831.085        1.459        0.612      129.455       46.714        0.130      340.810       15.086      860.439
10/21/2014  17:55:00      -24.507      210.462      -32.653       38.924       58.992       28.331     1515.079     3480.003      802.666        2.588        0.290      211.884       28.521        0.018      340.679       14.865      860.454
10/21/2014  17:56:00       30.910      197.561      -22.484       52.605       82.605       36.309     2767.322     6823.665     1318.376        2.570        0.545      199.964       46.361        0.054      340.631       14.780      860.443
10/21/2014  17:57:00        8.621      158.269      -29.751       55.127       99.595       36.467     3038.975     9919.230     1329.848        2.015        0.714      158.504       46.325        0.085      340.618       14.759      860.444
10/21/2014  17:58:00      -48.510      166.892      -30.386       52.024       62.194       29.503     2706.486     3868.149      870.399        1.929        0.372      173.799       29.684        0.029      340.671       14.852      860.463
10/21/2014  17:59:00       30.344       87.347       -2.317       37.853       61.041       41.003     1432.869     3726.062     1681.222        0.770        0.342       92.467       40.904        0.196      340.634       14.789      860.479
10/21/2014  18:00:00       23.864       89.930       -8.436       35.216       44.329       21.543     1240.160     1965.084      464.081        0.620        0.183       93.043       15.499        0.028      340.595       14.724      860.506
10/21/2014  18:01:00       29.582       92.341        1.926       44.344       37.551       31.248     1966.354     1410.080      976.427        0.688        0.218       96.964       21.503        0.049      340.578       14.694      860.511
10/21/2014  18:02:00       30.209       47.802       -9.889       37.106       31.093       28.129     1376.883      966.761      791.251        0.321        0.157       56.547       22.835        0.163      340.493       14.551      860.512
10/21/2014  18:03:00       14.335      122.664      -23.901       38.240       41.493       19.880     1462.295     1721.649      395.206        0.970        0.179      123.499       22.716        0.034      340.557       14.659      860.507
10/21/2014  18:04:00       64.806       49.251        3.220       32.766       27.865       25.645     1073.632      776.477      657.660        0.457        0.125       81.397       18.597        0.052      340.431       14.447      860.512
10/21/2014  18:05:00       49.780       98.471      -15.301       36.660       69.842       35.444     1343.956     4877.894     1256.279        0.994        0.374      110.338       37.007        0.112      340.458       14.493      860.496
10/21/2014  18:06:00       86.405       62.821       18.958       40.409       43.460       38.300     1632.886     1888.767     1466.918        0.838        0.249      106.828       26.346        0.061      340.340       14.293      860.481
10/21/2014  18:07:00       34.841       51.438       -1.701       53.516       50.185       34.937     2863.931     2518.578     1220.599        0.523        0.330       62.127       23.767        0.146      340.389       14.378      860.491
10/21/2014  18:08:00       68.768      119.895      -12.291       45.752       58.833       32.947     2093.281     3461.310     1085.505        1.295        0.332      138.217       35.745        0.067      340.388       14.375      860.495
10/21/2014  18:09:00       49.224       57.704       14.389       59.807       45.864       33.545     3576.918     2103.487     1125.298        0.638        0.340       75.847       25.319        0.111      340.323       14.263      860.530
10/21/2014  18:10:00       94.179       67.506       26.984       63.156       41.236       40.144     3988.703     1700.400     1611.551        1.073        0.365      115.874       38.137        0.108      340.205       14.064      860.554
10/21/2014  18:11:00      112.097      221.233      -27.163       81.565      136.974       67.414     6652.922    18761.786     4544.633        4.610        1.498      248.012       72.289        0.085      339.989       13.697      860.557
10/21/2014  18:12:00       72.454       95.084       -5.625       89.660       64.128       44.866     8038.834     4112.367     2012.965        1.424        0.708      119.542       45.911        0.147      339.909       13.564      860.575
10/21/2014  18:13:00       73.028      146.190      -18.534       53.611       89.149       51.967     2874.146     7947.462     2700.592        2.028        0.676      163.416       52.298        0.102      339.887       13.525      860.602
10/21/2014  18:14:00       78.819      206.385      -25.968       78.250       93.223       46.826     6123.036     8690.514     2192.634        3.324        0.850      220.923       46.319        0.044      339.857       13.475      860.620
10/21/2014  18:15:00       68.701      228.930      -34.998       71.307       95.157       47.853     5084.635     9054.766     2289.943        3.739        0.821      239.016       54.411        0.052      339.816       13.406      860.628
10/21/2014  18:16:00       17.026      198.109      -19.135       64.123       56.386       39.419     4111.715     3179.387     1553.848        2.437        0.442      198.839       32.312        0.026      339.806       13.389      860.628
10/21/2014  18:17:00       77.323       63.320        5.762       59.651       37.936       31.090     3558.232     1439.166      966.615        0.799        0.298       99.941       16.686        0.028      339.770       13.332      860.623
10/21/2014  18:18:00       68.402      105.879       -8.045       54.358       72.494       43.080     2954.749     5255.357     1855.874        1.301        0.503      126.052       45.404        0.130      339.761       13.315      860.622
10/21/2014  18:19:00       -3.570      187.918      -31.045       67.013       58.260       32.931     4490.799     3394.201     1084.470        2.263        0.448      187.952       39.349        0.044      339.809       13.396      860.627
10/21/2014  18:20:00       55.552      154.292      -26.966       70.968       90.846       35.144     5036.490     8252.966     1235.072        2.107        0.726      163.988       46.710        0.081      339.761       13.314      860.636
10/21/2014  18:21:00       13.283      257.385      -40.830       44.338       54.648       25.185     1965.881     2986.386      634.265        3.684        0.279      257.728       17.569        0.005      339.750       13.293      860.652
10/21/2014  18:22:00       68.588      127.363      -12.068       49.257       75.307       42.536     2426.272     5671.087     1809.316        1.549        0.495      144.657       40.655        0.079      339.706       13.222      860.665
10/21/2014  18:23:00       32.793       83.405      -19.378       44.723       39.864       25.494     2000.119     1589.149      649.949        0.632        0.212       89.620       13.236        0.022      339.691       13.197      860.699
10/21/2014  18:24:00       31.921      117.216       -5.320       47.407       66.934       55.936     2247.430     4480.125     3128.873        1.232        0.493      121.485       52.730        0.188      339.760       13.315      860.733
10/21/2014  18:25:00       68.293      216.219      -30.225       55.517       69.723       42.254     3082.119     4861.273     1785.375        3.103        0.486      226.748       35.835        0.025      339.769       13.327      860.756
10/21/2014  18:26:00      -24.102      277.812      -47.295       71.609       57.660       33.322     5127.905     3324.652     1110.326        4.478        0.478      278.855       33.253        0.014      339.885       13.519      860.770
10/21/2014  18:27:00      -20.342      170.309      -30.100       72.530       63.629       39.807     5260.567     4048.652     1584.597        2.061        0.545      171.520       43.439        0.064      339.853       13.469      860.788
10/21/2014  18:28:00       18.966      225.366      -32.901       43.561       89.465       44.091     1897.589     8004.026     1943.991        3.204        0.592      226.162       54.916        0.059      339.821       13.414      860.785
10/21/2014  18:29:00       -7.856      205.066      -36.299       45.951       40.899       25.398     2111.466     1672.758      645.056        2.393        0.221      205.216       18.786        0.008      339.822       13.416      860.791
10/21/2014  18:30:00       -1.233      168.690      -24.666       40.616       45.919       22.349     1649.670     2108.597      499.491        1.666        0.213      168.695       23.552        0.019      339.810       13.398      860.789
10/21/2014  18:31:00      -74.824       99.683      -19.476       51.854       47.762       28.880     2688.831     2281.197      834.040        1.086        0.290      124.641       28.373        0.052      339.815       13.408      860.791
10/21/2014  18:32:00      -26.873      170.250      -22.708       56.937       68.185       28.156     3241.831     4649.248      792.783        1.945        0.434      172.358       30.282        0.031      339.765       13.322      860.794
10/21/2014  18:33:00        1.522      192.562      -31.492       44.679       40.196       25.953     1996.228     1615.755      673.577        2.118        0.214      192.568        8.720        0.002      339.758       13.311      860.787
10/21/2014  18:34:00      -67.699      187.324      -31.136       66.961       68.632       30.767     4483.754     4710.289      946.597        2.539        0.507      199.182       30.560        0.024      339.728       13.259      860.781
10/21/2014  18:35:00      -80.224      115.836      -10.759       50.724       53.461       43.730     2572.929     2858.125     1912.348        1.366        0.367      140.904       38.086        0.073      339.677       13.174      860.788
10/21/2014  18:36:00      -65.591      171.988      -17.885       49.605       70.048       35.555     2460.650     4906.698     1264.136        2.142        0.432      184.071       33.561        0.033      339.698       13.209      860.803
10/21/2014  18:37:00      -90.196      139.165      -34.471       47.217       62.206       32.719     2229.481     3869.565     1070.525        1.793        0.358      165.838       31.018        0.035      339.708       13.226      860.824
10/21/2014  18:38:00      -68.175      104.869      -16.270       54.054       61.927       31.501     2921.781     3834.977      992.342        1.183        0.387      125.081       34.544        0.076      339.717       13.242      860.829
10/21/2014  18:39:00      -66.523       65.711       -5.549       38.016       32.699       29.240     1445.187     1069.223      854.950        0.607        0.168       93.505       24.339        0.068      339.691       13.199      860.831
10/21/2014  18:40:00      -91.610      137.439      -23.504       62.753       72.252       28.028     3937.991     5220.324      785.560        1.889        0.497      165.172       40.670        0.061      339.706       13.223      860.845
10/21/2014  18:41:00      -97.851      121.909      -28.036       64.290       36.740       25.852     4133.156     1349.862      668.310        1.569        0.308      156.322       30.048        0.037      339.737       13.275      860.861
10/21/2014  18:42:00      -54.986       97.409       -8.591       36.651       56.766       24.515     1343.265     3222.417      600.979        0.888        0.258      111.857       20.694        0.034      339.736       13.275      860.887
10/21/2014  18:43:00      -61.906       82.424      -13.339       25.065       35.786       19.641      628.255     1280.658      385.760        0.655        0.115      103.083       15.101        0.021      339.714       13.238      860.910
10/21/2014  18:44:00      -32.087       53.903       -4.876       27.538       33.590       16.332      758.330     1128.288      266.718        0.306        0.108       62.730       12.621        0.040      339.720       13.248      860.933
10/21/2014  18:45:00      -46.768       89.385       -3.224       41.854       52.300       25.624     1751.753     2735.261      656.572        0.766        0.257      100.880       18.423        0.033      339.711       13.233      860.955
10/21/2014  18:46:00      -63.354       98.886      -20.479       36.091       58.997       24.172     1302.577     3480.588      584.287        0.979        0.268      117.440       23.174        0.039      339.646       13.122      860.980
10/21/2014  18:47:00      -57.229      203.176      -24.249       59.654       48.406       36.594     3558.620     2343.107     1339.109        2.619        0.362      211.082       25.865        0.015      339.607       13.054      861.014
10/21/2014  18:48:00       22.870      161.338      -17.016       34.802       47.692       28.312     1211.154     2274.566      801.595        1.556        0.214      162.951       29.651        0.033      339.597       13.039      861.029
10/21/2014  18:49:00       20.223       75.907        3.568       55.810       65.380       35.297     3114.720     4274.532     1245.884        0.741        0.432       78.555       41.357        0.277      339.523       12.914      861.056
10/21/2014  18:50:00       79.736       63.520       29.795       56.717       38.050       37.838     3216.863     1447.820     1431.692        0.869        0.305      101.944       27.652        0.074      339.414       12.731      861.065
10/21/2014  18:51:00      107.454       73.584       44.341       41.753       31.238       36.506     1743.285      975.840     1332.723        1.149        0.203      130.235       20.767        0.025      339.411       12.726      861.078
10/21/2014  18:52:00      112.446       45.638       15.870       45.068       33.848       35.152     2031.137     1145.705     1235.685        0.969        0.221      121.355       24.862        0.042      339.424       12.749      861.085
10/21/2014  18:53:00       83.583       47.707       19.711       27.663       28.292       22.911      765.235      800.443      524.932        0.587        0.105       96.240       10.789        0.013      339.460       12.808      861.084
10/21/2014  18:54:00       38.589       23.298        7.324       38.361       24.572       14.250     1471.553      603.762      203.073        0.218        0.114       45.077       15.653        0.121      339.384       12.681      861.076
10/21/2014  18:55:00       11.941       55.179      -11.745       15.533       37.781       11.750      241.274     1427.408      138.051        0.257        0.090       56.456       17.558        0.097      339.428       12.752      861.073
10/21/2014  18:56:00        7.463       78.583       -9.796       30.126       22.711       12.721      907.587      515.769      161.824        0.396        0.079       78.937       11.471        0.021      339.546       12.952      861.067
10/21/2014  18:57:00        8.850      103.192      -20.645       25.233       24.333       16.137      636.705      592.103      260.390        0.632        0.074      103.570       15.240        0.022      339.494       12.865      861.054
10/21/2014  18:58:00      -45.505       91.584      -17.786       27.363       46.739       13.135      748.742     2184.570      172.521        0.694        0.155      102.266       16.071        0.025      339.463       12.813      861.037
10/21/2014  18:59:00      -63.966       90.474      -18.540       34.024       35.025       18.471     1157.608     1226.738      341.188        0.767        0.136      110.802       11.196        0.010      339.509       12.892      861.016
10/21/2014  19:00:00      -66.796       73.571      -18.204       20.498       37.353       20.614      420.157     1395.234      424.929        0.622        0.112       99.370       19.979        0.040      339.470       12.824      861.008
10/21/2014  19:01:00      -87.678      106.567      -27.652       34.473       42.067       23.081     1188.413     1769.624      532.735        1.165        0.175      138.000       21.497        0.024      339.463       12.813      861.013
10/21/2014  19:02:00      -91.711      156.689      -25.524       51.705       65.028       33.116     2673.360     4228.669     1096.643        2.080        0.400      181.556       34.436        0.036      339.457       12.801      861.027
10/21/2014  19:03:00      -65.380       84.522      -15.964       33.029       34.061       23.358     1090.938     1160.124      545.575        0.723        0.140      106.857       16.528        0.024      339.500       12.876      861.052
10/21/2014  19:04:00      -16.006       89.938      -14.041       29.853       61.631       18.928      891.218     3798.348      358.271        0.679        0.252       91.351       15.525        0.029      339.489       12.857      861.074
10/21/2014  19:05:00        2.783      168.148      -23.164       28.135       46.699       21.814      791.584     2180.817      475.847        1.613        0.172      168.171       24.011        0.020      339.463       12.813      861.093
10/21/2014  19:06:00      -19.209       96.305      -16.114       27.631       47.619       20.405      763.476     2267.570      416.348        0.667        0.172       98.202       19.743        0.040      339.493       12.865      861.131
10/21/2014  19:07:00      -41.357      147.273       -7.908       37.305       57.766       30.956     1391.645     3336.893      958.302        1.457        0.284      152.970       25.133        0.027      339.508       12.891      861.184
10/21/2014  19:08:00      -12.738      174.138      -12.115       33.167       50.459       34.891     1100.056     2546.144     1217.350        1.775        0.243      174.604       16.994        0.009      339.492       12.860      861.220
10/21/2014  19:09:00      -28.896      205.600      -24.569       65.977       39.602       29.899     4353.025     1568.317      893.949        2.526        0.341      207.620       18.482        0.008      339.494       12.863      861.236
10/21/2014  19:10:00      -26.808      163.488      -23.288       56.618       74.167       29.882     3205.622     5500.739      892.945        1.879        0.480      165.671       34.867        0.044      339.504       12.880      861.247
10/21/2014  19:11:00        0.289      119.436      -19.428       42.452       31.959       21.898     1802.141     1021.395      479.522        0.897        0.165      119.437       17.823        0.022      339.452       12.795      861.256
10/21/2014  19:12:00      -21.113      191.402      -23.093       54.029       59.358       27.214     2919.181     3523.421      740.610        2.240        0.359      192.563       21.928        0.013      339.492       12.860      861.269
10/21/2014  19:13:00      -20.326      144.169       -8.092       42.468       53.257       29.915     1803.500     2836.314      894.925        1.340        0.277      145.595       31.028        0.045      339.450       12.791      861.273
10/21/2014  19:14:00      -12.984      118.886      -17.945       29.653       41.074       18.991      879.288     1687.043      360.652        0.878        0.146      119.593       13.789        0.013      339.500       12.874      861.298
10/21/2014  19:15:00       -9.488       95.633      -14.743       31.758       37.726       22.113     1008.544     1423.265      488.988        0.619        0.146       96.102       19.497        0.041      339.475       12.834      861.298
10/21/2014  19:16:00      -17.814       76.738       -7.526       34.515       36.865       21.519     1191.298     1359.064      463.063        0.464        0.151       78.779       17.898        0.052      339.463       12.813      861.305
10/21/2014  19:17:00       -9.386      123.237      -15.448       28.307       52.894       25.957      801.259     2797.723      673.768        0.989        0.214      123.594       29.095        0.055      339.435       12.765      861.291
10/21/2014  19:18:00        5.318      113.939      -14.099       27.993       55.633       29.427      783.584     3095.011      865.933        0.898        0.237      114.063       32.039        0.079      339.365       12.648      861.285
10/21/2014  19:19:00       12.099      107.163      -12.330       42.701       46.458       28.285     1823.345     2158.367      800.052        0.828        0.239      107.843       26.619        0.061      339.323       12.577      861.275
10/21/2014  19:20:00        4.902      119.999       -5.207       37.506       66.105       32.484     1406.681     4369.873     1055.234        1.064        0.342      120.099       41.243        0.118      339.311       12.557      861.276
10/21/2014  19:21:00       21.749      137.555      -21.715       27.777       56.355       19.175      771.570     3175.886      367.681        1.209        0.216      139.263       24.747        0.032      339.221       12.406      861.279
10/21/2014  19:22:00      -38.607      151.144      -29.335       54.045       58.319       24.788     2920.870     3401.054      614.441        1.606        0.347      155.997       19.860        0.016      339.280       12.503      861.287
10/21/2014  19:23:00      -46.968      199.320      -29.225       42.185       53.621       24.088     1779.599     2875.233      580.225        2.401        0.262      204.779       19.948        0.009      339.226       12.411      861.321
10/21/2014  19:24:00      -44.348       58.817      -10.744       33.689       41.712       22.236     1134.964     1739.866      494.457        0.445        0.168       73.663       20.795        0.080      339.240       12.439      861.348
10/21/2014  19:25:00      -45.117      137.874      -19.975       38.386       52.124       24.542     1473.457     2716.875      602.309        1.312        0.240      145.068       12.914        0.008      339.253       12.459      861.380
10/21/2014  19:26:00      -37.909      147.562      -12.812       25.089       39.324       19.661      629.443     1546.406      386.559        1.297        0.128      152.354       10.790        0.005      339.157       12.298      861.406
10/21/2014  19:27:00      -50.561       68.392       -5.111       42.634       36.203       27.833     1817.640     1310.649      774.683        0.558        0.195       85.052       22.306        0.069      339.156       12.296      861.412
10/21/2014  19:28:00      -37.584       37.415       -7.822       22.479       21.360       19.786      505.305      456.236      391.493        0.211        0.068       53.032       17.161        0.105      339.089       12.182      861.408
10/21/2014  19:29:00      -89.874      106.075      -25.515       46.822       57.609       34.410     2192.320     3318.823     1184.035        1.334        0.335      139.030       27.864        0.040      339.094       12.192      861.402
10/21/2014  19:30:00     -137.429      200.921      -34.861       70.240       76.916       37.001     4933.669     5915.997     1369.089        3.634        0.611      243.426       26.414        0.012      339.103       12.203      861.401
10/21/2014  19:31:00     -131.620      191.203      -45.711       61.395       54.086       38.147     3769.389     2925.306     1455.205        3.206        0.407      232.126       28.407        0.015      339.100       12.198      861.393
10/21/2014  19:32:00     -132.250      173.624      -28.789       57.718       74.295       41.139     3331.348     5519.722     1692.445        2.950        0.527      218.255       44.669        0.042      339.044       12.105      861.394
10/21/2014  19:33:00     -126.605      158.268      -23.495       66.891       72.147       43.423     4474.426     5205.166     1885.588        2.660        0.578      202.676       35.309        0.030      338.998       12.027      861.382
10/21/2014  19:34:00     -155.648      175.307      -35.654       54.549       89.328       37.742     2975.583     7979.529     1424.445        3.430        0.619      234.433       34.611        0.022      339.024       12.070      861.377
10/21/2014  19:35:00     -138.960       94.253      -23.093       67.170       73.736       36.525     4511.744     5436.949     1334.083        2.000        0.564      167.909       42.063        0.063      339.000       12.033      861.382
10/21/2014  19:36:00     -117.083       86.598      -25.807       51.883       77.050       28.779     2691.844     5936.699      828.239        1.566        0.473      145.628       21.761        0.022      338.967       11.979      861.406
10/21/2014  19:37:00     -125.525      110.944      -23.072       66.455       80.858       33.717     4416.229     6538.033     1136.866        2.034        0.605      167.527       29.295        0.031      338.930       11.915      861.412
10/21/2014  19:38:00     -126.881      135.180      -30.693       46.442       81.242       35.357     2156.859     6600.217     1250.132        2.266        0.500      185.398       27.413        0.022      338.914       11.887      861.427
10/21/2014  19:39:00     -115.163      126.848      -20.875       62.297       66.087       38.745     3880.950     4367.528     1501.178        1.977        0.487      171.327       34.869        0.041      338.870       11.813      861.444
10/21/2014  19:40:00     -110.806       94.102      -20.237       59.899       52.971       31.951     3587.871     2805.904     1020.857        1.448        0.371      145.372       30.996        0.045      338.857       11.793      861.451
10/21/2014  19:41:00      -61.010      144.553       -9.203       47.646       64.698       39.092     2270.146     4185.841     1528.167        1.634        0.399      156.900       37.250        0.056      338.831       11.748      861.462
10/21/2014  19:42:00      -48.867       63.849       -3.555       24.550       35.178       21.035      602.686     1237.467      442.460        0.438        0.114       80.403       19.617        0.060      338.794       11.688      861.455
10/21/2014  19:43:00      -81.126      125.544      -23.363       77.943       66.661       35.096     6075.058     4443.711     1231.722        1.732        0.588      149.475       31.137        0.043      338.804       11.703      861.455
10/21/2014  19:44:00     -117.249      114.011      -25.141       66.543       48.411       42.908     4428.007     2343.665     1841.126        1.799        0.431      163.542       42.370        0.067      338.756       11.624      861.446
10/21/2014  19:45:00     -129.017      132.879      -25.871       58.272       89.937       31.668     3395.651     8088.614     1002.848        2.373        0.624      185.209       41.889        0.051      338.740       11.596      861.444
10/21/2014  19:46:00     -126.780      138.804      -30.344       60.439       65.553       37.204     3652.881     4297.203     1384.128        2.280        0.467      187.989       34.415        0.034      338.738       11.591      861.440
10/21/2014  19:47:00     -116.070      125.761      -33.037       46.051       64.345       29.943     2120.676     4140.311      896.577        1.877        0.358      171.138       30.150        0.031      338.733       11.583      861.429
10/21/2014  19:48:00     -124.989      123.489      -21.565       63.170       62.507       33.866     3990.421     3907.064     1146.934        2.019        0.452      175.703       35.762        0.041      338.725       11.570      861.427
10/21/2014  19:49:00     -125.947      134.629      -16.887       69.408       83.636       48.465     4817.517     6994.901     2348.903        2.421        0.708      184.358       47.983        0.068      338.716       11.555      861.422
10/21/2014  19:50:00     -126.777       95.717      -22.853       67.839       47.478       38.940     4602.159     2254.173     1516.323        1.706        0.419      158.853       36.005        0.051      338.751       11.614      861.423
10/21/2014  19:51:00     -119.038      161.093      -34.261       55.007       53.175       36.433     3025.785     2827.580     1327.340        2.424        0.359      200.302       31.968        0.025      338.741       11.598      861.425
10/21/2014  19:52:00     -128.313      109.702      -28.806       50.198       53.038       32.414     2519.847     2812.998     1050.669        1.786        0.319      168.816       30.778        0.033      338.791       11.682      861.446
10/21/2014  19:53:00     -145.952      126.312      -36.088       40.388       55.808       32.207     1631.152     3114.567     1037.276        2.217        0.289      193.020       30.135        0.024      338.817       11.724      861.454
10/21/2014  19:54:00     -147.319      124.095      -34.411       59.554       75.050       33.763     3546.628     5632.445     1139.957        2.430        0.516      192.620       46.450        0.058      338.794       11.686      861.488
10/21/2014  19:55:00     -143.350       97.537      -30.607       50.308       47.497       26.186     2530.854     2255.942      685.701        1.824        0.274      173.386       15.159        0.008      338.802       11.701      861.500
10/21/2014  19:56:00      -91.790       92.316      -26.037       39.659       64.637       26.111     1572.827     4177.883      681.792        1.203        0.322      130.183       20.497        0.025      338.808       11.710      861.518
10/21/2014  19:57:00     -102.245       90.229      -22.594       41.952       42.700       26.726     1759.951     1823.279      714.296        1.170        0.215      136.365       21.331        0.024      338.796       11.690      861.537
10/21/2014  19:58:00     -129.557      179.223      -30.815       51.880       59.573       36.120     2691.541     3548.899     1304.642        2.870        0.377      221.147       36.410        0.027      338.754       11.616      861.561
10/21/2014  19:59:00      -98.400      129.632      -24.156       48.902       66.255       34.367     2391.394     4389.728     1181.103        1.752        0.398      162.748       34.480        0.045      338.754       11.620      861.586
10/21/2014  20:00:00     -133.753      153.060      -33.650       36.221       88.216       40.097     1311.970     7782.002     1607.789        2.657        0.535      203.267       40.618        0.040      338.766       11.639      861.601
10/21/2014  20:01:00     -132.299       87.088      -23.144       62.105       46.758       37.778     3856.994     2186.312     1427.140        1.655        0.374      158.390       36.948        0.054      338.702       11.532      861.619
10/21/2014  20:02:00     -121.613      113.705      -26.050       60.619       51.975       40.733     3674.640     2701.391     1659.138        1.821        0.402      166.489       38.019        0.052      338.673       11.482      861.619
10/21/2014  20:03:00     -125.277      110.529      -27.157       74.963       62.540       45.856     5619.517     3911.255     2102.793        2.014        0.582      167.066       46.289        0.077      338.706       11.537      861.623
10/21/2014  20:04:00     -117.755        3.054       -0.946       58.389       91.106       31.327     3409.222     8300.254      981.397        1.328        0.635      117.795       16.064        0.019      338.762       11.634      861.599
10/21/2014  20:05:00      -85.717      -29.757       -6.241       53.910       46.558       32.310     2906.339     2167.611     1043.959        0.719        0.306       90.735       28.154        0.096      338.706       11.540      861.583
10/21/2014  20:06:00     -121.703       -2.945      -17.154       69.530       63.287       38.073     4834.404     4005.281     1449.573        1.270        0.514      121.738       33.804        0.077      338.667       11.475      861.562
10/21/2014  20:07:00     -164.924       23.349      -20.904       83.954       52.477       29.675     7048.225     2753.807      880.629        1.943        0.534      166.569       24.797        0.022      338.689       11.511      861.540
10/21/2014  20:08:00     -105.983        1.657       -1.459       59.865       45.317       40.212     3583.808     2053.623     1616.966        0.924        0.363      105.996       35.761        0.114      338.659       11.460      861.554
10/21/2014  20:09:00     -107.804       16.443      -13.910       63.660       86.269       34.720     4052.581     7442.417     1205.461        1.239        0.635      109.051       29.110        0.071      338.677       11.489      861.557
10/21/2014  20:10:00     -118.709       79.159      -21.222       46.487       53.366       27.771     2161.079     2847.933      771.238        1.329        0.289      142.682       26.736        0.035      338.690       11.513      861.557
10/21/2014  20:11:00      -38.111        1.901        3.664       44.259       35.828       23.312     1958.862     1283.659      543.469        0.263        0.189       38.158       21.939        0.331      338.665       11.472      861.542
10/21/2014  20:12:00      -86.255      -22.836        0.859       69.071       42.635       29.455     4770.783     1817.722      867.611        0.771        0.373       89.227       33.963        0.145      338.666       11.474      861.511
10/21/2014  20:13:00      -37.599        5.033       -5.132       23.355       25.821       17.443      545.449      666.721      304.275        0.149        0.076       37.935       11.796        0.097      338.616       11.388      861.492
10/21/2014  20:14:00      -97.306      -20.246      -12.573       30.385       35.936       20.962      923.251     1291.429      439.386        0.634        0.133       99.390       18.117        0.033      338.699       11.528      861.488
10/21/2014  20:15:00      -76.756       -4.304       -2.937       32.366       32.521       14.999     1047.546     1057.620      224.983        0.412        0.117       76.876       15.405        0.040      338.698       11.526      861.479
10/21/2014  20:16:00      -41.266       -1.591      -11.056       22.153       20.242       12.450      490.734      409.737      155.006        0.144        0.053       41.297        6.562        0.025      338.698       11.526      861.482
10/21/2014  20:17:00        6.630        2.281       -0.133       15.988       14.312        8.536      255.610      204.831       72.871        0.029        0.027        7.011        3.140        0.201      338.712       11.550      861.477
10/21/2014  20:18:00        8.518       32.667       20.884       25.478       35.904       19.233      649.113     1289.077      369.894        0.194        0.115       33.759       15.470        0.210      338.638       11.425      861.456
10/21/2014  20:19:00      -76.660      -19.889      -23.575       31.818       18.754       20.646     1012.386      351.724      426.273        0.431        0.090       79.198       10.016        0.016      338.712       11.549      861.426
10/21/2014  20:20:00      -43.822       20.997        6.723       23.031       21.467       16.746      530.426      460.817      280.421        0.184        0.064       48.593        8.334        0.029      338.697       11.525      861.405
10/21/2014  20:21:00      -88.853       -3.748       -5.683       23.357       24.596       18.220      545.552      604.973      331.980        0.471        0.074       88.932        8.676        0.010      338.698       11.524      861.408
10/21/2014  20:22:00      -41.519      -19.899       -7.544       40.485       30.381       17.253     1639.045      923.006      297.666        0.252        0.143       46.041       23.287        0.256      338.706       11.541      861.411
10/21/2014  20:23:00       10.694        4.901        9.025       16.441       15.581       14.813      270.311      242.754      219.431        0.048        0.037       11.763       15.135        1.655      338.597       11.356      861.428
10/21/2014  20:24:00       33.623       23.350       32.857       25.456       13.632       12.564      648.021      185.842      157.855        0.187        0.050       40.935        9.480        0.054      338.560       11.294      861.454
10/21/2014  20:25:00        4.744       19.301       26.593       15.279       21.243       14.030      233.458      451.279      196.830        0.099        0.044       19.875       10.480        0.278      338.475       11.150      861.476
10/21/2014  20:26:00       49.618       39.784       38.204       25.300       23.065       21.496      640.093      531.999      462.086        0.357        0.082       63.598       12.686        0.040      338.410       11.042      861.490
10/21/2014  20:27:00       92.001       45.403       18.459       36.171       32.078       26.404     1308.332     1029.001      697.187        0.695        0.152      102.595       17.257        0.028      338.373       10.981      861.504
10/21/2014  20:28:00       65.513       31.841        3.171       40.333       24.943       17.521     1626.758      622.146      307.001        0.394        0.128       72.841       12.854        0.031      338.378       10.989      861.513
10/21/2014  20:29:00       12.940       40.912       -9.972       27.812       19.883       12.357      773.522      395.345      152.697        0.163        0.066       42.909       11.550        0.072      338.430       11.075      861.522
10/21/2014  20:30:00      -52.146       46.490      -16.695       31.672       43.977        8.994     1003.101     1934.011       80.886        0.409        0.151       69.860       15.398        0.049      338.638       11.426      861.521
10/21/2014  20:31:00      -71.789      -12.421      -12.113       42.970       45.036       23.262     1846.456     2028.210      541.105        0.493        0.221       72.856       25.996        0.127      338.671       11.481      861.508
10/21/2014  20:32:00      -94.679       40.310      -14.835       30.775       21.454       21.419      947.104      460.277      458.793        0.634        0.093      102.903       19.185        0.035      338.519       11.225      861.493
10/21/2014  20:33:00     -106.822       27.972       -8.443       63.841       35.570       25.008     4075.633     1265.219      625.398        0.911        0.298      110.423       27.373        0.061      338.627       11.407      861.471
10/21/2014  20:34:00      -72.270       30.698       -2.025       46.680       39.377       27.541     2179.000     1550.542      758.507        0.533        0.224       78.519       22.227        0.080      338.695       11.520      861.441
10/21/2014  20:35:00       17.133       30.624       13.035       27.084       38.112       18.902      733.533     1452.493      357.298        0.197        0.127       35.091       21.198        0.365      338.571       11.313      861.425
10/21/2014  20:36:00      -13.030        9.615        7.196       16.129       24.698       14.206      260.136      609.994      201.806        0.069        0.054       16.193        6.829        0.178      338.490       11.176      861.427
10/21/2014  20:37:00       30.163       37.711       13.276       16.991       18.906       13.310      288.703      357.432      177.166        0.167        0.041       48.290        4.599        0.009      338.467       11.138      861.433
10/21/2014  20:38:00        9.873       28.620       -3.922       14.005       19.907       16.979      196.152      396.308      288.281        0.091        0.044       30.275       11.540        0.145      338.523       11.232      861.443
10/21/2014  20:39:00       18.220       22.666       -9.142        6.799        7.404        7.265       46.222       54.822       52.784        0.054        0.008       29.082        6.463        0.049      338.431       11.079      861.453
10/21/2014  20:40:00       20.832       25.903       -2.293       11.835        5.282        5.389      140.062       27.897       29.041        0.065        0.010       33.241        2.856        0.007      338.474       11.147      861.466
10/21/2014  20:41:00        8.629       16.890       -1.401        6.686        8.418        4.605       44.702       70.867       21.209        0.025        0.007       18.967        4.590        0.059      338.558       11.291      861.487
10/21/2014  20:42:00       34.626       30.862        5.186        9.929       12.222        6.659       98.579      149.384       44.337        0.124        0.015       46.384        2.848        0.004      338.518       11.224      861.495
10/21/2014  20:43:00       68.160       40.285        4.496       22.854       18.532       10.656      522.300      343.430      113.548        0.363        0.049       79.175        6.818        0.007      338.531       11.247      861.501
10/21/2014  20:44:00       88.386       36.837        6.114       24.836       24.785       16.840      616.850      614.317      283.594        0.536        0.076       95.755       14.329        0.022      338.495       11.185      861.511
10/21/2014  20:45:00       91.087       61.430        7.931       28.747       30.813       26.386      826.388      949.432      696.239        0.730        0.124      109.866       11.165        0.010      338.516       11.221      861.524
10/21/2014  20:46:00       48.810       39.930       -8.188       20.445       23.433       14.635      418.006      549.126      214.192        0.261        0.059       63.062       13.774        0.048      338.566       11.304      861.537
10/21/2014  20:47:00       36.954       42.989       -4.537       14.180       21.921       13.806      201.079      480.547      190.603        0.205        0.044       56.689       12.639        0.050      338.507       11.204      861.556
10/21/2014  20:48:00       44.705       34.005        3.419       11.468       18.726       15.447      131.514      350.665      238.600        0.194        0.036       56.169        9.527        0.029      338.502       11.196      861.579
10/21/2014  20:49:00       10.201       37.138       -8.022       16.716       21.635        9.547      279.418      468.053       91.141        0.119        0.042       38.514        8.209        0.045      338.623       11.400      861.599
10/21/2014  20:50:00       10.062       40.700       -6.413       13.847       28.672       10.596      191.734      822.086      112.265        0.146        0.056       41.926       15.182        0.131      338.533       11.248      861.623
10/21/2014  20:51:00      -15.936      109.624      -15.128       24.090       35.317       18.512      580.308     1247.272      342.687        0.733        0.109      110.777       14.726        0.018      338.642       11.433      861.661
10/21/2014  20:52:00      -39.648       98.625      -16.899       21.297       37.515       20.982      453.542     1407.367      440.264        0.694        0.115      106.296       20.357        0.037      338.636       11.423      861.716
10/21/2014  20:53:00      -50.176      108.001      -15.148       25.374       35.221       18.372      643.823     1240.515      337.533        0.832        0.111      119.088       14.747        0.015      338.726       11.575      861.750
10/21/2014  20:54:00      -29.614      114.135      -16.793       29.984       31.361       19.598      899.040      983.511      384.070        0.823        0.113      117.914        9.361        0.006      338.700       11.529      861.758
10/21/2014  20:55:00      -43.055       78.887       -8.134       23.937       26.644       15.034      572.972      709.913      226.029        0.483        0.075       89.872       13.123        0.021      338.604       11.369      861.732
10/21/2014  20:56:00       -8.628      121.277      -17.835       22.062       31.696       13.035      486.733     1004.607      169.909        0.838        0.083      121.583       12.937        0.011      338.620       11.395      861.698
10/21/2014  20:57:00       -2.925      110.871      -16.999       25.708       17.916       15.088      660.904      320.989      227.640        0.690        0.060      110.909        7.843        0.005      338.617       11.390      861.657
10/21/2014  20:58:00       22.991       49.011        0.019       18.464       27.623       15.912      340.908      763.031      253.199        0.214        0.068       54.136       11.595        0.046      338.458       11.124      861.619
10/21/2014  20:59:00       25.868       20.251        2.794       16.224       14.607       10.877      263.228      213.358      118.312        0.084        0.030       32.852        9.113        0.077      338.453       11.115      861.585
10/21/2014  21:00:00       44.454       17.825        2.949       20.686        8.249        9.482      427.930       68.048       89.900        0.144        0.029       47.895        5.484        0.013      338.402       11.029      861.566
10/21/2014  21:01:00       65.566       24.391        4.018       14.371       12.233       11.107      206.522      149.643      123.368        0.269        0.024       69.956        7.143        0.010      338.509       11.211      861.568
10/21/2014  21:02:00       56.198       26.926       13.749        9.092        7.373        9.200       82.671       54.360       84.645        0.215        0.011       62.315        3.125        0.003      338.441       11.095      861.596
10/21/2014  21:03:00       41.547       20.825        1.082       15.041        9.292        8.556      226.227       86.343       73.202        0.127        0.019       46.474        8.290        0.032      338.361       10.961      861.632
10/21/2014  21:04:00       43.276       17.183        4.862       12.173       10.469       10.839      148.185      109.590      117.487        0.128        0.019       46.563        7.975        0.029      338.410       11.043      861.660
10/21/2014  21:05:00       65.007       34.822       16.055       22.985       12.542       14.833      528.319      157.306      220.033        0.330        0.045       73.746        9.527        0.017      338.408       11.040      861.671
10/21/2014  21:06:00       80.969       52.699       16.979       21.107       16.618       13.559      445.522      276.164      183.853        0.526        0.045       96.608        9.779        0.010      338.459       11.124      861.656
10/21/2014  21:07:00       69.411       40.827       16.790       17.549       13.420       11.764      307.955      180.103      138.395        0.370        0.031       80.528        7.812        0.009      338.350       10.941      861.622
10/21/2014  21:08:00       57.116       51.504        0.584       23.864       21.578       14.568      569.482      465.629      212.226        0.358        0.062       76.908       11.509        0.022      338.354       10.949      861.611
10/21/2014  21:09:00       63.788       52.471        4.791       33.907       18.661       13.334     1149.702      348.216      177.789        0.426        0.084       82.596        6.603        0.006      338.344       10.931      861.624
10/21/2014  21:10:00       68.701       35.106        3.109       23.972       18.078       14.375      574.649      326.804      206.635        0.353        0.055       77.151        7.782        0.010      338.358       10.955      861.671
10/21/2014  21:11:00       43.201       37.119        0.225       23.315       17.033       11.161      543.588      290.129      124.573        0.210        0.048       56.957        8.411        0.022      338.338       10.921      861.725
10/21/2014  21:12:00       12.853       28.624       -7.436       14.788       15.370        9.194      218.688      236.243       84.531        0.079        0.027       31.377        3.696        0.014      338.316       10.887      861.778
10/21/2014  21:13:00       22.256       30.231       -5.923        9.331        8.775        5.919       87.064       77.008       35.035        0.082        0.010       37.540        4.945        0.017      338.407       11.038      861.815
10/21/2014  21:14:00       35.244       37.285       -7.113       10.409        8.405        8.402      108.353       70.649       70.592        0.147        0.012       51.306        3.868        0.006      338.442       11.096      861.818
10/21/2014  21:15:00       30.494       29.823       -5.618       11.750       11.452        9.665      138.056      131.146       93.406        0.111        0.018       42.653        6.550        0.024      338.449       11.108      861.823
10/21/2014  21:16:00       34.345       29.933       -4.633        9.669        8.579        6.158       93.493       73.603       37.927        0.115        0.010       45.558        4.209        0.009      338.519       11.225      861.827
10/21/2014  21:17:00       11.014       56.686       -6.156       13.816       14.558       10.899      190.884      211.924      118.796        0.195        0.026       57.746       10.118        0.031      338.527       11.238      861.852
10/21/2014  21:18:00      -18.832       54.064       -6.509       20.143       26.759       11.998      405.747      716.022      143.946        0.229        0.063       57.250        7.071        0.015      338.550       11.278      861.904
10/21/2014  21:19:00      -63.005       25.223       -8.322        9.723       13.372        8.505       94.541      178.822       72.334        0.251        0.017       67.866        4.585        0.005      338.502       11.197      861.954
10/21/2014  21:20:00      -44.432       29.268       -7.891       13.025       18.845       10.758      169.638      355.145      115.729        0.177        0.032       53.206       11.431        0.046      338.623       11.401      862.010
10/21/2014  21:21:00      -28.979       41.034       -7.147       15.085       16.880       10.148      227.564      284.935      102.984        0.159        0.031       50.236        8.500        0.029      338.648       11.443      862.037
10/21/2014  21:22:00      -30.305       38.321       -3.892       15.411       20.150       11.121      237.488      406.007      123.676        0.158        0.038       48.856        7.644        0.024      338.563       11.298      862.052
10/21/2014  21:23:00      -38.641       39.952       -8.792       24.331       26.908       11.205      592.001      724.014      125.550        0.230        0.072       55.581       12.024        0.047      338.542       11.264      862.074
10/21/2014  21:24:00      -49.943       10.425       -7.380       18.790       22.209        9.771      353.076      493.256       95.477        0.180        0.047       51.019       12.317        0.058      338.258       10.788      862.067
10/21/2014  21:25:00      -98.573      -15.478      -13.440       31.731       19.120       15.193     1006.857      365.565      230.822        0.587        0.080       99.781       14.258        0.020      338.035       10.412      862.072
10/21/2014  21:26:00     -107.885       -6.680      -14.033       36.968       23.698       22.335     1366.613      561.592      498.855        0.715        0.121      108.091       19.755        0.033      337.965       10.297      862.064
10/21/2014  21:27:00     -114.431      -16.650       -8.523       32.751       20.117       17.307     1072.621      404.707      299.522        0.761        0.089      115.636       16.001        0.019      338.067       10.467      862.058
10/21/2014  21:28:00     -134.292      -16.934      -10.905       23.562       19.723       15.050      555.160      388.998      226.491        0.981        0.059      135.355       13.190        0.009      338.009       10.370      862.063
10/21/2014  21:29:00     -143.234      -33.495      -18.961       14.891       18.052       12.430      221.728      325.891      154.506        1.135        0.035      147.098        9.137        0.004      338.018       10.384      862.063
10/21/2014  21:30:00     -114.365      -26.175       -9.169       21.413       17.535       12.372      458.525      307.473      153.057        0.738        0.046      117.322       11.110        0.009      337.976       10.314      862.051
10/21/2014  21:31:00     -110.226      -32.534      -13.821       11.267       17.912        9.299      126.953      320.857       86.466        0.697        0.027      114.927        7.741        0.005      338.023       10.395      862.054
10/21/2014  21:32:00     -100.309      -28.566      -12.757       30.238       30.983       13.855      914.362      959.944      191.969        0.655        0.103      104.298       15.940        0.023      337.962       10.292      862.058
10/21/2014  21:33:00     -101.912      -37.472      -13.580       23.822       23.912       15.142      567.487      571.807      229.287        0.667        0.068      108.583       10.611        0.010      338.021       10.389      862.057
10/21/2014  21:34:00     -108.220      -26.121      -12.714       29.463       27.250       16.767      868.057      742.543      281.132        0.722        0.095      111.327       16.553        0.022      337.933       10.242      862.060
10/21/2014  21:35:00     -117.296      -24.491      -15.228       16.508       24.721       14.539      272.509      611.150      211.372        0.784        0.055      119.826        8.485        0.005      337.923       10.224      862.062
10/21/2014  21:36:00      -93.866       -6.138       -8.675       40.581       20.480       18.113     1646.821      419.447      328.083        0.566        0.120       94.067       21.816        0.054      337.830       10.070      862.076
10/21/2014  21:37:00     -140.192       -3.018      -17.654       26.807       22.637       15.134      718.641      512.417      229.027        1.072        0.073      140.224       13.535        0.009      337.727        9.897      862.100
10/21/2014  21:38:00     -106.835       -1.485      -12.842       26.158       27.021       15.356      684.239      730.137      235.810        0.662        0.083      106.845       13.862        0.017      337.749        9.935      862.118
10/21/2014  21:39:00     -110.141      -31.171      -20.060       17.840       25.525       11.423      318.281      651.510      130.487        0.730        0.055      114.467       10.397        0.008      337.746        9.928      862.127
10/21/2014  21:40:00      -76.663      -19.051       -4.934       27.535       34.094       14.169      758.176     1162.425      200.756        0.419        0.106       78.994        6.442        0.007      337.672        9.804      862.142
10/21/2014  21:41:00      -92.213      -31.061       -6.825       36.929       25.530       15.315     1363.721      651.779      234.558        0.588        0.113       97.304       15.542        0.026      337.726        9.895      862.151
10/21/2014  21:42:00     -101.197      -27.747       -3.641       32.602       26.258       20.596     1062.864      689.497      424.199        0.660        0.109      104.932       16.706        0.025      337.631        9.736      862.175
10/21/2014  21:43:00      -91.179      -30.331       -0.678       24.556       27.811       17.951      603.020      773.477      322.233        0.547        0.085       96.092       15.838        0.027      337.623        9.723      862.201
10/21/2014  21:44:00      -70.286      -22.363        0.782       31.212       22.432       16.071      974.170      503.186      258.282        0.359        0.087       73.758       16.382        0.049      337.609        9.699      862.196
10/21/2014  21:45:00      -43.920       -2.368       -6.294       20.322       12.363        9.635      412.965      152.840       92.833        0.132        0.033       43.984        7.470        0.029      337.686        9.828      862.205
10/21/2014  21:46:00      -15.089       -6.387        2.877        8.413        7.805       10.224       70.786       60.921      104.531        0.026        0.012       16.385        6.672        0.166      337.671        9.804      862.192
10/21/2014  21:47:00       -9.402      -19.431        5.032       24.476       10.088       11.489      599.074      101.763      132.004        0.066        0.042       21.586       11.262        0.272      337.729        9.899      862.179
10/21/2014  21:48:00      -52.953      -31.752       -6.779       13.525       14.745        9.270      182.935      217.411       85.936        0.217        0.024       61.743        6.489        0.011      337.758        9.948      862.160
10/21/2014  21:49:00      -59.962      -35.297       -2.976       15.232       20.912       12.400      232.026      437.321      153.763        0.284        0.041       69.580        8.806        0.016      337.808       10.033      862.135
10/21/2014  21:50:00      -82.758      -27.065      -12.882       12.510       15.384        9.456      156.488      236.664       89.413        0.411        0.024       87.071        3.528        0.002      337.814       10.042      862.127
10/21/2014  21:51:00      -90.203      -24.526      -12.937       14.669       13.469       10.230      215.167      181.409      104.654        0.470        0.025       93.478        9.115        0.010      337.844       10.093      862.109
10/21/2014  21:52:00      -89.528      -42.378      -12.189       13.190       13.249        9.274      173.989      175.532       86.000        0.520        0.022       99.052        6.029        0.004      337.889       10.166      862.098
10/21/2014  21:53:00     -102.082      -43.757      -11.151       13.893       14.995        8.254      193.020      224.845       68.131        0.647        0.024      111.065        3.382        0.001      337.931       10.238      862.093
10/21/2014  21:54:00     -135.652      -63.369       -8.450       23.301       19.239       12.353      542.917      370.152      152.584        1.178        0.053      149.723        8.077        0.003      337.858       10.116      862.075
10/21/2014  21:55:00     -131.335      -50.354       -6.679       18.720       18.209        9.266      350.430      331.564       85.861        1.030        0.038      140.657        8.186        0.003      337.819       10.050      862.055
10/21/2014  21:56:00      -89.421      -33.718       -7.313       28.447       22.698       12.247      809.257      515.204      149.992        0.533        0.074       95.567       10.400        0.012      337.760        9.952      862.039
10/21/2014  21:57:00     -116.459      -20.042      -12.493       22.484       18.877       16.596      505.530      356.336      275.414        0.763        0.057      118.171       14.661        0.015      337.735        9.910      862.012
10/21/2014  21:58:00     -108.549      -19.235      -17.552       27.413       18.831       16.958      751.464      354.621      287.557        0.693        0.070      110.240       15.512        0.020      337.678        9.814      862.018
10/21/2014  21:59:00     -146.840       11.549      -20.203       30.583       26.186       14.566      935.340      685.732      212.181        1.197        0.092      147.294       13.072        0.008      337.776        9.978      862.051
10/21/2014  22:00:00      -99.058      -32.197      -10.331       31.606       39.418       17.948      998.952     1553.817      322.117        0.691        0.144      104.160       16.247        0.024      337.666        9.795      862.063
10/21/2014  22:01:00     -122.022      -16.926       -2.922       25.598       20.243       16.733      655.256      409.760      279.988        0.826        0.067      123.191       13.789        0.013      337.603        9.689      862.077
10/21/2014  22:02:00     -113.859      -35.793       -9.932       18.460       22.642       17.268      340.785      512.648      298.178        0.775        0.058      119.353        9.050        0.006      337.643        9.757      862.097
10/21/2014  22:03:00     -130.390       -7.887      -12.300       36.667       29.527       18.783     1344.495      871.824      352.789        0.989        0.128      130.628       16.138        0.015      337.637        9.745      862.104
10/21/2014  22:04:00     -127.225        3.861      -20.982       26.088       29.544       23.254      680.572      872.824      540.732        0.937        0.105      127.283       17.388        0.019      337.657        9.777      862.129
10/21/2014  22:05:00     -143.966       33.888      -20.704       28.535       27.969       18.560      814.238      782.238      344.471        1.212        0.097      147.900       18.099        0.015      337.736        9.912      862.158
10/21/2014  22:06:00     -130.122        6.748      -15.015       25.627       22.978       17.084      656.746      527.992      291.871        0.934        0.074      130.297       11.257        0.007      337.877       10.148      862.167
10/21/2014  22:07:00     -116.096       23.641      -11.598       19.783       20.974       14.862      391.382      439.916      220.875        0.761        0.053      118.479       10.022        0.007      337.890       10.171      862.167
10/21/2014  22:08:00      -69.297       19.818       -2.394       38.999       20.163       17.693     1520.901      406.557      313.035        0.372        0.112       72.075        8.520        0.014      337.918       10.216      862.156
10/21/2014  22:09:00      -62.986       36.401       -8.158       22.540       34.732       16.558      508.053     1206.333      274.176        0.367        0.099       72.748       17.012        0.055      337.899       10.184      862.158
10/21/2014  22:10:00      -79.145       35.516      -20.867       21.382       32.437       19.074      457.198     1052.150      363.808        0.492        0.094       86.748       16.081        0.034      337.955       10.280      862.186
10/21/2014  22:11:00      -75.728        1.265      -16.614       12.303       16.721        9.695      151.358      279.600       93.994        0.327        0.026       75.738        8.297        0.012      337.888       10.165      862.222
10/21/2014  22:12:00      -76.652      -18.320      -17.957       25.494       32.799       13.211      649.926     1075.757      174.520        0.422        0.095       78.811       10.690        0.018      337.861       10.121      862.249
10/21/2014  22:13:00      -53.908      -24.676        3.627       31.090       28.270       18.171      966.585      799.171      330.180        0.281        0.105       59.287       14.339        0.058      337.731        9.904      862.281
10/21/2014  22:14:00      -71.218      -48.780       -5.613       38.240       33.118       23.139     1462.260     1096.796      535.423        0.529        0.155       86.322       22.117        0.066      337.618        9.714      862.298
10/21/2014  22:15:00      -99.209      -81.684        0.988       51.704       60.895       28.000     2673.284     3708.212      783.996        1.184        0.358      128.510       19.464        0.023      337.452        9.434      862.304
10/21/2014  22:16:00     -143.005      -77.535       -0.438       46.989       31.466       24.758     2207.979      990.105      612.953        1.514        0.191      162.672       21.998        0.018      337.347        9.259      862.316
10/21/2014  22:17:00     -137.778      -70.306        4.004       43.117       38.255       27.331     1859.083     1463.420      746.964        1.401        0.203      154.680       27.090        0.031      337.352        9.267      862.328
10/21/2014  22:18:00     -133.568      -85.709       -6.913       39.548       33.034       23.485     1564.068     1091.263      551.568        1.422        0.160      158.703       22.183        0.020      337.393        9.337      862.336
10/21/2014  22:19:00     -116.648      -58.763       -9.690       36.844       26.375       19.446     1357.511      695.656      378.166        0.979        0.122      130.614       20.292        0.024      337.389        9.329      862.349
10/21/2014  22:20:00     -110.665      -76.232       -7.605       29.682       24.962       19.649      881.011      623.088      386.091        1.000        0.095      134.380       16.731        0.016      337.455        9.440      862.370
10/21/2014  22:21:00      -94.545      -14.929       -8.214       29.981       25.743       14.269      898.832      662.715      203.602        0.550        0.088       95.716       12.577        0.017      337.419        9.381      862.387
10/21/2014  22:22:00      -98.401      -37.260      -10.442       38.346       21.907       12.948     1470.420      479.936      167.650        0.665        0.106      105.219        7.249        0.005      337.466        9.460      862.385
10/21/2014  22:23:00     -105.347      -57.850       -5.775       32.913       21.684       13.392     1083.256      470.211      179.351        0.811        0.087      120.186       14.525        0.015      337.394        9.339      862.385
10/21/2014  22:24:00     -100.390      -43.975       -4.802       24.345       34.681       17.134      592.660     1202.787      293.562        0.706        0.104      109.599       14.315        0.017      337.338        9.244      862.376
10/21/2014  22:25:00      -96.301      -56.805       -3.393       21.231       17.648       14.215      450.741      311.466      202.062        0.674        0.048      111.807        8.134        0.005      337.361        9.282      862.355
10/21/2014  22:26:00     -116.455      -30.338      -13.618       16.702       18.399       11.246      278.966      338.524      126.475        0.771        0.037      120.342        9.144        0.006      337.366        9.292      862.337
10/21/2014  22:27:00      -97.559      -33.523       -1.007       28.052       19.918       13.852      786.902      396.729      191.877        0.601        0.069      103.158       14.107        0.019      337.393        9.338      862.340
10/21/2014  22:28:00      -76.021      -34.566        0.977       29.276       18.382       10.699      857.060      337.914      114.465        0.414        0.065       83.511       10.761        0.017      337.385        9.323      862.345
10/21/2014  22:29:00      -30.987      -17.374        7.564       31.219       17.233       16.880      974.599      296.973      284.946        0.144        0.078       35.526       15.137        0.182      337.403        9.353      862.336
10/21/2014  22:30:00      -86.601      -45.686       -3.021       28.613       18.763       14.004      818.695      352.045      196.117        0.548        0.068       97.912       11.662        0.014      337.403        9.354      862.331
10/21/2014  22:31:00     -103.884      -43.619      -11.953       14.784       21.264       11.666      218.556      452.166      136.095        0.682        0.040      112.669        5.286        0.002      337.411        9.367      862.338
10/21/2014  22:32:00     -111.836      -43.006       -5.417       16.052       14.128       11.846      257.655      199.595      140.321        0.749        0.030      119.820        7.900        0.004      337.455        9.440      862.336
10/21/2014  22:33:00     -107.612      -55.444       -4.531       12.345       12.178        7.895      152.403      148.296       62.336        0.752        0.018      121.056        5.985        0.002      337.445        9.424      862.320
10/21/2014  22:34:00      -85.799      -43.006       -3.454       21.790       17.804       10.375      474.798      316.988      107.633        0.506        0.045       95.974        6.879        0.005      337.411        9.366      862.309
10/21/2014  22:35:00      -95.779      -24.770      -14.835       13.988       16.480       10.078      195.653      271.595      101.559        0.529        0.028       98.930        6.038        0.004      337.367        9.293      862.299
10/21/2014  22:36:00      -64.979      -14.272       -3.049       24.852       18.737       12.901      617.631      351.087      166.446        0.279        0.057       66.528       13.859        0.043      337.341        9.249      862.289
10/21/2014  22:37:00     -110.529      -24.990      -11.175       22.395       13.835       13.319      501.545      191.402      177.395        0.692        0.044      113.319        4.256        0.001      337.277        9.142      862.287
10/21/2014  22:38:00     -115.335      -46.261       -7.101       18.282       17.593       12.057      334.229      309.509      145.382        0.814        0.039      124.267        7.543        0.004      337.221        9.048      862.297
10/21/2014  22:39:00     -105.161      -33.263        0.699       20.001       23.918       14.940      400.022      572.067      223.201        0.668        0.060      110.296       13.966        0.016      337.211        9.033      862.302
10/21/2014  22:40:00     -101.951      -27.993       -5.508       17.207       20.244       12.610      296.081      409.801      159.004        0.604        0.043      105.724        7.094        0.005      337.216        9.040      862.311
10/21/2014  22:41:00      -64.670      -12.524       -5.334       19.701       19.074       14.761      388.134      363.805      217.877        0.267        0.048       65.871       13.386        0.041      337.101        8.847      862.332
10/21/2014  22:42:00      -59.713      -31.422        0.801       14.846       16.949        9.767      220.418      287.259       95.395        0.258        0.030       67.476        9.133        0.018      337.157        8.941      862.358
10/21/2014  22:43:00      -64.793      -37.967       -5.489       16.683       13.451       11.549      278.310      180.927      133.385        0.313        0.030       75.097        4.017        0.003      337.195        9.006      862.395
10/21/2014  22:44:00      -94.201      -36.723       -5.119       24.941       21.214       13.796      622.045      450.028      190.338        0.576        0.063      101.106        9.876        0.010      337.186        8.992      862.433
10/21/2014  22:45:00      -89.485      -41.945       -4.414       21.867       19.830       12.218      478.160      393.240      149.272        0.540        0.051       98.828        9.175        0.009      337.113        8.868      862.421
10/21/2014  22:46:00       -0.591      -20.293       12.442       20.840       14.566       15.436      434.304      212.165      238.271        0.073        0.044       20.301       12.122        0.357      337.182        8.985      862.394
10/21/2014  22:47:00       -6.436      -12.286        1.750       20.616       14.216       12.442      425.024      202.083      154.811        0.049        0.039       13.870       11.242        0.657      337.199        9.012      862.365
10/21/2014  22:48:00      -29.657      -22.199       -0.244       22.819       15.461       11.657      520.697      239.035      135.892        0.113        0.045       37.045       10.535        0.081      337.283        9.153      862.347
10/21/2014  22:49:00      -29.986      -23.026        2.093       19.440       12.723       11.162      377.896      161.879      124.586        0.105        0.033       37.807        5.903        0.024      337.286        9.158      862.328
10/21/2014  22:50:00      -15.410      -40.013        5.418       22.940       20.934       12.054      526.226      438.223      145.303        0.149        0.055       42.878       11.034        0.066      337.336        9.240      862.325
10/21/2014  22:51:00      -17.122      -29.941       -0.735       23.117       13.505       11.015      534.380      182.375      121.331        0.101        0.042       34.491       10.277        0.089      337.316        9.207      862.328
10/21/2014  22:52:00      -51.272      -23.437       -0.412       19.319       20.266       13.778      373.208      410.700      189.821        0.208        0.049       56.375        7.846        0.019      337.249        9.097      862.339
10/21/2014  22:53:00      -27.851      -35.364        8.717       35.177       26.098       18.052     1237.412      681.124      325.891        0.217        0.112       45.014       19.648        0.191      337.216        9.040      862.383
10/21/2014  22:54:00      -62.239      -68.929        1.036       35.732       34.821       20.720     1276.766     1212.470      429.313        0.577        0.146       92.871       21.341        0.053      337.213        9.037      862.410
10/21/2014  22:55:00      -87.032      -86.990       -1.797       34.772       35.985       26.156     1209.108     1294.888      684.121        0.917        0.159      123.052       20.862        0.029      337.167        8.957      862.416
10/21/2014  22:56:00      -53.852      -42.878       -0.770       38.170       22.749       24.299     1456.981      517.526      590.438        0.365        0.128       68.838       24.463        0.126      337.170        8.963      862.393
10/21/2014  22:57:00      -25.290      -52.073       -3.736       42.744       36.852       22.456     1827.084     1358.097      504.283        0.353        0.184       57.889       19.761        0.117      337.195        9.006      862.367
10/21/2014  22:58:00      -18.900      -28.695        5.249       21.403       39.606       23.061      458.095     1568.662      531.795        0.188        0.128       34.360       20.357        0.351      337.143        8.918      862.340
10/21/2014  22:59:00      -50.816      -52.285        7.777       49.258       37.436       23.491     2426.316     1401.433      551.848        0.488        0.219       72.911       16.007        0.048      336.987        8.656      862.340
10/21/2014  23:00:00     -112.095      -97.710      -14.155       56.985       42.690       28.051     3247.255     1822.408      786.832        1.408        0.293      148.703       35.106        0.056      336.905        8.521      862.331
10/21/2014  23:01:00     -103.738      -76.230        0.383       46.613       52.944       24.829     2172.798     2803.028      616.495        1.108        0.280      128.734       31.257        0.059      336.833        8.400      862.323
10/21/2014  23:02:00     -113.666      -93.266      -12.447       31.928       31.171       21.729     1019.391      971.651      472.130        1.212        0.123      147.032       14.567        0.010      336.776        8.305      862.320
10/21/2014  23:03:00      -95.709      -72.162       -3.714       38.637       36.643       22.765     1492.845     1342.741      518.230        0.887        0.168      119.865       20.608        0.030      336.813        8.368      862.312
10/21/2014  23:04:00     -118.517      -73.484       -1.238       39.983       42.913       23.254     1598.603     1841.556      540.764        1.171        0.199      139.449       21.406        0.024      336.798        8.343      862.317
10/21/2014  23:05:00     -106.816      -75.617       -6.406       22.120       39.735       18.197      489.287     1578.872      331.147        0.978        0.120      130.872       11.608        0.008      336.801        8.346      862.343
10/21/2014  23:06:00      -97.869     -104.184        2.682       47.194       41.546       26.502     2227.245     1726.060      702.357        1.255        0.233      142.943       31.345        0.048      336.791        8.330      862.357
10/21/2014  23:07:00      -88.797      -74.897       -2.354       35.282       37.815       22.314     1244.823     1429.998      497.909        0.834        0.159      116.166       19.550        0.028      336.788        8.326      862.365
10/21/2014  23:08:00      -34.883      -49.273       -4.676       39.926       20.144       16.984     1594.106      405.783      288.459        0.298        0.114       60.371        7.875        0.017      336.892        8.498      862.365
10/21/2014  23:09:00      -34.632      -45.778       -0.908       42.257       25.883       23.657     1785.637      669.923      559.660        0.316        0.151       57.402       16.023        0.078      336.942        8.581      862.361
10/21/2014  23:10:00       -6.846      -16.973       -8.644       14.599       21.019       13.351      213.124      441.804      178.250        0.062        0.042       18.302       10.846        0.351      336.938        8.574      862.345
10/21/2014  23:11:00      -54.001      -20.862       -3.408       28.136       20.289       13.978      791.617      411.630      195.380        0.238        0.070       57.891        7.962        0.019      336.903        8.516      862.338
10/21/2014  23:12:00      -66.458      -28.556        4.826       39.357       23.599       17.105     1548.944      556.896      292.579        0.383        0.120       72.333       19.517        0.073      336.909        8.528      862.359
10/21/2014  23:13:00      -45.492      -20.189        8.379       41.653       33.068       19.359     1735.002     1093.467      374.764        0.287        0.160       49.770       21.349        0.184      336.916        8.537      862.385
10/21/2014  23:14:00      -42.085      -44.581        4.000       29.684       33.837       21.263      881.151     1144.945      452.095        0.313        0.124       61.307       15.373        0.063      336.931        8.564      862.400
10/21/2014  23:15:00      -51.739      -37.253        9.652       37.716       29.551       23.321     1422.502      873.272      543.884        0.350        0.142       63.755       20.989        0.108      336.882        8.482      862.412
10/21/2014  23:16:00      -84.388      -44.738        3.985       49.949       33.092       24.115     2494.880     1095.112      581.513        0.665        0.209       95.514       24.258        0.065      336.794        8.337      862.437
10/21/2014  23:17:00     -117.240      -84.713      -13.020       31.026       27.844       22.107      962.605      775.288      488.724        1.166        0.111      144.643       16.147        0.012      336.758        8.275      862.453
10/21/2014  23:18:00     -120.494     -110.497      -17.815       24.672       18.444       19.351      608.722      340.180      374.476        1.418        0.066      163.489       10.830        0.004      336.786        8.322      862.464
10/21/2014  23:19:00     -103.158      -76.940       -4.944       44.731       27.242       27.261     2000.861      742.128      743.189        1.004        0.174      128.691       29.035        0.051      336.829        8.393      862.480
10/21/2014  23:20:00      -80.283      -63.690        6.904       43.600       32.574       27.769     1900.993     1061.072      771.137        0.714        0.187      102.478       23.911        0.054      336.842        8.415      862.485
10/21/2014  23:21:00      -52.982      -52.789       12.546       45.931       39.076       26.539     2109.660     1526.907      704.341        0.505        0.217       74.791       29.885        0.160      336.866        8.456      862.482
10/21/2014  23:22:00        1.055       -2.566       11.768       18.706       13.944       16.112      349.926      194.448      259.611        0.047        0.040        2.774       12.778       21.215      336.838        8.409      862.485
10/21/2014  23:23:00      -18.921      -24.923        2.908       26.453       17.199       13.135      699.766      295.809      172.535        0.108        0.058       31.292       10.505        0.113      336.868        8.458      862.502
10/21/2014  23:24:00       -5.844      -27.238        6.585       19.020       11.938       11.650      361.746      142.513      135.727        0.073        0.032       27.858        1.550        0.003      336.954        8.601      862.512
10/21/2014  23:25:00      -62.270      -22.359       -8.643       27.108       17.190       12.411      734.865      295.513      154.038        0.282        0.059       66.163       11.057        0.028      336.944        8.586      862.530
10/21/2014  23:26:00      -49.710      -44.108       -0.522       31.185       20.743       16.628      972.523      430.278      276.487        0.305        0.084       66.457       19.447        0.086      336.834        8.404      862.537
10/21/2014  23:27:00      -62.544      -38.974        0.264       17.073       23.451       12.029      291.484      549.963      144.702        0.321        0.049       73.693       11.945        0.026      336.794        8.335      862.547
10/21/2014  23:28:00      -34.973      -24.189        7.172       24.877       26.076       13.104      618.864      679.935      171.706        0.166        0.074       42.523       18.530        0.190      336.918        8.540      862.581
10/21/2014  23:29:00      -15.079      -11.831        4.275       11.292        6.975        8.728      127.507       48.646       76.176        0.032        0.013       19.166        7.451        0.151      336.913        8.532      862.624
10/21/2014  23:30:00      -33.891        1.395       -5.369       11.056       14.559        6.508      122.236      211.973       42.351        0.078        0.019       33.920        5.164        0.023      336.849        8.427      862.672
10/21/2014  23:31:00      -44.056       20.377       -6.351       16.646        8.280        8.003      277.098       68.565       64.051        0.140        0.020       48.540        6.168        0.016      336.715        8.205      862.725
10/21/2014  23:32:00      -75.547        0.111       -7.689       17.159       17.913       11.723      294.421      320.858      137.427        0.326        0.038       75.547        5.605        0.006      336.752        8.265      862.788
10/21/2014  23:33:00      -64.529      -18.799       -2.354       21.312       23.950       13.705      454.210      573.608      187.837        0.287        0.061       67.211       11.023        0.027      336.614        8.034      862.830
10/21/2014  23:34:00      -64.516        9.181       -5.691       23.592       23.729       18.499      556.568      563.065      342.226        0.287        0.073       65.166        9.611        0.022      336.547        7.922      862.855
10/21/2014  23:35:00      -79.599        8.183       -7.322       26.750       29.385       17.304      715.544      863.454      299.423        0.417        0.094       80.019       12.951        0.026      336.517        7.873      862.858
10/21/2014  23:36:00      -59.017       -5.127       -9.038       23.265       31.943       14.117      541.277     1020.324      199.294        0.268        0.088       59.240        9.503        0.026      336.493        7.833      862.831
10/21/2014  23:37:00      -16.939       -7.988       -1.571        9.145       10.856        8.556       83.636      117.852       73.206        0.031        0.014       18.728        7.339        0.154      336.479        7.810      862.775
10/21/2014  23:38:00        5.650       -5.975        1.532        9.072        7.947        9.298       82.307       63.153       86.448        0.015        0.012        8.224        6.467        0.618      336.644        8.085      862.683
10/21/2014  23:39:00        1.806      -14.879        3.618       18.336       25.915       13.242      336.198      671.564      175.349        0.071        0.059       14.988       12.427        0.687      336.620        8.045      862.602
10/21/2014  23:40:00        2.079        6.719        8.372        6.699       11.565        7.747       44.881      133.755       60.022        0.018        0.012        7.033        7.764        1.219      336.629        8.060      862.578
10/21/2014  23:41:00       -3.442       10.352        4.632        6.351        7.357        5.447       40.330       54.120       29.668        0.013        0.006       10.909        5.463        0.251      336.666        8.123      862.592
10/21/2014  23:42:00      -20.708        1.343       -1.895        9.114        6.706        6.289       83.072       44.966       39.548        0.030        0.008       20.752        4.564        0.048      336.694        8.172      862.608
10/21/2014  23:43:00      -48.814      -12.158       -6.109       13.351       15.300        8.112      178.244      234.084       65.808        0.152        0.024       50.305        5.791        0.013      336.679        8.144      862.608
10/21/2014  23:44:00      -74.934      -22.665       -9.848       10.627        9.956        8.931      112.934       99.116       79.761        0.326        0.015       78.287        2.772        0.001      336.592        7.997      862.587
10/21/2014  23:45:00      -69.722      -30.225      -10.503       10.835       12.657        9.849      117.389      160.197       97.007        0.313        0.019       75.991        2.576        0.001      336.564        7.951      862.576
10/21/2014  23:46:00      -38.048      -24.311       -4.889       16.404        9.867        9.573      269.101       97.357       91.649        0.126        0.023       45.152        7.081        0.025      336.615        8.037      862.558
10/21/2014  23:47:00      -15.992       -8.946        1.450       16.621       11.585        8.642      276.263      134.203       74.680        0.041        0.024       18.324       10.595        0.334      336.618        8.041      862.514
10/21/2014  23:48:00      -10.514      -15.564        0.379       16.955       14.222       11.472      287.470      202.276      131.617        0.049        0.031       18.782       11.611        0.382      336.698        8.176      862.475
10/21/2014  23:49:00      -12.557      -16.030        3.730        7.836        8.348        5.291       61.399       69.694       27.992        0.029        0.008       20.363        3.174        0.024      336.715        8.206      862.437
10/21/2014  23:50:00      -35.652      -13.640       -2.696        9.834        7.878        6.016       96.704       62.069       36.194        0.083        0.010       38.172        4.337        0.013      336.809        8.361      862.423
10/21/2014  23:51:00      -55.214      -17.055       -4.936       12.920       11.212        9.395      166.928      125.705       88.258        0.187        0.019       57.788        6.413        0.012      336.840        8.413      862.417
10/21/2014  23:52:00      -46.431      -26.084       -3.997       32.037       19.651       12.062     1026.401      386.176      145.484        0.220        0.078       53.256       12.120        0.052      336.748        8.259      862.421
10/21/2014  23:53:00      -55.790      -52.003       -0.635       39.590       33.730       19.557     1567.358     1137.702      382.471        0.445        0.154       76.268       20.735        0.074      336.704        8.186      862.431
10/21/2014  23:54:00      -88.347      -56.721       -1.045       44.684       25.206       18.182     1996.687      635.328      330.598        0.699        0.148      104.988       16.930        0.026      336.701        8.180      862.449
10/21/2014  23:55:00      -44.413      -41.909        2.068       44.267       28.234       19.134     1959.555      797.172      366.092        0.343        0.156       61.064       19.945        0.107      336.701        8.181      862.460
10/21/2014  23:56:00      -80.775      -55.044       -1.758       47.509       26.692       20.995     2257.134      712.484      440.783        0.648        0.171       97.747       24.519        0.063      336.751        8.264      862.450
10/21/2014  23:57:00      -80.264      -69.988        2.212       43.766       34.939       22.502     1915.439     1220.762      506.341        0.749        0.182      106.492       21.820        0.042      336.755        8.272      862.429
10/21/2014  23:58:00      -60.573      -47.466        4.150       59.557       37.862       28.203     3547.001     1433.529      795.427        0.586        0.289       76.955       33.129        0.185      336.693        8.166      862.416
10/21/2014  23:59:00      -94.460      -64.477        7.416       41.889       48.464       27.391     1754.721     2348.761      750.242        0.899        0.243      114.368       21.752        0.036      336.658        8.109      862.403
